<?xml version='1.0' encoding='UTF-8'?><gpx version="1.1" creator="JPX - https://github.com/jenetics/jpx" xmlns="http://www.topografix.com/GPX/1/1"><trk><trkseg><trkpt lat="45.9729496" lon="12.6784095"><ele>31.000000000000004</ele><time>2026-04-06T17:11:39.052Z</time></trkpt><trkpt lat="45.9730232" lon="12.6783319"><ele>31.0</ele><time>2026-04-06T17:11:41.054Z</time></trkpt><trkpt lat="45.9730744" lon="12.6782756"><ele>31.0</ele><time>2026-04-06T17:11:42.052Z</time></trkpt><trkpt lat="45.9731257" lon="12.6782108"><ele>31.0</ele><time>2026-04-06T17:11:43.053Z</time></trkpt><trkpt lat="45.9731781" lon="12.678152"><ele>31.000000000000004</ele><time>2026-04-06T17:11:44.054Z</time></trkpt><trkpt lat="45.9732403" lon="12.6780813"><ele>31.0</ele><time>2026-04-06T17:11:45.052Z</time></trkpt><trkpt lat="45.9733025" lon="12.6780054"><ele>31.333333333333336</ele><time>2026-04-06T17:11:46.053Z</time></trkpt><trkpt lat="45.9733632" lon="12.6779347"><ele>31.666666666666668</ele><time>2026-04-06T17:11:47.054Z</time></trkpt><trkpt lat="45.9734307" lon="12.6778673"><ele>32.0</ele><time>2026-04-06T17:11:48.052Z</time></trkpt><trkpt lat="45.9734896" lon="12.6778033"><ele>32.333333333333336</ele><time>2026-04-06T17:11:49.052Z</time></trkpt><trkpt lat="45.973543" lon="12.6777501"><ele>32.666666666666664</ele><time>2026-04-06T17:11:50.053Z</time></trkpt><trkpt lat="45.9736373" lon="12.6776427"><ele>33.0</ele><time>2026-04-06T17:11:52.053Z</time></trkpt><trkpt lat="45.9737123" lon="12.6775474"><ele>33.166666666666664</ele><time>2026-04-06T17:11:54.052Z</time></trkpt><trkpt lat="45.9737854" lon="12.6774701"><ele>33.333333333333336</ele><time>2026-04-06T17:11:56.053Z</time></trkpt><trkpt lat="45.973854" lon="12.677393"><ele>33.5</ele><time>2026-04-06T17:11:58.052Z</time></trkpt><trkpt lat="45.9739175" lon="12.6773314"><ele>33.66666666666667</ele><time>2026-04-06T17:12:00.053Z</time></trkpt><trkpt lat="45.9739798" lon="12.6772653"><ele>33.833333333333336</ele><time>2026-04-06T17:12:02.052Z</time></trkpt><trkpt lat="45.9740564" lon="12.6772494"><ele>34.0</ele><time>2026-04-06T17:12:04.053Z</time></trkpt><trkpt lat="45.9741336" lon="12.6772284"><ele>34.16666666666667</ele><time>2026-04-06T17:12:06.052Z</time></trkpt><trkpt lat="45.9742382" lon="12.6771302"><ele>34.333333333333336</ele><time>2026-04-06T17:12:08.052Z</time></trkpt><trkpt lat="45.9743043" lon="12.6770676"><ele>34.5</ele><time>2026-04-06T17:12:09.052Z</time></trkpt><trkpt lat="45.974376" lon="12.6770091"><ele>34.666666666666664</ele><time>2026-04-06T17:12:10.052Z</time></trkpt><trkpt lat="45.9744405" lon="12.6769438"><ele>34.83333333333333</ele><time>2026-04-06T17:12:11.053Z</time></trkpt><trkpt lat="45.9744995" lon="12.6768775"><ele>35.0</ele><time>2026-04-06T17:12:12.052Z</time></trkpt><trkpt lat="45.9745501" lon="12.6768074"><ele>35.0</ele><time>2026-04-06T17:12:13.052Z</time></trkpt><trkpt lat="45.9746027" lon="12.6767443"><ele>35.0</ele><time>2026-04-06T17:12:14.052Z</time></trkpt><trkpt lat="45.9746981" lon="12.6766365"><ele>35.0</ele><time>2026-04-06T17:12:16.054Z</time></trkpt><trkpt lat="45.9748019" lon="12.6765167"><ele>35.0</ele><time>2026-04-06T17:12:18.054Z</time></trkpt><trkpt lat="45.9748553" lon="12.6764581"><ele>35.0</ele><time>2026-04-06T17:12:19.052Z</time></trkpt><trkpt lat="45.9749094" lon="12.6764051"><ele>35.0</ele><time>2026-04-06T17:12:20.053Z</time></trkpt><trkpt lat="45.9749965" lon="12.6763215"><ele>35.0</ele><time>2026-04-06T17:12:22.053Z</time></trkpt><trkpt lat="45.9750654" lon="12.67623"><ele>35.0</ele><time>2026-04-06T17:12:24.053Z</time></trkpt><trkpt lat="45.9751273" lon="12.6761913"><ele>35.0</ele><time>2026-04-06T17:12:26.054Z</time></trkpt><trkpt lat="45.9752143" lon="12.6762272"><ele>35.0</ele><time>2026-04-06T17:12:36.054Z</time></trkpt><trkpt lat="45.9752762" lon="12.6763551"><ele>35.0</ele><time>2026-04-06T17:12:38.053Z</time></trkpt><trkpt lat="45.9753178" lon="12.6764437"><ele>35.0</ele><time>2026-04-06T17:12:39.053Z</time></trkpt><trkpt lat="45.9753548" lon="12.6765313"><ele>35.0</ele><time>2026-04-06T17:12:40.052Z</time></trkpt><trkpt lat="45.9753994" lon="12.6766303"><ele>35.0</ele><time>2026-04-06T17:12:41.052Z</time></trkpt><trkpt lat="45.9754446" lon="12.6767379"><ele>35.0</ele><time>2026-04-06T17:12:42.052Z</time></trkpt><trkpt lat="45.9754894" lon="12.6768431"><ele>35.0</ele><time>2026-04-06T17:12:43.053Z</time></trkpt><trkpt lat="45.9755381" lon="12.676961"><ele>35.25</ele><time>2026-04-06T17:12:44.053Z</time></trkpt><trkpt lat="45.9755872" lon="12.6770924"><ele>35.5</ele><time>2026-04-06T17:12:45.053Z</time></trkpt><trkpt lat="45.9756401" lon="12.6772336"><ele>35.75</ele><time>2026-04-06T17:12:46.054Z</time></trkpt><trkpt lat="45.975696" lon="12.6773833"><ele>36.0</ele><time>2026-04-06T17:12:47.053Z</time></trkpt><trkpt lat="45.9757568" lon="12.6775338"><ele>36.0</ele><time>2026-04-06T17:12:48.053Z</time></trkpt><trkpt lat="45.9758145" lon="12.6776748"><ele>36.0</ele><time>2026-04-06T17:12:49.052Z</time></trkpt><trkpt lat="45.9758771" lon="12.6778169"><ele>36.0</ele><time>2026-04-06T17:12:50.052Z</time></trkpt><trkpt lat="45.975936" lon="12.6779629"><ele>36.0</ele><time>2026-04-06T17:12:51.053Z</time></trkpt><trkpt lat="45.9759944" lon="12.6781077"><ele>36.0</ele><time>2026-04-06T17:12:52.053Z</time></trkpt><trkpt lat="45.9760539" lon="12.6782499"><ele>36.0</ele><time>2026-04-06T17:12:53.052Z</time></trkpt><trkpt lat="45.976114" lon="12.6783971"><ele>36.0</ele><time>2026-04-06T17:12:54.052Z</time></trkpt><trkpt lat="45.9761713" lon="12.678548"><ele>36.0</ele><time>2026-04-06T17:12:55.053Z</time></trkpt><trkpt lat="45.97623" lon="12.6786953"><ele>35.75</ele><time>2026-04-06T17:12:56.052Z</time></trkpt><trkpt lat="45.9762855" lon="12.678844"><ele>35.5</ele><time>2026-04-06T17:12:57.054Z</time></trkpt><trkpt lat="45.9763273" lon="12.6790047"><ele>35.25</ele><time>2026-04-06T17:12:58.053Z</time></trkpt><trkpt lat="45.9763527" lon="12.6791838"><ele>35.0</ele><time>2026-04-06T17:12:59.052Z</time></trkpt><trkpt lat="45.9763771" lon="12.6793646"><ele>35.4</ele><time>2026-04-06T17:13:00.053Z</time></trkpt><trkpt lat="45.9764054" lon="12.6795406"><ele>35.8</ele><time>2026-04-06T17:13:01.053Z</time></trkpt><trkpt lat="45.9764321" lon="12.6796927"><ele>36.2</ele><time>2026-04-06T17:13:02.054Z</time></trkpt><trkpt lat="45.9764519" lon="12.6798357"><ele>36.6</ele><time>2026-04-06T17:13:03.054Z</time></trkpt><trkpt lat="45.9764862" lon="12.6799618"><ele>37.0</ele><time>2026-04-06T17:13:04.052Z</time></trkpt><trkpt lat="45.9765348" lon="12.6800697"><ele>37.0</ele><time>2026-04-06T17:13:05.052Z</time></trkpt><trkpt lat="45.9765908" lon="12.6801612"><ele>37.0</ele><time>2026-04-06T17:13:06.053Z</time></trkpt><trkpt lat="45.9766501" lon="12.6802425"><ele>37.0</ele><time>2026-04-06T17:13:07.054Z</time></trkpt><trkpt lat="45.9767059" lon="12.6803203"><ele>37.0</ele><time>2026-04-06T17:13:08.053Z</time></trkpt><trkpt lat="45.9767526" lon="12.680391"><ele>37.0</ele><time>2026-04-06T17:13:09.052Z</time></trkpt><trkpt lat="45.9768177" lon="12.6804965"><ele>37.0</ele><time>2026-04-06T17:13:11.053Z</time></trkpt><trkpt lat="45.9768753" lon="12.680573"><ele>37.0</ele><time>2026-04-06T17:13:41.052Z</time></trkpt><trkpt lat="45.9769357" lon="12.6806903"><ele>37.0</ele><time>2026-04-06T17:13:43.053Z</time></trkpt><trkpt lat="45.9769742" lon="12.6807693"><ele>37.0</ele><time>2026-04-06T17:13:44.053Z</time></trkpt><trkpt lat="45.9770199" lon="12.6808632"><ele>37.0</ele><time>2026-04-06T17:13:45.053Z</time></trkpt><trkpt lat="45.9770649" lon="12.6809552"><ele>37.0</ele><time>2026-04-06T17:13:46.053Z</time></trkpt><trkpt lat="45.9771193" lon="12.6810584"><ele>37.0</ele><time>2026-04-06T17:13:47.054Z</time></trkpt><trkpt lat="45.9771799" lon="12.6811757"><ele>37.25</ele><time>2026-04-06T17:13:48.053Z</time></trkpt><trkpt lat="45.9772437" lon="12.6813001"><ele>37.5</ele><time>2026-04-06T17:13:49.053Z</time></trkpt><trkpt lat="45.9773062" lon="12.68143"><ele>37.75</ele><time>2026-04-06T17:13:50.053Z</time></trkpt><trkpt lat="45.9773716" lon="12.6815701"><ele>38.0</ele><time>2026-04-06T17:13:51.053Z</time></trkpt><trkpt lat="45.9774391" lon="12.6817216"><ele>38.0</ele><time>2026-04-06T17:13:52.052Z</time></trkpt><trkpt lat="45.9775075" lon="12.6818686"><ele>38.0</ele><time>2026-04-06T17:13:53.052Z</time></trkpt><trkpt lat="45.9775801" lon="12.6820209"><ele>38.0</ele><time>2026-04-06T17:13:54.052Z</time></trkpt><trkpt lat="45.9776564" lon="12.6821806"><ele>38.0</ele><time>2026-04-06T17:13:55.052Z</time></trkpt><trkpt lat="45.9777332" lon="12.6823544"><ele>38.25</ele><time>2026-04-06T17:13:56.053Z</time></trkpt><trkpt lat="45.9778039" lon="12.6825392"><ele>38.5</ele><time>2026-04-06T17:13:57.052Z</time></trkpt><trkpt lat="45.9778761" lon="12.682722"><ele>38.75</ele><time>2026-04-06T17:13:58.052Z</time></trkpt><trkpt lat="45.9779533" lon="12.6829119"><ele>39.0</ele><time>2026-04-06T17:13:59.053Z</time></trkpt><trkpt lat="45.9780355" lon="12.6831036"><ele>39.0</ele><time>2026-04-06T17:14:00.053Z</time></trkpt><trkpt lat="45.9781198" lon="12.6833004"><ele>39.0</ele><time>2026-04-06T17:14:01.052Z</time></trkpt><trkpt lat="45.9782036" lon="12.6834964"><ele>39.0</ele><time>2026-04-06T17:14:02.052Z</time></trkpt><trkpt lat="45.9782878" lon="12.683692"><ele>38.666666666666664</ele><time>2026-04-06T17:14:03.052Z</time></trkpt><trkpt lat="45.9783689" lon="12.6838923"><ele>38.33333333333333</ele><time>2026-04-06T17:14:04.052Z</time></trkpt><trkpt lat="45.9784523" lon="12.6840925"><ele>38.0</ele><time>2026-04-06T17:14:05.052Z</time></trkpt><trkpt lat="45.9785387" lon="12.684287"><ele>38.666666666666664</ele><time>2026-04-06T17:14:06.052Z</time></trkpt><trkpt lat="45.9786284" lon="12.6844784"><ele>39.333333333333336</ele><time>2026-04-06T17:14:07.053Z</time></trkpt><trkpt lat="45.9787206" lon="12.684667"><ele>40.0</ele><time>2026-04-06T17:14:08.054Z</time></trkpt><trkpt lat="45.9788122" lon="12.6848525"><ele>40.0</ele><time>2026-04-06T17:14:09.053Z</time></trkpt><trkpt lat="45.9789041" lon="12.6850401"><ele>40.0</ele><time>2026-04-06T17:14:10.052Z</time></trkpt><trkpt lat="45.9789974" lon="12.6852259"><ele>40.0</ele><time>2026-04-06T17:14:11.053Z</time></trkpt><trkpt lat="45.9790921" lon="12.6854078"><ele>39.66666666666667</ele><time>2026-04-06T17:14:12.053Z</time></trkpt><trkpt lat="45.979189" lon="12.6855866"><ele>39.333333333333336</ele><time>2026-04-06T17:14:13.053Z</time></trkpt><trkpt lat="45.9792847" lon="12.6857674"><ele>39.0</ele><time>2026-04-06T17:14:14.053Z</time></trkpt><trkpt lat="45.9793773" lon="12.6859522"><ele>39.0</ele><time>2026-04-06T17:14:15.052Z</time></trkpt><trkpt lat="45.979473" lon="12.6861333"><ele>39.0</ele><time>2026-04-06T17:14:16.052Z</time></trkpt><trkpt lat="45.9795725" lon="12.686307"><ele>39.0</ele><time>2026-04-06T17:14:17.053Z</time></trkpt><trkpt lat="45.9796757" lon="12.68648"><ele>39.0</ele><time>2026-04-06T17:14:18.054Z</time></trkpt><trkpt lat="45.9797817" lon="12.6866491"><ele>39.0</ele><time>2026-04-06T17:14:19.053Z</time></trkpt><trkpt lat="45.9798883" lon="12.6868169"><ele>39.0</ele><time>2026-04-06T17:14:20.052Z</time></trkpt><trkpt lat="45.9799891" lon="12.686992"><ele>39.0</ele><time>2026-04-06T17:14:21.052Z</time></trkpt><trkpt lat="45.9800855" lon="12.6871573"><ele>39.0</ele><time>2026-04-06T17:14:22.052Z</time></trkpt><trkpt lat="45.9801818" lon="12.6873135"><ele>39.0</ele><time>2026-04-06T17:14:23.052Z</time></trkpt><trkpt lat="45.9802791" lon="12.6874725"><ele>39.0</ele><time>2026-04-06T17:14:24.053Z</time></trkpt><trkpt lat="45.9803831" lon="12.6876329"><ele>39.25</ele><time>2026-04-06T17:14:25.053Z</time></trkpt><trkpt lat="45.9804941" lon="12.6877785"><ele>39.5</ele><time>2026-04-06T17:14:26.052Z</time></trkpt><trkpt lat="45.980612" lon="12.6879094"><ele>39.75</ele><time>2026-04-06T17:14:27.052Z</time></trkpt><trkpt lat="45.980736" lon="12.6880268"><ele>40.0</ele><time>2026-04-06T17:14:28.052Z</time></trkpt><trkpt lat="45.9808685" lon="12.6881251"><ele>40.0</ele><time>2026-04-06T17:14:29.053Z</time></trkpt><trkpt lat="45.9810037" lon="12.688205"><ele>40.0</ele><time>2026-04-06T17:14:30.053Z</time></trkpt><trkpt lat="45.9811387" lon="12.6882824"><ele>40.0</ele><time>2026-04-06T17:14:31.052Z</time></trkpt><trkpt lat="45.9812736" lon="12.6883668"><ele>40.0</ele><time>2026-04-06T17:14:32.052Z</time></trkpt><trkpt lat="45.9813989" lon="12.6884565"><ele>40.0</ele><time>2026-04-06T17:14:33.052Z</time></trkpt><trkpt lat="45.9815118" lon="12.6885521"><ele>40.0</ele><time>2026-04-06T17:14:34.053Z</time></trkpt><trkpt lat="45.9816154" lon="12.6886589"><ele>40.0</ele><time>2026-04-06T17:14:35.054Z</time></trkpt><trkpt lat="45.9817041" lon="12.688776"><ele>40.0</ele><time>2026-04-06T17:14:36.052Z</time></trkpt><trkpt lat="45.9817784" lon="12.6889062"><ele>40.5</ele><time>2026-04-06T17:14:37.052Z</time></trkpt><trkpt lat="45.9818427" lon="12.6890476"><ele>41.0</ele><time>2026-04-06T17:14:38.053Z</time></trkpt><trkpt lat="45.981894" lon="12.6892041"><ele>41.5</ele><time>2026-04-06T17:14:39.052Z</time></trkpt><trkpt lat="45.9819344" lon="12.6893743"><ele>42.0</ele><time>2026-04-06T17:14:40.052Z</time></trkpt><trkpt lat="45.9819695" lon="12.6895523"><ele>42.0</ele><time>2026-04-06T17:14:41.052Z</time></trkpt><trkpt lat="45.9820078" lon="12.6897321"><ele>42.0</ele><time>2026-04-06T17:14:42.053Z</time></trkpt><trkpt lat="45.9820563" lon="12.6899172"><ele>42.0</ele><time>2026-04-06T17:14:43.053Z</time></trkpt><trkpt lat="45.9821183" lon="12.6900916"><ele>42.0</ele><time>2026-04-06T17:14:44.052Z</time></trkpt><trkpt lat="45.982194" lon="12.690255"><ele>42.0</ele><time>2026-04-06T17:14:45.052Z</time></trkpt><trkpt lat="45.9822843" lon="12.6904063"><ele>42.0</ele><time>2026-04-06T17:14:46.053Z</time></trkpt><trkpt lat="45.9823839" lon="12.6905462"><ele>42.0</ele><time>2026-04-06T17:14:47.053Z</time></trkpt><trkpt lat="45.9824922" lon="12.690678"><ele>42.0</ele><time>2026-04-06T17:14:48.053Z</time></trkpt><trkpt lat="45.9826043" lon="12.6907961"><ele>42.25</ele><time>2026-04-06T17:14:49.053Z</time></trkpt><trkpt lat="45.9827152" lon="12.6909102"><ele>42.5</ele><time>2026-04-06T17:14:50.052Z</time></trkpt><trkpt lat="45.9828178" lon="12.6910451"><ele>42.75</ele><time>2026-04-06T17:14:51.053Z</time></trkpt><trkpt lat="45.9829071" lon="12.6911968"><ele>43.0</ele><time>2026-04-06T17:14:52.052Z</time></trkpt><trkpt lat="45.9829867" lon="12.6913578"><ele>43.0</ele><time>2026-04-06T17:14:53.054Z</time></trkpt><trkpt lat="45.9830659" lon="12.6915209"><ele>43.0</ele><time>2026-04-06T17:14:54.054Z</time></trkpt><trkpt lat="45.983146" lon="12.6916821"><ele>43.0</ele><time>2026-04-06T17:14:55.054Z</time></trkpt><trkpt lat="45.9832231" lon="12.6918408"><ele>43.0</ele><time>2026-04-06T17:14:56.052Z</time></trkpt><trkpt lat="45.9832899" lon="12.6919856"><ele>43.0</ele><time>2026-04-06T17:14:57.053Z</time></trkpt><trkpt lat="45.9833501" lon="12.6921181"><ele>43.0</ele><time>2026-04-06T17:14:58.053Z</time></trkpt><trkpt lat="45.9834039" lon="12.6922351"><ele>43.0</ele><time>2026-04-06T17:14:59.053Z</time></trkpt><trkpt lat="45.9834447" lon="12.6923296"><ele>43.0</ele><time>2026-04-06T17:15:00.054Z</time></trkpt><trkpt lat="45.9834846" lon="12.692409"><ele>43.0</ele><time>2026-04-06T17:15:01.053Z</time></trkpt><trkpt lat="45.9835384" lon="12.6924808"><ele>43.0</ele><time>2026-04-06T17:15:02.052Z</time></trkpt><trkpt lat="45.9836116" lon="12.6925465"><ele>43.0</ele><time>2026-04-06T17:15:03.053Z</time></trkpt><trkpt lat="45.9836981" lon="12.6926207"><ele>43.0</ele><time>2026-04-06T17:15:04.052Z</time></trkpt><trkpt lat="45.9837787" lon="12.6927078"><ele>43.0</ele><time>2026-04-06T17:15:05.053Z</time></trkpt><trkpt lat="45.9838584" lon="12.6928139"><ele>43.0</ele><time>2026-04-06T17:15:06.053Z</time></trkpt><trkpt lat="45.9839392" lon="12.6929341"><ele>43.0</ele><time>2026-04-06T17:15:07.053Z</time></trkpt><trkpt lat="45.9840247" lon="12.6930644"><ele>42.75</ele><time>2026-04-06T17:15:08.053Z</time></trkpt><trkpt lat="45.9841069" lon="12.6931904"><ele>42.5</ele><time>2026-04-06T17:15:09.054Z</time></trkpt><trkpt lat="45.9841895" lon="12.693319"><ele>42.25</ele><time>2026-04-06T17:15:10.053Z</time></trkpt><trkpt lat="45.9842755" lon="12.6934556"><ele>42.0</ele><time>2026-04-06T17:15:11.053Z</time></trkpt><trkpt lat="45.9843606" lon="12.693593"><ele>41.5</ele><time>2026-04-06T17:15:12.052Z</time></trkpt><trkpt lat="45.9844457" lon="12.6937328"><ele>41.0</ele><time>2026-04-06T17:15:13.053Z</time></trkpt><trkpt lat="45.984529" lon="12.6938719"><ele>40.5</ele><time>2026-04-06T17:15:14.053Z</time></trkpt><trkpt lat="45.984616" lon="12.6940181"><ele>40.0</ele><time>2026-04-06T17:15:15.052Z</time></trkpt><trkpt lat="45.9847026" lon="12.6941594"><ele>40.0</ele><time>2026-04-06T17:15:16.052Z</time></trkpt><trkpt lat="45.9847887" lon="12.6942973"><ele>40.0</ele><time>2026-04-06T17:15:17.053Z</time></trkpt><trkpt lat="45.9848691" lon="12.6944262"><ele>40.0</ele><time>2026-04-06T17:15:18.052Z</time></trkpt><trkpt lat="45.9849439" lon="12.6945442"><ele>40.0</ele><time>2026-04-06T17:15:19.052Z</time></trkpt><trkpt lat="45.9850263" lon="12.6946529"><ele>40.5</ele><time>2026-04-06T17:15:20.053Z</time></trkpt><trkpt lat="45.985118" lon="12.6947384"><ele>41.0</ele><time>2026-04-06T17:15:21.054Z</time></trkpt><trkpt lat="45.9852219" lon="12.6947975"><ele>41.5</ele><time>2026-04-06T17:15:22.053Z</time></trkpt><trkpt lat="45.9853356" lon="12.6948273"><ele>42.0</ele><time>2026-04-06T17:15:23.053Z</time></trkpt><trkpt lat="45.9854499" lon="12.6948278"><ele>42.0</ele><time>2026-04-06T17:15:24.053Z</time></trkpt><trkpt lat="45.9855638" lon="12.6948203"><ele>42.0</ele><time>2026-04-06T17:15:25.052Z</time></trkpt><trkpt lat="45.9856648" lon="12.6948138"><ele>42.0</ele><time>2026-04-06T17:15:26.053Z</time></trkpt><trkpt lat="45.9857551" lon="12.6948198"><ele>42.0</ele><time>2026-04-06T17:15:27.052Z</time></trkpt><trkpt lat="45.9858284" lon="12.6948484"><ele>42.0</ele><time>2026-04-06T17:15:28.053Z</time></trkpt><trkpt lat="45.9858822" lon="12.6949131"><ele>42.0</ele><time>2026-04-06T17:15:29.053Z</time></trkpt><trkpt lat="45.9859366" lon="12.6950079"><ele>42.0</ele><time>2026-04-06T17:15:30.053Z</time></trkpt><trkpt lat="45.985997" lon="12.6951202"><ele>42.0</ele><time>2026-04-06T17:15:31.052Z</time></trkpt><trkpt lat="45.9860584" lon="12.6952344"><ele>42.0</ele><time>2026-04-06T17:15:32.053Z</time></trkpt><trkpt lat="45.9861219" lon="12.6953498"><ele>42.0</ele><time>2026-04-06T17:15:33.053Z</time></trkpt><trkpt lat="45.9861839" lon="12.6954635"><ele>42.2</ele><time>2026-04-06T17:15:34.052Z</time></trkpt><trkpt lat="45.9862433" lon="12.6955714"><ele>42.400000000000006</ele><time>2026-04-06T17:15:35.053Z</time></trkpt><trkpt lat="45.9862961" lon="12.6956648"><ele>42.599999999999994</ele><time>2026-04-06T17:15:36.053Z</time></trkpt><trkpt lat="45.9863368" lon="12.6957405"><ele>42.8</ele><time>2026-04-06T17:15:37.052Z</time></trkpt><trkpt lat="45.9863915" lon="12.695869"><ele>43.0</ele><time>2026-04-06T17:15:39.053Z</time></trkpt><trkpt lat="45.986485" lon="12.6959928"><ele>43.0</ele><time>2026-04-06T17:15:41.052Z</time></trkpt><trkpt lat="45.9865604" lon="12.6960309"><ele>43.0</ele><time>2026-04-06T17:15:42.053Z</time></trkpt><trkpt lat="45.9866504" lon="12.6960497"><ele>43.0</ele><time>2026-04-06T17:15:43.053Z</time></trkpt><trkpt lat="45.9867514" lon="12.6960652"><ele>43.0</ele><time>2026-04-06T17:15:44.053Z</time></trkpt><trkpt lat="45.9868549" lon="12.6960797"><ele>43.0</ele><time>2026-04-06T17:15:45.053Z</time></trkpt><trkpt lat="45.9869601" lon="12.6960929"><ele>43.2</ele><time>2026-04-06T17:15:46.052Z</time></trkpt><trkpt lat="45.9870688" lon="12.6961064"><ele>43.4</ele><time>2026-04-06T17:15:47.052Z</time></trkpt><trkpt lat="45.9871779" lon="12.6961201"><ele>43.6</ele><time>2026-04-06T17:15:48.053Z</time></trkpt><trkpt lat="45.9872772" lon="12.6961292"><ele>43.800000000000004</ele><time>2026-04-06T17:15:49.053Z</time></trkpt><trkpt lat="45.9873742" lon="12.6961358"><ele>44.0</ele><time>2026-04-06T17:15:50.053Z</time></trkpt><trkpt lat="45.9874741" lon="12.696151"><ele>44.2</ele><time>2026-04-06T17:15:51.053Z</time></trkpt><trkpt lat="45.9875712" lon="12.6961926"><ele>44.400000000000006</ele><time>2026-04-06T17:15:52.053Z</time></trkpt><trkpt lat="45.987659" lon="12.6962632"><ele>44.6</ele><time>2026-04-06T17:15:53.052Z</time></trkpt><trkpt lat="45.9877394" lon="12.6963558"><ele>44.8</ele><time>2026-04-06T17:15:54.054Z</time></trkpt><trkpt lat="45.9878177" lon="12.6964668"><ele>45.0</ele><time>2026-04-06T17:15:55.052Z</time></trkpt><trkpt lat="45.9878905" lon="12.6965905"><ele>45.0</ele><time>2026-04-06T17:15:56.052Z</time></trkpt><trkpt lat="45.9879577" lon="12.696729"><ele>45.0</ele><time>2026-04-06T17:15:57.052Z</time></trkpt><trkpt lat="45.9880164" lon="12.6968806"><ele>45.0</ele><time>2026-04-06T17:15:58.052Z</time></trkpt><trkpt lat="45.9880671" lon="12.6970435"><ele>45.0</ele><time>2026-04-06T17:15:59.054Z</time></trkpt><trkpt lat="45.9881138" lon="12.6972172"><ele>44.5</ele><time>2026-04-06T17:16:00.052Z</time></trkpt><trkpt lat="45.988157" lon="12.6973876"><ele>44.0</ele><time>2026-04-06T17:16:01.052Z</time></trkpt><trkpt lat="45.9881977" lon="12.6975671"><ele>43.5</ele><time>2026-04-06T17:16:02.053Z</time></trkpt><trkpt lat="45.9882376" lon="12.6977616"><ele>43.0</ele><time>2026-04-06T17:16:03.052Z</time></trkpt><trkpt lat="45.9882775" lon="12.6979561"><ele>43.0</ele><time>2026-04-06T17:16:04.052Z</time></trkpt><trkpt lat="45.9883195" lon="12.6981436"><ele>43.0</ele><time>2026-04-06T17:16:05.052Z</time></trkpt><trkpt lat="45.9883609" lon="12.6983244"><ele>43.0</ele><time>2026-04-06T17:16:06.054Z</time></trkpt><trkpt lat="45.9884061" lon="12.6985065"><ele>43.0</ele><time>2026-04-06T17:16:07.053Z</time></trkpt><trkpt lat="45.9884626" lon="12.6986755"><ele>43.0</ele><time>2026-04-06T17:16:08.053Z</time></trkpt><trkpt lat="45.9885362" lon="12.698837"><ele>43.0</ele><time>2026-04-06T17:16:09.053Z</time></trkpt><trkpt lat="45.9886235" lon="12.6989929"><ele>43.0</ele><time>2026-04-06T17:16:10.053Z</time></trkpt><trkpt lat="45.988722" lon="12.6991478"><ele>43.0</ele><time>2026-04-06T17:16:11.053Z</time></trkpt><trkpt lat="45.9888235" lon="12.6993036"><ele>42.66666666666667</ele><time>2026-04-06T17:16:12.053Z</time></trkpt><trkpt lat="45.9889245" lon="12.6994664"><ele>42.333333333333336</ele><time>2026-04-06T17:16:13.053Z</time></trkpt><trkpt lat="45.989027" lon="12.699632"><ele>42.0</ele><time>2026-04-06T17:16:14.053Z</time></trkpt><trkpt lat="45.9891283" lon="12.699797"><ele>42.25</ele><time>2026-04-06T17:16:15.053Z</time></trkpt><trkpt lat="45.9892261" lon="12.6999587"><ele>42.5</ele><time>2026-04-06T17:16:16.054Z</time></trkpt><trkpt lat="45.9893183" lon="12.7001095"><ele>42.75</ele><time>2026-04-06T17:16:17.052Z</time></trkpt><trkpt lat="45.9894056" lon="12.7002523"><ele>43.0</ele><time>2026-04-06T17:16:18.053Z</time></trkpt><trkpt lat="45.9894919" lon="12.7003942"><ele>43.0</ele><time>2026-04-06T17:16:19.053Z</time></trkpt><trkpt lat="45.9895728" lon="12.7005276"><ele>43.0</ele><time>2026-04-06T17:16:20.052Z</time></trkpt><trkpt lat="45.9896508" lon="12.7006569"><ele>43.0</ele><time>2026-04-06T17:16:21.052Z</time></trkpt><trkpt lat="45.989729" lon="12.7007877"><ele>43.0</ele><time>2026-04-06T17:16:22.053Z</time></trkpt><trkpt lat="45.9898077" lon="12.7009183"><ele>43.0</ele><time>2026-04-06T17:16:23.052Z</time></trkpt><trkpt lat="45.9898858" lon="12.7010456"><ele>43.0</ele><time>2026-04-06T17:16:24.053Z</time></trkpt><trkpt lat="45.989961" lon="12.7011661"><ele>43.0</ele><time>2026-04-06T17:16:25.052Z</time></trkpt><trkpt lat="45.9900346" lon="12.7012856"><ele>43.0</ele><time>2026-04-06T17:16:26.052Z</time></trkpt><trkpt lat="45.9901047" lon="12.7014041"><ele>43.0</ele><time>2026-04-06T17:16:27.052Z</time></trkpt><trkpt lat="45.9901688" lon="12.7015113"><ele>43.0</ele><time>2026-04-06T17:16:28.053Z</time></trkpt><trkpt lat="45.9902278" lon="12.7016073"><ele>43.0</ele><time>2026-04-06T17:16:29.053Z</time></trkpt><trkpt lat="45.9902761" lon="12.7016877"><ele>43.0</ele><time>2026-04-06T17:16:30.053Z</time></trkpt><trkpt lat="45.9903306" lon="12.7017909"><ele>43.0</ele><time>2026-04-06T17:16:32.054Z</time></trkpt><trkpt lat="45.9903934" lon="12.7018444"><ele>43.0</ele><time>2026-04-06T17:16:39.053Z</time></trkpt><trkpt lat="45.9905081" lon="12.701841"><ele>43.0</ele><time>2026-04-06T17:16:41.054Z</time></trkpt><trkpt lat="45.9905788" lon="12.7018192"><ele>43.0</ele><time>2026-04-06T17:16:42.052Z</time></trkpt><trkpt lat="45.9906488" lon="12.7017937"><ele>43.0</ele><time>2026-04-06T17:16:43.052Z</time></trkpt><trkpt lat="45.9907142" lon="12.7017695"><ele>43.0</ele><time>2026-04-06T17:16:44.052Z</time></trkpt><trkpt lat="45.990829" lon="12.701728"><ele>43.0</ele><time>2026-04-06T17:16:46.053Z</time></trkpt><trkpt lat="45.9909333" lon="12.7016922"><ele>43.0</ele><time>2026-04-06T17:16:48.053Z</time></trkpt><trkpt lat="45.9910535" lon="12.7017233"><ele>43.5</ele><time>2026-04-06T17:16:50.053Z</time></trkpt><trkpt lat="45.9911071" lon="12.7017871"><ele>44.0</ele><time>2026-04-06T17:16:51.054Z</time></trkpt><trkpt lat="45.9911518" lon="12.7018741"><ele>44.5</ele><time>2026-04-06T17:16:52.052Z</time></trkpt><trkpt lat="45.9911897" lon="12.7019642"><ele>45.0</ele><time>2026-04-06T17:16:53.053Z</time></trkpt><trkpt lat="45.9912311" lon="12.7020684"><ele>45.5</ele><time>2026-04-06T17:16:54.053Z</time></trkpt><trkpt lat="45.9912782" lon="12.7021854"><ele>46.0</ele><time>2026-04-06T17:16:55.054Z</time></trkpt><trkpt lat="45.9913286" lon="12.7023096"><ele>46.0</ele><time>2026-04-06T17:16:56.052Z</time></trkpt><trkpt lat="45.9913812" lon="12.7024381"><ele>46.0</ele><time>2026-04-06T17:16:57.053Z</time></trkpt><trkpt lat="45.991434" lon="12.702566"><ele>46.0</ele><time>2026-04-06T17:16:58.052Z</time></trkpt><trkpt lat="45.9914899" lon="12.7027048"><ele>46.0</ele><time>2026-04-06T17:16:59.052Z</time></trkpt><trkpt lat="45.991546" lon="12.702851"><ele>46.0</ele><time>2026-04-06T17:17:00.053Z</time></trkpt><trkpt lat="45.9916017" lon="12.7030049"><ele>46.0</ele><time>2026-04-06T17:17:01.053Z</time></trkpt><trkpt lat="45.9916603" lon="12.7031628"><ele>46.0</ele><time>2026-04-06T17:17:02.052Z</time></trkpt><trkpt lat="45.9917251" lon="12.7033222"><ele>46.0</ele><time>2026-04-06T17:17:03.052Z</time></trkpt><trkpt lat="45.9917993" lon="12.7034814"><ele>46.0</ele><time>2026-04-06T17:17:04.053Z</time></trkpt><trkpt lat="45.9918771" lon="12.703633"><ele>45.75</ele><time>2026-04-06T17:17:05.052Z</time></trkpt><trkpt lat="45.9919545" lon="12.7037737"><ele>45.5</ele><time>2026-04-06T17:17:06.053Z</time></trkpt><trkpt lat="45.992034" lon="12.7039077"><ele>45.25</ele><time>2026-04-06T17:17:07.053Z</time></trkpt><trkpt lat="45.9921098" lon="12.7040256"><ele>45.0</ele><time>2026-04-06T17:17:08.052Z</time></trkpt><trkpt lat="45.9921871" lon="12.7041346"><ele>45.0</ele><time>2026-04-06T17:17:09.052Z</time></trkpt><trkpt lat="45.9922673" lon="12.7042459"><ele>45.0</ele><time>2026-04-06T17:17:10.052Z</time></trkpt><trkpt lat="45.9923541" lon="12.7043695"><ele>45.0</ele><time>2026-04-06T17:17:11.052Z</time></trkpt><trkpt lat="45.992449" lon="12.7044938"><ele>45.0</ele><time>2026-04-06T17:17:12.053Z</time></trkpt><trkpt lat="45.9925425" lon="12.7046042"><ele>45.2</ele><time>2026-04-06T17:17:13.052Z</time></trkpt><trkpt lat="45.9926309" lon="12.7047005"><ele>45.4</ele><time>2026-04-06T17:17:14.052Z</time></trkpt><trkpt lat="45.9927153" lon="12.704789"><ele>45.599999999999994</ele><time>2026-04-06T17:17:15.052Z</time></trkpt><trkpt lat="45.9927972" lon="12.7048752"><ele>45.8</ele><time>2026-04-06T17:17:16.052Z</time></trkpt><trkpt lat="45.99288" lon="12.704962"><ele>46.0</ele><time>2026-04-06T17:17:17.054Z</time></trkpt><trkpt lat="45.9929658" lon="12.7050514"><ele>46.0</ele><time>2026-04-06T17:17:18.053Z</time></trkpt><trkpt lat="45.9930563" lon="12.7051446"><ele>46.0</ele><time>2026-04-06T17:17:19.052Z</time></trkpt><trkpt lat="45.9931508" lon="12.7052446"><ele>46.0</ele><time>2026-04-06T17:17:20.052Z</time></trkpt><trkpt lat="45.993244" lon="12.7053475"><ele>46.0</ele><time>2026-04-06T17:17:21.052Z</time></trkpt><trkpt lat="45.9933403" lon="12.7054567"><ele>46.25</ele><time>2026-04-06T17:17:22.053Z</time></trkpt><trkpt lat="45.9934363" lon="12.705564"><ele>46.5</ele><time>2026-04-06T17:17:23.053Z</time></trkpt><trkpt lat="45.9935285" lon="12.7056644"><ele>46.75</ele><time>2026-04-06T17:17:24.052Z</time></trkpt><trkpt lat="45.9936153" lon="12.7057633"><ele>47.0</ele><time>2026-04-06T17:17:25.052Z</time></trkpt><trkpt lat="45.9936879" lon="12.7058673"><ele>47.0</ele><time>2026-04-06T17:17:26.053Z</time></trkpt><trkpt lat="45.9937522" lon="12.7059908"><ele>47.0</ele><time>2026-04-06T17:17:27.052Z</time></trkpt><trkpt lat="45.993807" lon="12.7061328"><ele>47.0</ele><time>2026-04-06T17:17:28.052Z</time></trkpt><trkpt lat="45.993858" lon="12.7062809"><ele>47.0</ele><time>2026-04-06T17:17:29.054Z</time></trkpt><trkpt lat="45.9939105" lon="12.7064379"><ele>47.0</ele><time>2026-04-06T17:17:30.053Z</time></trkpt><trkpt lat="45.993964" lon="12.7066009"><ele>47.0</ele><time>2026-04-06T17:17:31.053Z</time></trkpt><trkpt lat="45.9940189" lon="12.7067689"><ele>47.0</ele><time>2026-04-06T17:17:32.053Z</time></trkpt><trkpt lat="45.9940747" lon="12.706938"><ele>47.0</ele><time>2026-04-06T17:17:33.052Z</time></trkpt><trkpt lat="45.9941312" lon="12.70711"><ele>47.25</ele><time>2026-04-06T17:17:34.053Z</time></trkpt><trkpt lat="45.9941851" lon="12.7072777"><ele>47.5</ele><time>2026-04-06T17:17:35.054Z</time></trkpt><trkpt lat="45.9942341" lon="12.7074425"><ele>47.75</ele><time>2026-04-06T17:17:36.053Z</time></trkpt><trkpt lat="45.9942744" lon="12.7075957"><ele>48.0</ele><time>2026-04-06T17:17:37.052Z</time></trkpt><trkpt lat="45.9943103" lon="12.7077469"><ele>48.0</ele><time>2026-04-06T17:17:38.052Z</time></trkpt><trkpt lat="45.9943434" lon="12.7078872"><ele>48.0</ele><time>2026-04-06T17:17:39.052Z</time></trkpt><trkpt lat="45.9943753" lon="12.7080123"><ele>48.0</ele><time>2026-04-06T17:17:40.052Z</time></trkpt><trkpt lat="45.9944038" lon="12.7081219"><ele>48.0</ele><time>2026-04-06T17:17:41.052Z</time></trkpt><trkpt lat="45.9944262" lon="12.7082155"><ele>48.0</ele><time>2026-04-06T17:17:42.052Z</time></trkpt><trkpt lat="45.9944471" lon="12.7083463"><ele>48.0</ele><time>2026-04-06T17:17:44.052Z</time></trkpt><trkpt lat="45.9944636" lon="12.7085116"><ele>48.2</ele><time>2026-04-06T17:17:47.053Z</time></trkpt><trkpt lat="45.994491" lon="12.7086741"><ele>48.4</ele><time>2026-04-06T17:17:49.053Z</time></trkpt><trkpt lat="45.9945237" lon="12.7088283"><ele>48.6</ele><time>2026-04-06T17:17:51.054Z</time></trkpt><trkpt lat="45.994546" lon="12.7089319"><ele>48.800000000000004</ele><time>2026-04-06T17:17:52.053Z</time></trkpt><trkpt lat="45.9945743" lon="12.7090479"><ele>49.0</ele><time>2026-04-06T17:17:53.054Z</time></trkpt><trkpt lat="45.9946051" lon="12.7091688"><ele>49.0</ele><time>2026-04-06T17:17:54.053Z</time></trkpt><trkpt lat="45.994641" lon="12.7092981"><ele>49.0</ele><time>2026-04-06T17:17:55.054Z</time></trkpt><trkpt lat="45.9946809" lon="12.7094401"><ele>49.0</ele><time>2026-04-06T17:17:56.053Z</time></trkpt><trkpt lat="45.994718" lon="12.7095794"><ele>49.0</ele><time>2026-04-06T17:17:57.053Z</time></trkpt><trkpt lat="45.9947534" lon="12.709724"><ele>49.0</ele><time>2026-04-06T17:17:58.053Z</time></trkpt><trkpt lat="45.9947885" lon="12.7098778"><ele>48.6</ele><time>2026-04-06T17:17:59.052Z</time></trkpt><trkpt lat="45.994822" lon="12.7100425"><ele>48.2</ele><time>2026-04-06T17:18:00.051Z</time></trkpt><trkpt lat="45.994852" lon="12.7102019"><ele>47.800000000000004</ele><time>2026-04-06T17:18:01.051Z</time></trkpt><trkpt lat="45.9948832" lon="12.7103426"><ele>47.400000000000006</ele><time>2026-04-06T17:18:02.052Z</time></trkpt><trkpt lat="45.9949144" lon="12.7104695"><ele>47.0</ele><time>2026-04-06T17:18:03.051Z</time></trkpt><trkpt lat="45.9949379" lon="12.7105744"><ele>47.0</ele><time>2026-04-06T17:18:04.051Z</time></trkpt><trkpt lat="45.9949359" lon="12.7107373"><ele>47.0</ele><time>2026-04-06T17:18:06.052Z</time></trkpt><trkpt lat="45.9949226" lon="12.7108796"><ele>47.0</ele><time>2026-04-06T17:18:08.053Z</time></trkpt><trkpt lat="45.9949987" lon="12.7110094"><ele>47.0</ele><time>2026-04-06T17:18:10.051Z</time></trkpt><trkpt lat="45.9950634" lon="12.7110761"><ele>47.0</ele><time>2026-04-06T17:18:11.052Z</time></trkpt><trkpt lat="45.9951259" lon="12.7111478"><ele>47.6</ele><time>2026-04-06T17:18:12.051Z</time></trkpt><trkpt lat="45.9951942" lon="12.7112315"><ele>48.2</ele><time>2026-04-06T17:18:13.052Z</time></trkpt><trkpt lat="45.9952679" lon="12.7113205"><ele>48.8</ele><time>2026-04-06T17:18:14.051Z</time></trkpt><trkpt lat="45.9953467" lon="12.7114132"><ele>49.4</ele><time>2026-04-06T17:18:15.052Z</time></trkpt><trkpt lat="45.9954337" lon="12.7115089"><ele>50.0</ele><time>2026-04-06T17:18:16.051Z</time></trkpt><trkpt lat="45.9955235" lon="12.7116037"><ele>50.0</ele><time>2026-04-06T17:18:17.052Z</time></trkpt><trkpt lat="45.9956121" lon="12.7116944"><ele>50.0</ele><time>2026-04-06T17:18:18.051Z</time></trkpt><trkpt lat="45.9957052" lon="12.711789"><ele>50.0</ele><time>2026-04-06T17:18:19.051Z</time></trkpt><trkpt lat="45.9958016" lon="12.711886"><ele>50.0</ele><time>2026-04-06T17:18:20.052Z</time></trkpt><trkpt lat="45.9958992" lon="12.7119829"><ele>50.5</ele><time>2026-04-06T17:18:21.051Z</time></trkpt><trkpt lat="45.9960025" lon="12.7120829"><ele>51.0</ele><time>2026-04-06T17:18:22.052Z</time></trkpt><trkpt lat="45.9961123" lon="12.7121838"><ele>51.5</ele><time>2026-04-06T17:18:23.052Z</time></trkpt><trkpt lat="45.9962229" lon="12.712285"><ele>52.0</ele><time>2026-04-06T17:18:24.052Z</time></trkpt><trkpt lat="45.9963303" lon="12.7123828"><ele>52.0</ele><time>2026-04-06T17:18:25.051Z</time></trkpt><trkpt lat="45.9964302" lon="12.712472"><ele>52.0</ele><time>2026-04-06T17:18:26.052Z</time></trkpt><trkpt lat="45.9965235" lon="12.7125569"><ele>52.0</ele><time>2026-04-06T17:18:27.052Z</time></trkpt><trkpt lat="45.9966062" lon="12.712631"><ele>52.0</ele><time>2026-04-06T17:18:28.053Z</time></trkpt><trkpt lat="45.9966806" lon="12.7126912"><ele>52.0</ele><time>2026-04-06T17:18:29.052Z</time></trkpt><trkpt lat="45.9967432" lon="12.7127455"><ele>51.666666666666664</ele><time>2026-04-06T17:18:30.052Z</time></trkpt><trkpt lat="45.9968083" lon="12.7128703"><ele>51.33333333333333</ele><time>2026-04-06T17:18:32.051Z</time></trkpt><trkpt lat="45.9967588" lon="12.7129896"><ele>51.0</ele><time>2026-04-06T17:18:34.052Z</time></trkpt><trkpt lat="45.9966968" lon="12.7130435"><ele>50.66666666666667</ele><time>2026-04-06T17:18:35.051Z</time></trkpt><trkpt lat="45.9966224" lon="12.7131022"><ele>50.333333333333336</ele><time>2026-04-06T17:18:36.052Z</time></trkpt><trkpt lat="45.9965459" lon="12.7131609"><ele>50.0</ele><time>2026-04-06T17:18:37.052Z</time></trkpt><trkpt lat="45.9964623" lon="12.7132259"><ele>50.0</ele><time>2026-04-06T17:18:38.052Z</time></trkpt><trkpt lat="45.9963692" lon="12.7132988"><ele>50.0</ele><time>2026-04-06T17:18:39.051Z</time></trkpt><trkpt lat="45.9962716" lon="12.7133738"><ele>50.0</ele><time>2026-04-06T17:18:40.051Z</time></trkpt><trkpt lat="45.9961752" lon="12.7134483"><ele>50.0</ele><time>2026-04-06T17:18:41.053Z</time></trkpt><trkpt lat="45.9960781" lon="12.7135239"><ele>50.0</ele><time>2026-04-06T17:18:42.051Z</time></trkpt><trkpt lat="45.9959752" lon="12.7136055"><ele>50.0</ele><time>2026-04-06T17:18:43.053Z</time></trkpt><trkpt lat="45.9958712" lon="12.713687"><ele>50.0</ele><time>2026-04-06T17:18:44.053Z</time></trkpt><trkpt lat="45.9957651" lon="12.7137696"><ele>50.0</ele><time>2026-04-06T17:18:45.051Z</time></trkpt><trkpt lat="45.9956559" lon="12.7138535"><ele>50.0</ele><time>2026-04-06T17:18:46.051Z</time></trkpt><trkpt lat="45.9955463" lon="12.7139382"><ele>50.0</ele><time>2026-04-06T17:18:47.052Z</time></trkpt><trkpt lat="45.9954332" lon="12.7140265"><ele>50.0</ele><time>2026-04-06T17:18:48.051Z</time></trkpt><trkpt lat="45.995322" lon="12.7141128"><ele>50.0</ele><time>2026-04-06T17:18:49.051Z</time></trkpt><trkpt lat="45.995207" lon="12.7142"><ele>50.0</ele><time>2026-04-06T17:18:50.052Z</time></trkpt><trkpt lat="45.9950889" lon="12.71429"><ele>50.0</ele><time>2026-04-06T17:18:51.051Z</time></trkpt><trkpt lat="45.9949732" lon="12.7143792"><ele>50.0</ele><time>2026-04-06T17:18:52.051Z</time></trkpt><trkpt lat="45.9948573" lon="12.7144707"><ele>50.0</ele><time>2026-04-06T17:18:53.051Z</time></trkpt><trkpt lat="45.994744" lon="12.7145616"><ele>50.0</ele><time>2026-04-06T17:18:54.051Z</time></trkpt><trkpt lat="45.9946272" lon="12.7146557"><ele>49.75</ele><time>2026-04-06T17:18:55.051Z</time></trkpt><trkpt lat="45.9945109" lon="12.7147477"><ele>49.5</ele><time>2026-04-06T17:18:56.051Z</time></trkpt><trkpt lat="45.9943988" lon="12.7148341"><ele>49.25</ele><time>2026-04-06T17:18:57.051Z</time></trkpt><trkpt lat="45.9942928" lon="12.7149131"><ele>49.0</ele><time>2026-04-06T17:18:58.052Z</time></trkpt><trkpt lat="45.9941838" lon="12.7149953"><ele>48.75</ele><time>2026-04-06T17:18:59.051Z</time></trkpt><trkpt lat="45.9940763" lon="12.7150754"><ele>48.5</ele><time>2026-04-06T17:19:00.052Z</time></trkpt><trkpt lat="45.9939647" lon="12.7151559"><ele>48.25</ele><time>2026-04-06T17:19:01.052Z</time></trkpt><trkpt lat="45.9938496" lon="12.7152378"><ele>48.0</ele><time>2026-04-06T17:19:02.052Z</time></trkpt><trkpt lat="45.993728" lon="12.7153183"><ele>47.25</ele><time>2026-04-06T17:19:03.051Z</time></trkpt><trkpt lat="45.9935999" lon="12.7153987"><ele>46.5</ele><time>2026-04-06T17:19:04.051Z</time></trkpt><trkpt lat="45.9934713" lon="12.7154752"><ele>45.75</ele><time>2026-04-06T17:19:05.051Z</time></trkpt><trkpt lat="45.993339" lon="12.7155517"><ele>45.0</ele><time>2026-04-06T17:19:06.051Z</time></trkpt><trkpt lat="45.9932074" lon="12.7156259"><ele>45.0</ele><time>2026-04-06T17:19:07.052Z</time></trkpt><trkpt lat="45.9930848" lon="12.7156915"><ele>45.0</ele><time>2026-04-06T17:19:08.052Z</time></trkpt><trkpt lat="45.9929714" lon="12.7157521"><ele>45.0</ele><time>2026-04-06T17:19:09.051Z</time></trkpt><trkpt lat="45.9928576" lon="12.7158148"><ele>45.0</ele><time>2026-04-06T17:19:10.051Z</time></trkpt><trkpt lat="45.9927433" lon="12.7158772"><ele>45.0</ele><time>2026-04-06T17:19:11.052Z</time></trkpt><trkpt lat="45.9926266" lon="12.7159389"><ele>45.0</ele><time>2026-04-06T17:19:12.052Z</time></trkpt><trkpt lat="45.9925161" lon="12.715996"><ele>45.0</ele><time>2026-04-06T17:19:13.051Z</time></trkpt><trkpt lat="45.9924165" lon="12.7160459"><ele>45.0</ele><time>2026-04-06T17:19:14.051Z</time></trkpt><trkpt lat="45.9923264" lon="12.7160908"><ele>45.0</ele><time>2026-04-06T17:19:15.051Z</time></trkpt><trkpt lat="45.9922507" lon="12.7161274"><ele>44.8</ele><time>2026-04-06T17:19:16.052Z</time></trkpt><trkpt lat="45.9921535" lon="12.716183"><ele>44.6</ele><time>2026-04-06T17:19:18.051Z</time></trkpt><trkpt lat="45.9921073" lon="12.7162734"><ele>44.400000000000006</ele><time>2026-04-06T17:19:30.051Z</time></trkpt><trkpt lat="45.9921154" lon="12.7164111"><ele>44.2</ele><time>2026-04-06T17:19:32.053Z</time></trkpt><trkpt lat="45.9921663" lon="12.7165885"><ele>44.0</ele><time>2026-04-06T17:19:34.051Z</time></trkpt><trkpt lat="45.9921951" lon="12.716691"><ele>44.0</ele><time>2026-04-06T17:19:35.051Z</time></trkpt><trkpt lat="45.992226" lon="12.7168009"><ele>44.0</ele><time>2026-04-06T17:19:36.051Z</time></trkpt><trkpt lat="45.99226" lon="12.7169207"><ele>44.0</ele><time>2026-04-06T17:19:37.052Z</time></trkpt><trkpt lat="45.9922957" lon="12.7170481"><ele>44.0</ele><time>2026-04-06T17:19:38.051Z</time></trkpt><trkpt lat="45.9923335" lon="12.7171845"><ele>44.0</ele><time>2026-04-06T17:19:39.052Z</time></trkpt><trkpt lat="45.9923721" lon="12.717321"><ele>44.0</ele><time>2026-04-06T17:19:40.052Z</time></trkpt><trkpt lat="45.9924112" lon="12.7174585"><ele>44.0</ele><time>2026-04-06T17:19:41.052Z</time></trkpt><trkpt lat="45.9924513" lon="12.7176044"><ele>44.0</ele><time>2026-04-06T17:19:42.051Z</time></trkpt><trkpt lat="45.9924924" lon="12.7177543"><ele>44.0</ele><time>2026-04-06T17:19:43.051Z</time></trkpt><trkpt lat="45.9925365" lon="12.7179094"><ele>44.0</ele><time>2026-04-06T17:19:44.052Z</time></trkpt><trkpt lat="45.9925805" lon="12.7180659"><ele>44.25</ele><time>2026-04-06T17:19:45.051Z</time></trkpt><trkpt lat="45.9926235" lon="12.7182232"><ele>44.5</ele><time>2026-04-06T17:19:46.052Z</time></trkpt><trkpt lat="45.9926701" lon="12.718388"><ele>44.75</ele><time>2026-04-06T17:19:47.051Z</time></trkpt><trkpt lat="45.9927171" lon="12.7185528"><ele>45.0</ele><time>2026-04-06T17:19:48.052Z</time></trkpt><trkpt lat="45.9927635" lon="12.71872"><ele>45.0</ele><time>2026-04-06T17:19:49.051Z</time></trkpt><trkpt lat="45.9928089" lon="12.7188871"><ele>45.0</ele><time>2026-04-06T17:19:50.053Z</time></trkpt><trkpt lat="45.9928533" lon="12.7190547"><ele>45.0</ele><time>2026-04-06T17:19:51.052Z</time></trkpt><trkpt lat="45.9929007" lon="12.7192285"><ele>45.0</ele><time>2026-04-06T17:19:52.052Z</time></trkpt><trkpt lat="45.9929508" lon="12.7194046"><ele>44.75</ele><time>2026-04-06T17:19:53.051Z</time></trkpt><trkpt lat="45.9930027" lon="12.7195836"><ele>44.5</ele><time>2026-04-06T17:19:54.053Z</time></trkpt><trkpt lat="45.9930565" lon="12.719773"><ele>44.25</ele><time>2026-04-06T17:19:55.051Z</time></trkpt><trkpt lat="45.9931109" lon="12.7199681"><ele>44.0</ele><time>2026-04-06T17:19:56.052Z</time></trkpt><trkpt lat="45.9931644" lon="12.7201617"><ele>44.0</ele><time>2026-04-06T17:19:57.052Z</time></trkpt><trkpt lat="45.9932198" lon="12.7203607"><ele>44.0</ele><time>2026-04-06T17:19:58.051Z</time></trkpt><trkpt lat="45.9932761" lon="12.7205629"><ele>44.0</ele><time>2026-04-06T17:19:59.052Z</time></trkpt><trkpt lat="45.9933319" lon="12.7207675"><ele>44.0</ele><time>2026-04-06T17:20:00.052Z</time></trkpt><trkpt lat="45.9933843" lon="12.720957"><ele>44.0</ele><time>2026-04-06T17:20:01.051Z</time></trkpt><trkpt lat="45.9934338" lon="12.7211345"><ele>44.0</ele><time>2026-04-06T17:20:02.052Z</time></trkpt><trkpt lat="45.993485" lon="12.721316"><ele>44.0</ele><time>2026-04-06T17:20:03.053Z</time></trkpt><trkpt lat="45.9935353" lon="12.7215017"><ele>44.0</ele><time>2026-04-06T17:20:04.051Z</time></trkpt><trkpt lat="45.9935836" lon="12.7216834"><ele>44.0</ele><time>2026-04-06T17:20:05.051Z</time></trkpt><trkpt lat="45.9936346" lon="12.72187"><ele>44.0</ele><time>2026-04-06T17:20:06.052Z</time></trkpt><trkpt lat="45.9936872" lon="12.7220617"><ele>44.0</ele><time>2026-04-06T17:20:07.051Z</time></trkpt><trkpt lat="45.9937379" lon="12.7222537"><ele>44.0</ele><time>2026-04-06T17:20:08.051Z</time></trkpt><trkpt lat="45.993787" lon="12.722449"><ele>44.0</ele><time>2026-04-06T17:20:09.053Z</time></trkpt><trkpt lat="45.9938326" lon="12.7226448"><ele>44.0</ele><time>2026-04-06T17:20:10.051Z</time></trkpt><trkpt lat="45.9938769" lon="12.7228508"><ele>44.0</ele><time>2026-04-06T17:20:11.052Z</time></trkpt><trkpt lat="45.9939178" lon="12.7230587"><ele>43.75</ele><time>2026-04-06T17:20:12.052Z</time></trkpt><trkpt lat="45.9939557" lon="12.7232565"><ele>43.5</ele><time>2026-04-06T17:20:13.052Z</time></trkpt><trkpt lat="45.9939944" lon="12.7234464"><ele>43.25</ele><time>2026-04-06T17:20:14.052Z</time></trkpt><trkpt lat="45.9940364" lon="12.7236313"><ele>43.0</ele><time>2026-04-06T17:20:15.051Z</time></trkpt><trkpt lat="45.9940818" lon="12.7238125"><ele>42.75</ele><time>2026-04-06T17:20:16.052Z</time></trkpt><trkpt lat="45.9941281" lon="12.7239802"><ele>42.5</ele><time>2026-04-06T17:20:17.051Z</time></trkpt><trkpt lat="45.9941714" lon="12.7241387"><ele>42.25</ele><time>2026-04-06T17:20:18.051Z</time></trkpt><trkpt lat="45.9942056" lon="12.7242947"><ele>42.0</ele><time>2026-04-06T17:20:19.052Z</time></trkpt><trkpt lat="45.9942303" lon="12.7244589"><ele>41.75</ele><time>2026-04-06T17:20:20.051Z</time></trkpt><trkpt lat="45.994249" lon="12.7246241"><ele>41.5</ele><time>2026-04-06T17:20:21.052Z</time></trkpt><trkpt lat="45.994267" lon="12.724798"><ele>41.25</ele><time>2026-04-06T17:20:22.051Z</time></trkpt><trkpt lat="45.9942872" lon="12.7249791"><ele>41.0</ele><time>2026-04-06T17:20:23.052Z</time></trkpt><trkpt lat="45.9943118" lon="12.7251612"><ele>42.0</ele><time>2026-04-06T17:20:24.051Z</time></trkpt><trkpt lat="45.9943396" lon="12.7253483"><ele>43.0</ele><time>2026-04-06T17:20:25.051Z</time></trkpt><trkpt lat="45.9943685" lon="12.7255384"><ele>44.0</ele><time>2026-04-06T17:20:26.051Z</time></trkpt><trkpt lat="45.9943986" lon="12.7257382"><ele>45.0</ele><time>2026-04-06T17:20:27.052Z</time></trkpt><trkpt lat="45.9944261" lon="12.7259279"><ele>44.75</ele><time>2026-04-06T17:20:28.051Z</time></trkpt><trkpt lat="45.99445" lon="12.7260995"><ele>44.5</ele><time>2026-04-06T17:20:29.051Z</time></trkpt><trkpt lat="45.994473" lon="12.7262651"><ele>44.25</ele><time>2026-04-06T17:20:30.052Z</time></trkpt><trkpt lat="45.9944941" lon="12.7264287"><ele>44.0</ele><time>2026-04-06T17:20:31.052Z</time></trkpt><trkpt lat="45.9945102" lon="12.726597"><ele>44.0</ele><time>2026-04-06T17:20:32.052Z</time></trkpt><trkpt lat="45.9945138" lon="12.7267588"><ele>44.0</ele><time>2026-04-06T17:20:33.051Z</time></trkpt><trkpt lat="45.9945021" lon="12.7269238"><ele>44.0</ele><time>2026-04-06T17:20:34.052Z</time></trkpt><trkpt lat="45.9944712" lon="12.7270892"><ele>44.0</ele><time>2026-04-06T17:20:35.051Z</time></trkpt><trkpt lat="45.9944274" lon="12.727251"><ele>43.75</ele><time>2026-04-06T17:20:36.051Z</time></trkpt><trkpt lat="45.9943823" lon="12.727416"><ele>43.5</ele><time>2026-04-06T17:20:37.052Z</time></trkpt><trkpt lat="45.9943427" lon="12.7275846"><ele>43.25</ele><time>2026-04-06T17:20:38.051Z</time></trkpt><trkpt lat="45.9943109" lon="12.72776"><ele>43.0</ele><time>2026-04-06T17:20:39.051Z</time></trkpt><trkpt lat="45.9942876" lon="12.7279386"><ele>43.0</ele><time>2026-04-06T17:20:40.051Z</time></trkpt><trkpt lat="45.9942741" lon="12.728101"><ele>43.0</ele><time>2026-04-06T17:20:41.052Z</time></trkpt><trkpt lat="45.9942686" lon="12.7282637"><ele>43.0</ele><time>2026-04-06T17:20:42.051Z</time></trkpt><trkpt lat="45.9942765" lon="12.7284278"><ele>43.0</ele><time>2026-04-06T17:20:43.051Z</time></trkpt><trkpt lat="45.9942981" lon="12.7285947"><ele>43.25</ele><time>2026-04-06T17:20:44.053Z</time></trkpt><trkpt lat="45.99433" lon="12.7287697"><ele>43.5</ele><time>2026-04-06T17:20:45.051Z</time></trkpt><trkpt lat="45.9943657" lon="12.7289514"><ele>43.75</ele><time>2026-04-06T17:20:46.052Z</time></trkpt><trkpt lat="45.994402" lon="12.7291379"><ele>44.0</ele><time>2026-04-06T17:20:47.052Z</time></trkpt><trkpt lat="45.9944374" lon="12.7293304"><ele>44.25</ele><time>2026-04-06T17:20:48.051Z</time></trkpt><trkpt lat="45.9944702" lon="12.7295224"><ele>44.5</ele><time>2026-04-06T17:20:49.052Z</time></trkpt><trkpt lat="45.9945004" lon="12.7297046"><ele>44.75</ele><time>2026-04-06T17:20:50.051Z</time></trkpt><trkpt lat="45.9945316" lon="12.7298879"><ele>45.0</ele><time>2026-04-06T17:20:51.052Z</time></trkpt><trkpt lat="45.9945634" lon="12.7300659"><ele>45.0</ele><time>2026-04-06T17:20:52.051Z</time></trkpt><trkpt lat="45.9945947" lon="12.7302353"><ele>45.0</ele><time>2026-04-06T17:20:53.051Z</time></trkpt><trkpt lat="45.9946238" lon="12.730391"><ele>45.0</ele><time>2026-04-06T17:20:54.051Z</time></trkpt><trkpt lat="45.9946528" lon="12.7305414"><ele>45.0</ele><time>2026-04-06T17:20:55.051Z</time></trkpt><trkpt lat="45.9946818" lon="12.7306863"><ele>45.0</ele><time>2026-04-06T17:20:56.053Z</time></trkpt><trkpt lat="45.9947064" lon="12.7308202"><ele>45.0</ele><time>2026-04-06T17:20:57.051Z</time></trkpt><trkpt lat="45.9947279" lon="12.7309456"><ele>45.0</ele><time>2026-04-06T17:20:58.051Z</time></trkpt><trkpt lat="45.9947485" lon="12.7310636"><ele>45.0</ele><time>2026-04-06T17:20:59.051Z</time></trkpt><trkpt lat="45.9947674" lon="12.7311748"><ele>45.0</ele><time>2026-04-06T17:21:00.051Z</time></trkpt><trkpt lat="45.994783" lon="12.7312793"><ele>45.0</ele><time>2026-04-06T17:21:01.051Z</time></trkpt><trkpt lat="45.994793" lon="12.7313711"><ele>45.0</ele><time>2026-04-06T17:21:02.052Z</time></trkpt><trkpt lat="45.9948027" lon="12.7315483"><ele>45.0</ele><time>2026-04-06T17:21:04.051Z</time></trkpt><trkpt lat="45.9948025" lon="12.7317291"><ele>45.0</ele><time>2026-04-06T17:21:06.052Z</time></trkpt><trkpt lat="45.9948023" lon="12.7318258"><ele>45.0</ele><time>2026-04-06T17:21:07.051Z</time></trkpt><trkpt lat="45.9948034" lon="12.7319241"><ele>45.0</ele><time>2026-04-06T17:21:08.052Z</time></trkpt><trkpt lat="45.9948034" lon="12.7320207"><ele>45.0</ele><time>2026-04-06T17:21:09.052Z</time></trkpt><trkpt lat="45.9948025" lon="12.7321211"><ele>45.0</ele><time>2026-04-06T17:21:10.052Z</time></trkpt><trkpt lat="45.9948006" lon="12.7322243"><ele>44.833333333333336</ele><time>2026-04-06T17:21:11.052Z</time></trkpt><trkpt lat="45.9947979" lon="12.7323319"><ele>44.666666666666664</ele><time>2026-04-06T17:21:12.053Z</time></trkpt><trkpt lat="45.9947976" lon="12.732438"><ele>44.5</ele><time>2026-04-06T17:21:13.052Z</time></trkpt><trkpt lat="45.9947967" lon="12.7325499"><ele>44.33333333333333</ele><time>2026-04-06T17:21:14.052Z</time></trkpt><trkpt lat="45.9947952" lon="12.7326644"><ele>44.166666666666664</ele><time>2026-04-06T17:21:15.053Z</time></trkpt><trkpt lat="45.9947947" lon="12.732783"><ele>44.0</ele><time>2026-04-06T17:21:16.051Z</time></trkpt><trkpt lat="45.9947939" lon="12.7329023"><ele>44.0</ele><time>2026-04-06T17:21:17.052Z</time></trkpt><trkpt lat="45.994792" lon="12.7330254"><ele>44.0</ele><time>2026-04-06T17:21:18.052Z</time></trkpt><trkpt lat="45.9947874" lon="12.7331537"><ele>44.0</ele><time>2026-04-06T17:21:19.051Z</time></trkpt><trkpt lat="45.9947793" lon="12.7332817"><ele>44.0</ele><time>2026-04-06T17:21:20.052Z</time></trkpt><trkpt lat="45.9947644" lon="12.7334103"><ele>44.0</ele><time>2026-04-06T17:21:21.052Z</time></trkpt><trkpt lat="45.9947443" lon="12.7335392"><ele>44.0</ele><time>2026-04-06T17:21:22.052Z</time></trkpt><trkpt lat="45.9947196" lon="12.7336667"><ele>43.800000000000004</ele><time>2026-04-06T17:21:23.051Z</time></trkpt><trkpt lat="45.9946882" lon="12.7337942"><ele>43.6</ele><time>2026-04-06T17:21:24.051Z</time></trkpt><trkpt lat="45.994652" lon="12.7339164"><ele>43.4</ele><time>2026-04-06T17:21:25.052Z</time></trkpt><trkpt lat="45.9946149" lon="12.7340385"><ele>43.2</ele><time>2026-04-06T17:21:26.051Z</time></trkpt><trkpt lat="45.9945742" lon="12.7341681"><ele>43.0</ele><time>2026-04-06T17:21:27.051Z</time></trkpt><trkpt lat="45.994531" lon="12.734298"><ele>42.599999999999994</ele><time>2026-04-06T17:21:28.052Z</time></trkpt><trkpt lat="45.994489" lon="12.7344312"><ele>42.199999999999996</ele><time>2026-04-06T17:21:29.051Z</time></trkpt><trkpt lat="45.994453" lon="12.7345616"><ele>41.8</ele><time>2026-04-06T17:21:30.051Z</time></trkpt><trkpt lat="45.9944207" lon="12.7346886"><ele>41.4</ele><time>2026-04-06T17:21:31.051Z</time></trkpt><trkpt lat="45.9943921" lon="12.7348198"><ele>41.0</ele><time>2026-04-06T17:21:32.051Z</time></trkpt><trkpt lat="45.9943672" lon="12.7349537"><ele>41.0</ele><time>2026-04-06T17:21:33.051Z</time></trkpt><trkpt lat="45.9943454" lon="12.7350907"><ele>41.0</ele><time>2026-04-06T17:21:34.051Z</time></trkpt><trkpt lat="45.9943248" lon="12.7352371"><ele>41.0</ele><time>2026-04-06T17:21:35.053Z</time></trkpt><trkpt lat="45.994305" lon="12.7353862"><ele>41.0</ele><time>2026-04-06T17:21:36.052Z</time></trkpt><trkpt lat="45.9942854" lon="12.735538"><ele>41.0</ele><time>2026-04-06T17:21:37.052Z</time></trkpt><trkpt lat="45.9942651" lon="12.7356922"><ele>41.0</ele><time>2026-04-06T17:21:38.052Z</time></trkpt><trkpt lat="45.9942426" lon="12.7358499"><ele>41.0</ele><time>2026-04-06T17:21:39.052Z</time></trkpt><trkpt lat="45.9942181" lon="12.7360162"><ele>41.0</ele><time>2026-04-06T17:21:40.052Z</time></trkpt><trkpt lat="45.994195" lon="12.7361728"><ele>41.0</ele><time>2026-04-06T17:21:41.051Z</time></trkpt><trkpt lat="45.9941717" lon="12.7363294"><ele>41.199999999999996</ele><time>2026-04-06T17:21:42.051Z</time></trkpt><trkpt lat="45.9941484" lon="12.7364885"><ele>41.4</ele><time>2026-04-06T17:21:43.052Z</time></trkpt><trkpt lat="45.99413" lon="12.736648"><ele>41.6</ele><time>2026-04-06T17:21:44.051Z</time></trkpt><trkpt lat="45.9941168" lon="12.7368099"><ele>41.8</ele><time>2026-04-06T17:21:45.052Z</time></trkpt><trkpt lat="45.9941163" lon="12.7369612"><ele>42.0</ele><time>2026-04-06T17:21:46.051Z</time></trkpt><trkpt lat="45.9941285" lon="12.7371139"><ele>42.0</ele><time>2026-04-06T17:21:47.051Z</time></trkpt><trkpt lat="45.9941484" lon="12.737257"><ele>42.0</ele><time>2026-04-06T17:21:48.052Z</time></trkpt><trkpt lat="45.9941755" lon="12.7373972"><ele>42.0</ele><time>2026-04-06T17:21:49.052Z</time></trkpt><trkpt lat="45.9942111" lon="12.7375357"><ele>42.0</ele><time>2026-04-06T17:21:50.052Z</time></trkpt><trkpt lat="45.9942531" lon="12.7376746"><ele>42.0</ele><time>2026-04-06T17:21:51.052Z</time></trkpt><trkpt lat="45.9942977" lon="12.737815"><ele>41.75</ele><time>2026-04-06T17:21:52.052Z</time></trkpt><trkpt lat="45.994341" lon="12.7379574"><ele>41.5</ele><time>2026-04-06T17:21:53.051Z</time></trkpt><trkpt lat="45.9943871" lon="12.7381068"><ele>41.25</ele><time>2026-04-06T17:21:54.051Z</time></trkpt><trkpt lat="45.9944336" lon="12.7382654"><ele>41.0</ele><time>2026-04-06T17:21:55.052Z</time></trkpt><trkpt lat="45.9944754" lon="12.7384276"><ele>41.0</ele><time>2026-04-06T17:21:56.052Z</time></trkpt><trkpt lat="45.9945091" lon="12.7385817"><ele>41.0</ele><time>2026-04-06T17:21:57.052Z</time></trkpt><trkpt lat="45.9945307" lon="12.7387256"><ele>41.0</ele><time>2026-04-06T17:21:58.052Z</time></trkpt><trkpt lat="45.9945409" lon="12.7388748"><ele>41.0</ele><time>2026-04-06T17:21:59.051Z</time></trkpt><trkpt lat="45.9945384" lon="12.7390365"><ele>41.0</ele><time>2026-04-06T17:22:00.053Z</time></trkpt><trkpt lat="45.9945272" lon="12.7392024"><ele>41.0</ele><time>2026-04-06T17:22:01.053Z</time></trkpt><trkpt lat="45.9945112" lon="12.739375"><ele>41.0</ele><time>2026-04-06T17:22:02.053Z</time></trkpt><trkpt lat="45.9944956" lon="12.739549"><ele>41.0</ele><time>2026-04-06T17:22:03.051Z</time></trkpt><trkpt lat="45.9944801" lon="12.7397221"><ele>41.0</ele><time>2026-04-06T17:22:04.052Z</time></trkpt><trkpt lat="45.9944645" lon="12.7398887"><ele>41.0</ele><time>2026-04-06T17:22:05.051Z</time></trkpt><trkpt lat="45.9944481" lon="12.7400576"><ele>41.0</ele><time>2026-04-06T17:22:06.051Z</time></trkpt><trkpt lat="45.9944322" lon="12.740226"><ele>41.0</ele><time>2026-04-06T17:22:07.052Z</time></trkpt><trkpt lat="45.9944162" lon="12.7403997"><ele>41.0</ele><time>2026-04-06T17:22:08.051Z</time></trkpt><trkpt lat="45.9943996" lon="12.7405652"><ele>41.0</ele><time>2026-04-06T17:22:09.052Z</time></trkpt><trkpt lat="45.9943845" lon="12.7407193"><ele>41.0</ele><time>2026-04-06T17:22:10.052Z</time></trkpt><trkpt lat="45.9943705" lon="12.7408717"><ele>41.0</ele><time>2026-04-06T17:22:11.053Z</time></trkpt><trkpt lat="45.9943523" lon="12.7410328"><ele>41.0</ele><time>2026-04-06T17:22:12.051Z</time></trkpt><trkpt lat="45.9943331" lon="12.7412004"><ele>41.0</ele><time>2026-04-06T17:22:13.053Z</time></trkpt><trkpt lat="45.9943154" lon="12.7413752"><ele>41.25</ele><time>2026-04-06T17:22:14.051Z</time></trkpt><trkpt lat="45.9942996" lon="12.7415627"><ele>41.5</ele><time>2026-04-06T17:22:15.051Z</time></trkpt><trkpt lat="45.9942847" lon="12.7417524"><ele>41.75</ele><time>2026-04-06T17:22:16.052Z</time></trkpt><trkpt lat="45.9942707" lon="12.7419459"><ele>42.0</ele><time>2026-04-06T17:22:17.051Z</time></trkpt><trkpt lat="45.9942567" lon="12.7421373"><ele>42.25</ele><time>2026-04-06T17:22:18.051Z</time></trkpt><trkpt lat="45.9942431" lon="12.7423198"><ele>42.5</ele><time>2026-04-06T17:22:19.052Z</time></trkpt><trkpt lat="45.9942292" lon="12.7425046"><ele>42.75</ele><time>2026-04-06T17:22:20.051Z</time></trkpt><trkpt lat="45.9942157" lon="12.7426845"><ele>43.0</ele><time>2026-04-06T17:22:21.051Z</time></trkpt><trkpt lat="45.9942024" lon="12.7428686"><ele>43.0</ele><time>2026-04-06T17:22:22.052Z</time></trkpt><trkpt lat="45.9941872" lon="12.7430547"><ele>43.0</ele><time>2026-04-06T17:22:23.052Z</time></trkpt><trkpt lat="45.9941742" lon="12.7432269"><ele>43.0</ele><time>2026-04-06T17:22:24.052Z</time></trkpt><trkpt lat="45.9941629" lon="12.743392"><ele>43.0</ele><time>2026-04-06T17:22:25.051Z</time></trkpt><trkpt lat="45.994151" lon="12.7435577"><ele>42.75</ele><time>2026-04-06T17:22:26.051Z</time></trkpt><trkpt lat="45.9941429" lon="12.7437287"><ele>42.5</ele><time>2026-04-06T17:22:27.052Z</time></trkpt><trkpt lat="45.9941392" lon="12.743909"><ele>42.25</ele><time>2026-04-06T17:22:28.052Z</time></trkpt><trkpt lat="45.9941384" lon="12.7440811"><ele>42.0</ele><time>2026-04-06T17:22:29.052Z</time></trkpt><trkpt lat="45.9941399" lon="12.7442446"><ele>42.0</ele><time>2026-04-06T17:22:30.051Z</time></trkpt><trkpt lat="45.9941444" lon="12.7443971"><ele>42.0</ele><time>2026-04-06T17:22:31.051Z</time></trkpt><trkpt lat="45.9941531" lon="12.7445325"><ele>42.0</ele><time>2026-04-06T17:22:32.051Z</time></trkpt><trkpt lat="45.9941623" lon="12.7446534"><ele>42.0</ele><time>2026-04-06T17:22:33.052Z</time></trkpt><trkpt lat="45.9941682" lon="12.7447668"><ele>42.0</ele><time>2026-04-06T17:22:34.052Z</time></trkpt><trkpt lat="45.9941692" lon="12.7448761"><ele>42.0</ele><time>2026-04-06T17:22:35.051Z</time></trkpt><trkpt lat="45.9941599" lon="12.7449767"><ele>42.0</ele><time>2026-04-06T17:22:36.051Z</time></trkpt><trkpt lat="45.9941432" lon="12.7450662"><ele>42.0</ele><time>2026-04-06T17:22:37.052Z</time></trkpt><trkpt lat="45.9940812" lon="12.7451866"><ele>42.0</ele><time>2026-04-06T17:22:39.052Z</time></trkpt><trkpt lat="45.9939683" lon="12.7452445"><ele>42.0</ele><time>2026-04-06T17:22:41.051Z</time></trkpt><trkpt lat="45.9938886" lon="12.7452601"><ele>42.0</ele><time>2026-04-06T17:22:42.051Z</time></trkpt><trkpt lat="45.9938026" lon="12.7452769"><ele>42.0</ele><time>2026-04-06T17:22:43.051Z</time></trkpt><trkpt lat="45.9937044" lon="12.7453001"><ele>42.0</ele><time>2026-04-06T17:22:44.052Z</time></trkpt><trkpt lat="45.9935987" lon="12.7453268"><ele>42.0</ele><time>2026-04-06T17:22:45.051Z</time></trkpt><trkpt lat="45.9934952" lon="12.7453536"><ele>42.0</ele><time>2026-04-06T17:22:46.051Z</time></trkpt><trkpt lat="45.9933837" lon="12.7453846"><ele>42.0</ele><time>2026-04-06T17:22:47.053Z</time></trkpt><trkpt lat="45.9932694" lon="12.745415"><ele>41.25</ele><time>2026-04-06T17:22:48.051Z</time></trkpt><trkpt lat="45.9931566" lon="12.7454456"><ele>40.5</ele><time>2026-04-06T17:22:49.051Z</time></trkpt><trkpt lat="45.9930372" lon="12.7454771"><ele>39.75</ele><time>2026-04-06T17:22:50.052Z</time></trkpt><trkpt lat="45.9929188" lon="12.7455082"><ele>39.0</ele><time>2026-04-06T17:22:51.051Z</time></trkpt><trkpt lat="45.9927959" lon="12.7455398"><ele>39.0</ele><time>2026-04-06T17:22:52.052Z</time></trkpt><trkpt lat="45.9926692" lon="12.7455746"><ele>39.0</ele><time>2026-04-06T17:22:53.051Z</time></trkpt><trkpt lat="45.9925428" lon="12.7456071"><ele>39.0</ele><time>2026-04-06T17:22:54.051Z</time></trkpt><trkpt lat="45.992408" lon="12.7456392"><ele>39.0</ele><time>2026-04-06T17:22:55.051Z</time></trkpt><trkpt lat="45.9922691" lon="12.745675"><ele>39.0</ele><time>2026-04-06T17:22:56.053Z</time></trkpt><trkpt lat="45.9921305" lon="12.7457098"><ele>39.0</ele><time>2026-04-06T17:22:57.052Z</time></trkpt><trkpt lat="45.991985" lon="12.7457461"><ele>39.0</ele><time>2026-04-06T17:22:58.052Z</time></trkpt><trkpt lat="45.9918334" lon="12.7457846"><ele>39.0</ele><time>2026-04-06T17:22:59.051Z</time></trkpt><trkpt lat="45.9916824" lon="12.7458227"><ele>39.25</ele><time>2026-04-06T17:23:00.051Z</time></trkpt><trkpt lat="45.9915398" lon="12.7458579"><ele>39.5</ele><time>2026-04-06T17:23:01.051Z</time></trkpt><trkpt lat="45.9914036" lon="12.7458923"><ele>39.75</ele><time>2026-04-06T17:23:02.051Z</time></trkpt><trkpt lat="45.9912641" lon="12.7459281"><ele>40.0</ele><time>2026-04-06T17:23:03.052Z</time></trkpt><trkpt lat="45.9911261" lon="12.7459625"><ele>40.0</ele><time>2026-04-06T17:23:04.052Z</time></trkpt><trkpt lat="45.9909931" lon="12.7459957"><ele>40.0</ele><time>2026-04-06T17:23:05.051Z</time></trkpt><trkpt lat="45.9908586" lon="12.7460323"><ele>40.0</ele><time>2026-04-06T17:23:06.051Z</time></trkpt><trkpt lat="45.9907223" lon="12.7460695"><ele>40.0</ele><time>2026-04-06T17:23:07.051Z</time></trkpt><trkpt lat="45.9905885" lon="12.7461065"><ele>40.25</ele><time>2026-04-06T17:23:08.051Z</time></trkpt><trkpt lat="45.9904544" lon="12.7461461"><ele>40.5</ele><time>2026-04-06T17:23:09.051Z</time></trkpt><trkpt lat="45.9903225" lon="12.7461806"><ele>40.75</ele><time>2026-04-06T17:23:10.052Z</time></trkpt><trkpt lat="45.9901851" lon="12.7462137"><ele>41.0</ele><time>2026-04-06T17:23:11.052Z</time></trkpt><trkpt lat="45.9900495" lon="12.7462466"><ele>40.75</ele><time>2026-04-06T17:23:12.051Z</time></trkpt><trkpt lat="45.9899187" lon="12.7462781"><ele>40.5</ele><time>2026-04-06T17:23:13.052Z</time></trkpt><trkpt lat="45.9897854" lon="12.7463115"><ele>40.25</ele><time>2026-04-06T17:23:14.051Z</time></trkpt><trkpt lat="45.9896539" lon="12.7463468"><ele>40.0</ele><time>2026-04-06T17:23:15.051Z</time></trkpt><trkpt lat="45.9895191" lon="12.7463813"><ele>40.0</ele><time>2026-04-06T17:23:16.052Z</time></trkpt><trkpt lat="45.9893855" lon="12.7464161"><ele>40.0</ele><time>2026-04-06T17:23:17.052Z</time></trkpt><trkpt lat="45.9892519" lon="12.7464492"><ele>40.0</ele><time>2026-04-06T17:23:18.051Z</time></trkpt><trkpt lat="45.9891133" lon="12.7464845"><ele>40.0</ele><time>2026-04-06T17:23:19.052Z</time></trkpt><trkpt lat="45.9889743" lon="12.7465211"><ele>39.0</ele><time>2026-04-06T17:23:20.053Z</time></trkpt><trkpt lat="45.9888392" lon="12.7465583"><ele>38.0</ele><time>2026-04-06T17:23:21.051Z</time></trkpt><trkpt lat="45.9886998" lon="12.7465942"><ele>37.0</ele><time>2026-04-06T17:23:22.052Z</time></trkpt><trkpt lat="45.9885603" lon="12.7466296"><ele>36.0</ele><time>2026-04-06T17:23:23.051Z</time></trkpt><trkpt lat="45.9884263" lon="12.7466661"><ele>36.0</ele><time>2026-04-06T17:23:24.052Z</time></trkpt><trkpt lat="45.9882962" lon="12.7467041"><ele>36.0</ele><time>2026-04-06T17:23:25.051Z</time></trkpt><trkpt lat="45.9881641" lon="12.7467411"><ele>36.0</ele><time>2026-04-06T17:23:26.051Z</time></trkpt><trkpt lat="45.9880297" lon="12.7467786"><ele>36.0</ele><time>2026-04-06T17:23:27.051Z</time></trkpt><trkpt lat="45.9878923" lon="12.746817"><ele>36.0</ele><time>2026-04-06T17:23:28.051Z</time></trkpt><trkpt lat="45.9877593" lon="12.7468538"><ele>36.0</ele><time>2026-04-06T17:23:29.053Z</time></trkpt><trkpt lat="45.9876336" lon="12.7468873"><ele>36.0</ele><time>2026-04-06T17:23:30.051Z</time></trkpt><trkpt lat="45.9875166" lon="12.7469173"><ele>36.0</ele><time>2026-04-06T17:23:31.051Z</time></trkpt><trkpt lat="45.9873977" lon="12.7469427"><ele>36.0</ele><time>2026-04-06T17:23:32.052Z</time></trkpt><trkpt lat="45.9872799" lon="12.7469668"><ele>36.0</ele><time>2026-04-06T17:23:33.053Z</time></trkpt><trkpt lat="45.9871548" lon="12.7469949"><ele>36.0</ele><time>2026-04-06T17:23:34.051Z</time></trkpt><trkpt lat="45.9870277" lon="12.7470276"><ele>36.0</ele><time>2026-04-06T17:23:35.051Z</time></trkpt><trkpt lat="45.9869066" lon="12.7470624"><ele>36.0</ele><time>2026-04-06T17:23:36.051Z</time></trkpt><trkpt lat="45.9867927" lon="12.7471012"><ele>36.0</ele><time>2026-04-06T17:23:37.052Z</time></trkpt><trkpt lat="45.9866847" lon="12.7471559"><ele>36.0</ele><time>2026-04-06T17:23:38.051Z</time></trkpt><trkpt lat="45.9865818" lon="12.7472303"><ele>36.0</ele><time>2026-04-06T17:23:39.051Z</time></trkpt><trkpt lat="45.9864798" lon="12.7473233"><ele>36.25</ele><time>2026-04-06T17:23:40.052Z</time></trkpt><trkpt lat="45.9863853" lon="12.7474237"><ele>36.5</ele><time>2026-04-06T17:23:41.052Z</time></trkpt><trkpt lat="45.9862937" lon="12.7475335"><ele>36.75</ele><time>2026-04-06T17:23:42.051Z</time></trkpt><trkpt lat="45.9862031" lon="12.7476564"><ele>37.0</ele><time>2026-04-06T17:23:43.051Z</time></trkpt><trkpt lat="45.9861082" lon="12.7477781"><ele>37.0</ele><time>2026-04-06T17:23:44.051Z</time></trkpt><trkpt lat="45.9860086" lon="12.7478867"><ele>37.0</ele><time>2026-04-06T17:23:45.053Z</time></trkpt><trkpt lat="45.9859015" lon="12.7479904"><ele>37.0</ele><time>2026-04-06T17:23:46.052Z</time></trkpt><trkpt lat="45.9857915" lon="12.7480874"><ele>37.0</ele><time>2026-04-06T17:23:47.051Z</time></trkpt><trkpt lat="45.985681" lon="12.7481728"><ele>36.25</ele><time>2026-04-06T17:23:48.051Z</time></trkpt><trkpt lat="45.9855686" lon="12.7482406"><ele>35.5</ele><time>2026-04-06T17:23:49.052Z</time></trkpt><trkpt lat="45.9854507" lon="12.748298"><ele>34.75</ele><time>2026-04-06T17:23:50.051Z</time></trkpt><trkpt lat="45.9853233" lon="12.7483547"><ele>34.0</ele><time>2026-04-06T17:23:51.052Z</time></trkpt><trkpt lat="45.9851934" lon="12.7484118"><ele>34.0</ele><time>2026-04-06T17:23:52.052Z</time></trkpt><trkpt lat="45.9850605" lon="12.7484703"><ele>34.0</ele><time>2026-04-06T17:23:53.051Z</time></trkpt><trkpt lat="45.9849291" lon="12.7485272"><ele>34.0</ele><time>2026-04-06T17:23:54.052Z</time></trkpt><trkpt lat="45.984803" lon="12.7485835"><ele>34.0</ele><time>2026-04-06T17:23:55.052Z</time></trkpt><trkpt lat="45.9846764" lon="12.7486352"><ele>34.0</ele><time>2026-04-06T17:23:56.051Z</time></trkpt><trkpt lat="45.9845527" lon="12.7486722"><ele>34.0</ele><time>2026-04-06T17:23:57.052Z</time></trkpt><trkpt lat="45.9844251" lon="12.7486927"><ele>34.0</ele><time>2026-04-06T17:23:58.051Z</time></trkpt><trkpt lat="45.9842958" lon="12.7486964"><ele>34.0</ele><time>2026-04-06T17:23:59.053Z</time></trkpt><trkpt lat="45.984163" lon="12.7486939"><ele>34.0</ele><time>2026-04-06T17:24:00.052Z</time></trkpt><trkpt lat="45.9840335" lon="12.7486878"><ele>34.0</ele><time>2026-04-06T17:24:01.052Z</time></trkpt><trkpt lat="45.9839011" lon="12.7486816"><ele>34.0</ele><time>2026-04-06T17:24:02.052Z</time></trkpt><trkpt lat="45.9837648" lon="12.7486811"><ele>34.0</ele><time>2026-04-06T17:24:03.051Z</time></trkpt><trkpt lat="45.9836297" lon="12.7486823"><ele>34.0</ele><time>2026-04-06T17:24:04.051Z</time></trkpt><trkpt lat="45.9835024" lon="12.7486841"><ele>34.0</ele><time>2026-04-06T17:24:05.051Z</time></trkpt><trkpt lat="45.9833844" lon="12.7486857"><ele>34.0</ele><time>2026-04-06T17:24:06.051Z</time></trkpt><trkpt lat="45.9832819" lon="12.7486852"><ele>34.0</ele><time>2026-04-06T17:24:07.051Z</time></trkpt><trkpt lat="45.9831889" lon="12.7486808"><ele>34.0</ele><time>2026-04-06T17:24:08.051Z</time></trkpt><trkpt lat="45.9831033" lon="12.7486712"><ele>34.2</ele><time>2026-04-06T17:24:09.051Z</time></trkpt><trkpt lat="45.9830188" lon="12.7486542"><ele>34.4</ele><time>2026-04-06T17:24:10.051Z</time></trkpt><trkpt lat="45.98293" lon="12.7486228"><ele>34.6</ele><time>2026-04-06T17:24:11.051Z</time></trkpt><trkpt lat="45.9828505" lon="12.7485854"><ele>34.8</ele><time>2026-04-06T17:24:12.051Z</time></trkpt><trkpt lat="45.9827808" lon="12.7485514"><ele>35.0</ele><time>2026-04-06T17:24:13.052Z</time></trkpt><trkpt lat="45.9826631" lon="12.7485401"><ele>35.0</ele><time>2026-04-06T17:24:15.052Z</time></trkpt><trkpt lat="45.9825717" lon="12.7485942"><ele>35.0</ele><time>2026-04-06T17:24:17.052Z</time></trkpt><trkpt lat="45.9824957" lon="12.748643"><ele>35.0</ele><time>2026-04-06T17:24:19.053Z</time></trkpt><trkpt lat="45.9824251" lon="12.7486251"><ele>35.0</ele><time>2026-04-06T17:24:21.051Z</time></trkpt><trkpt lat="45.9823783" lon="12.7485309"><ele>35.0</ele><time>2026-04-06T17:24:23.052Z</time></trkpt><trkpt lat="45.9823536" lon="12.7484442"><ele>35.0</ele><time>2026-04-06T17:24:24.051Z</time></trkpt><trkpt lat="45.9823282" lon="12.7483353"><ele>34.6</ele><time>2026-04-06T17:24:25.053Z</time></trkpt><trkpt lat="45.9822952" lon="12.7482142"><ele>34.2</ele><time>2026-04-06T17:24:26.052Z</time></trkpt><trkpt lat="45.9822533" lon="12.7480912"><ele>33.8</ele><time>2026-04-06T17:24:27.053Z</time></trkpt><trkpt lat="45.9822059" lon="12.7479709"><ele>33.4</ele><time>2026-04-06T17:24:28.052Z</time></trkpt><trkpt lat="45.9821527" lon="12.7478454"><ele>33.0</ele><time>2026-04-06T17:24:29.052Z</time></trkpt><trkpt lat="45.9820963" lon="12.7477115"><ele>32.75</ele><time>2026-04-06T17:24:30.052Z</time></trkpt><trkpt lat="45.9820347" lon="12.7475616"><ele>32.5</ele><time>2026-04-06T17:24:31.052Z</time></trkpt><trkpt lat="45.9819753" lon="12.7474144"><ele>32.25</ele><time>2026-04-06T17:24:32.052Z</time></trkpt><trkpt lat="45.9819166" lon="12.7472694"><ele>32.0</ele><time>2026-04-06T17:24:33.051Z</time></trkpt><trkpt lat="45.9818598" lon="12.7471297"><ele>32.0</ele><time>2026-04-06T17:24:34.053Z</time></trkpt><trkpt lat="45.981805" lon="12.7469878"><ele>32.0</ele><time>2026-04-06T17:24:35.052Z</time></trkpt><trkpt lat="45.9817518" lon="12.7468526"><ele>32.0</ele><time>2026-04-06T17:24:36.051Z</time></trkpt><trkpt lat="45.9816997" lon="12.746723"><ele>32.0</ele><time>2026-04-06T17:24:37.052Z</time></trkpt><trkpt lat="45.9816469" lon="12.7465922"><ele>32.0</ele><time>2026-04-06T17:24:38.051Z</time></trkpt><trkpt lat="45.9815914" lon="12.746451"><ele>31.75</ele><time>2026-04-06T17:24:39.051Z</time></trkpt><trkpt lat="45.9815367" lon="12.7463085"><ele>31.5</ele><time>2026-04-06T17:24:40.052Z</time></trkpt><trkpt lat="45.9814827" lon="12.7461616"><ele>31.25</ele><time>2026-04-06T17:24:41.052Z</time></trkpt><trkpt lat="45.98143" lon="12.7460163"><ele>31.0</ele><time>2026-04-06T17:24:42.053Z</time></trkpt><trkpt lat="45.9813772" lon="12.7458711"><ele>31.4</ele><time>2026-04-06T17:24:43.052Z</time></trkpt><trkpt lat="45.9813303" lon="12.7457383"><ele>31.8</ele><time>2026-04-06T17:24:44.051Z</time></trkpt><trkpt lat="45.9812857" lon="12.7456058"><ele>32.199999999999996</ele><time>2026-04-06T17:24:45.052Z</time></trkpt><trkpt lat="45.9812485" lon="12.7454876"><ele>32.6</ele><time>2026-04-06T17:24:46.051Z</time></trkpt><trkpt lat="45.9812164" lon="12.7453821"><ele>33.0</ele><time>2026-04-06T17:24:47.053Z</time></trkpt><trkpt lat="45.981182" lon="12.7452861"><ele>32.8</ele><time>2026-04-06T17:24:48.051Z</time></trkpt><trkpt lat="45.9811448" lon="12.745209"><ele>32.599999999999994</ele><time>2026-04-06T17:24:49.051Z</time></trkpt><trkpt lat="45.9810561" lon="12.7450974"><ele>32.400000000000006</ele><time>2026-04-06T17:24:51.052Z</time></trkpt><trkpt lat="45.9809541" lon="12.7450094"><ele>32.2</ele><time>2026-04-06T17:24:53.052Z</time></trkpt><trkpt lat="45.9808608" lon="12.7449314"><ele>32.0</ele><time>2026-04-06T17:24:55.053Z</time></trkpt><trkpt lat="45.9807908" lon="12.744875"><ele>31.833333333333332</ele><time>2026-04-06T17:24:57.051Z</time></trkpt><trkpt lat="45.9807172" lon="12.7449004"><ele>31.666666666666664</ele><time>2026-04-06T17:25:00.051Z</time></trkpt><trkpt lat="45.9806789" lon="12.7450166"><ele>31.5</ele><time>2026-04-06T17:25:02.051Z</time></trkpt><trkpt lat="45.9806688" lon="12.7451984"><ele>31.333333333333336</ele><time>2026-04-06T17:25:04.051Z</time></trkpt><trkpt lat="45.9806714" lon="12.7453009"><ele>31.166666666666668</ele><time>2026-04-06T17:25:05.051Z</time></trkpt><trkpt lat="45.9806679" lon="12.7454056"><ele>31.0</ele><time>2026-04-06T17:25:06.051Z</time></trkpt><trkpt lat="45.9806508" lon="12.7455064"><ele>31.000000000000004</ele><time>2026-04-06T17:25:07.051Z</time></trkpt><trkpt lat="45.9806175" lon="12.745606"><ele>31.0</ele><time>2026-04-06T17:25:08.051Z</time></trkpt><trkpt lat="45.9805724" lon="12.745698"><ele>31.0</ele><time>2026-04-06T17:25:09.051Z</time></trkpt><trkpt lat="45.9805214" lon="12.7457887"><ele>31.0</ele><time>2026-04-06T17:25:10.051Z</time></trkpt><trkpt lat="45.9804674" lon="12.7458804"><ele>31.000000000000004</ele><time>2026-04-06T17:25:11.051Z</time></trkpt><trkpt lat="45.9804159" lon="12.7459677"><ele>31.0</ele><time>2026-04-06T17:25:12.051Z</time></trkpt><trkpt lat="45.9803623" lon="12.7460565"><ele>31.166666666666668</ele><time>2026-04-06T17:25:13.052Z</time></trkpt><trkpt lat="45.9803054" lon="12.7461543"><ele>31.333333333333336</ele><time>2026-04-06T17:25:14.053Z</time></trkpt><trkpt lat="45.9802459" lon="12.7462464"><ele>31.5</ele><time>2026-04-06T17:25:15.052Z</time></trkpt><trkpt lat="45.9801809" lon="12.7463407"><ele>31.666666666666664</ele><time>2026-04-06T17:25:16.051Z</time></trkpt><trkpt lat="45.9801208" lon="12.7464331"><ele>31.833333333333332</ele><time>2026-04-06T17:25:17.051Z</time></trkpt><trkpt lat="45.9800682" lon="12.7465224"><ele>32.0</ele><time>2026-04-06T17:25:18.051Z</time></trkpt><trkpt lat="45.9800223" lon="12.7466132"><ele>32.0</ele><time>2026-04-06T17:25:19.051Z</time></trkpt><trkpt lat="45.9799869" lon="12.7467007"><ele>32.0</ele><time>2026-04-06T17:25:20.052Z</time></trkpt><trkpt lat="45.9799537" lon="12.746866"><ele>32.0</ele><time>2026-04-06T17:25:22.052Z</time></trkpt><trkpt lat="45.9799547" lon="12.746959"><ele>32.0</ele><time>2026-04-06T17:25:23.051Z</time></trkpt><trkpt lat="45.9799865" lon="12.747137"><ele>32.0</ele><time>2026-04-06T17:25:25.051Z</time></trkpt><trkpt lat="45.9800076" lon="12.7472294"><ele>32.0</ele><time>2026-04-06T17:25:26.052Z</time></trkpt><trkpt lat="45.9800281" lon="12.7473162"><ele>32.0</ele><time>2026-04-06T17:25:27.052Z</time></trkpt><trkpt lat="45.9800486" lon="12.747474"><ele>32.0</ele><time>2026-04-06T17:25:29.051Z</time></trkpt><trkpt lat="45.9800462" lon="12.7476301"><ele>32.0</ele><time>2026-04-06T17:25:31.052Z</time></trkpt><trkpt lat="45.980027" lon="12.7477699"><ele>32.0</ele><time>2026-04-06T17:25:33.052Z</time></trkpt><trkpt lat="45.9799723" lon="12.7478638"><ele>32.2</ele><time>2026-04-06T17:25:35.052Z</time></trkpt><trkpt lat="45.9798667" lon="12.7479187"><ele>32.400000000000006</ele><time>2026-04-06T17:25:37.052Z</time></trkpt><trkpt lat="45.9797956" lon="12.747934"><ele>32.599999999999994</ele><time>2026-04-06T17:25:38.052Z</time></trkpt><trkpt lat="45.9797248" lon="12.7479464"><ele>32.8</ele><time>2026-04-06T17:25:39.051Z</time></trkpt><trkpt lat="45.9796079" lon="12.747951"><ele>33.0</ele><time>2026-04-06T17:25:41.051Z</time></trkpt><trkpt lat="45.9795153" lon="12.7479457"><ele>33.0</ele><time>2026-04-06T17:25:43.051Z</time></trkpt><trkpt lat="45.9794492" lon="12.7478853"><ele>33.0</ele><time>2026-04-06T17:25:46.051Z</time></trkpt><trkpt lat="45.9794345" lon="12.7477946"><ele>33.0</ele><time>2026-04-06T17:25:49.052Z</time></trkpt><trkpt lat="45.979429" lon="12.7477037"><ele>33.0</ele><time>2026-04-06T17:26:19.052Z</time></trkpt><trkpt lat="45.9794411" lon="12.7476126"><ele>33.0</ele><time>2026-04-06T17:26:21.052Z</time></trkpt><trkpt lat="45.9794134" lon="12.7475208"><ele>33.0</ele><time>2026-04-06T17:26:23.051Z</time></trkpt><trkpt lat="45.9793527" lon="12.7474492"><ele>33.0</ele><time>2026-04-06T17:26:25.053Z</time></trkpt><trkpt lat="45.9793213" lon="12.7473449"><ele>32.8</ele><time>2026-04-06T17:26:27.051Z</time></trkpt><trkpt lat="45.9793272" lon="12.7472026"><ele>32.599999999999994</ele><time>2026-04-06T17:26:29.051Z</time></trkpt><trkpt lat="45.9793421" lon="12.7470525"><ele>32.400000000000006</ele><time>2026-04-06T17:26:31.053Z</time></trkpt><trkpt lat="45.9793676" lon="12.7468993"><ele>32.2</ele><time>2026-04-06T17:26:33.051Z</time></trkpt><trkpt lat="45.9793935" lon="12.7467599"><ele>32.0</ele><time>2026-04-06T17:26:35.053Z</time></trkpt><trkpt lat="45.979413" lon="12.7465338"><ele>31.666666666666664</ele><time>2026-04-06T17:26:37.052Z</time></trkpt><trkpt lat="45.9794131" lon="12.7464264"><ele>31.333333333333332</ele><time>2026-04-06T17:26:38.051Z</time></trkpt><trkpt lat="45.9794085" lon="12.7463209"><ele>31.0</ele><time>2026-04-06T17:26:39.051Z</time></trkpt><trkpt lat="45.9794004" lon="12.7461988"><ele>30.666666666666664</ele><time>2026-04-06T17:26:40.052Z</time></trkpt><trkpt lat="45.9793865" lon="12.7460766"><ele>30.333333333333332</ele><time>2026-04-06T17:26:41.052Z</time></trkpt><trkpt lat="45.9793774" lon="12.7459405"><ele>30.0</ele><time>2026-04-06T17:26:42.052Z</time></trkpt><trkpt lat="45.9793744" lon="12.7457964"><ele>29.833333333333332</ele><time>2026-04-06T17:26:43.051Z</time></trkpt><trkpt lat="45.9793761" lon="12.7456718"><ele>29.666666666666664</ele><time>2026-04-06T17:26:44.051Z</time></trkpt><trkpt lat="45.9793777" lon="12.7455505"><ele>29.5</ele><time>2026-04-06T17:26:45.051Z</time></trkpt><trkpt lat="45.9793737" lon="12.745449"><ele>29.333333333333332</ele><time>2026-04-06T17:26:46.051Z</time></trkpt><trkpt lat="45.9793437" lon="12.7452824"><ele>29.166666666666664</ele><time>2026-04-06T17:26:48.052Z</time></trkpt><trkpt lat="45.9793229" lon="12.7451951"><ele>29.0</ele><time>2026-04-06T17:26:49.052Z</time></trkpt><trkpt lat="45.9792898" lon="12.7450634"><ele>28.999999999999996</ele><time>2026-04-06T17:26:51.052Z</time></trkpt><trkpt lat="45.9792241" lon="12.7450156"><ele>29.0</ele><time>2026-04-06T17:26:53.052Z</time></trkpt><trkpt lat="45.9791752" lon="12.7450992"><ele>29.0</ele><time>2026-04-06T17:26:55.052Z</time></trkpt><trkpt lat="45.9791809" lon="12.7452514"><ele>29.0</ele><time>2026-04-06T17:26:57.052Z</time></trkpt><trkpt lat="45.979184" lon="12.7453422"><ele>28.999999999999996</ele><time>2026-04-06T17:26:58.053Z</time></trkpt><trkpt lat="45.9791941" lon="12.7454975"><ele>29.0</ele><time>2026-04-06T17:27:00.051Z</time></trkpt><trkpt lat="45.97918" lon="12.7455941"><ele>28.999999999999996</ele><time>2026-04-06T17:27:02.051Z</time></trkpt><trkpt lat="45.9791089" lon="12.7456635"><ele>29.0</ele><time>2026-04-06T17:27:05.051Z</time></trkpt><trkpt lat="45.9790288" lon="12.7456983"><ele>29.0</ele><time>2026-04-06T17:27:07.051Z</time></trkpt><trkpt lat="45.9789766" lon="12.7457662"><ele>29.0</ele><time>2026-04-06T17:27:09.052Z</time></trkpt><trkpt lat="45.9789518" lon="12.7458878"><ele>28.999999999999996</ele><time>2026-04-06T17:27:11.052Z</time></trkpt><trkpt lat="45.9789171" lon="12.7460235"><ele>29.0</ele><time>2026-04-06T17:27:13.052Z</time></trkpt><trkpt lat="45.9788621" lon="12.7461009"><ele>28.999999999999996</ele><time>2026-04-06T17:27:15.052Z</time></trkpt><trkpt lat="45.9788102" lon="12.7460389"><ele>29.0</ele><time>2026-04-06T17:27:17.052Z</time></trkpt><trkpt lat="45.9788151" lon="12.7459347"><ele>29.0</ele><time>2026-04-06T17:27:19.051Z</time></trkpt><trkpt lat="45.9788308" lon="12.7457918"><ele>29.0</ele><time>2026-04-06T17:27:21.051Z</time></trkpt><trkpt lat="45.9788671" lon="12.7456801"><ele>28.999999999999996</ele><time>2026-04-06T17:27:23.051Z</time></trkpt><trkpt lat="45.9789343" lon="12.7455658"><ele>29.0</ele><time>2026-04-06T17:27:25.051Z</time></trkpt><trkpt lat="45.9790025" lon="12.7454742"><ele>28.999999999999996</ele><time>2026-04-06T17:27:27.051Z</time></trkpt><trkpt lat="45.9790067" lon="12.7453732"><ele>29.0</ele><time>2026-04-06T17:27:29.052Z</time></trkpt><trkpt lat="45.9789204" lon="12.7453871"><ele>29.0</ele><time>2026-04-06T17:27:32.051Z</time></trkpt><trkpt lat="45.978885" lon="12.7454934"><ele>29.0</ele><time>2026-04-06T17:27:34.051Z</time></trkpt><trkpt lat="45.9788042" lon="12.7455754"><ele>28.999999999999996</ele><time>2026-04-06T17:27:36.051Z</time></trkpt><trkpt lat="45.9787211" lon="12.745592"><ele>29.0</ele><time>2026-04-06T17:27:38.051Z</time></trkpt><trkpt lat="45.9786445" lon="12.7455778"><ele>29.000000000000004</ele><time>2026-04-06T17:27:40.051Z</time></trkpt><trkpt lat="45.9785757" lon="12.7455648"><ele>29.0</ele><time>2026-04-06T17:27:42.052Z</time></trkpt><trkpt lat="45.9785035" lon="12.7455452"><ele>29.000000000000004</ele><time>2026-04-06T17:27:44.051Z</time></trkpt><trkpt lat="45.978433" lon="12.7455057"><ele>29.000000000000004</ele><time>2026-04-06T17:27:46.052Z</time></trkpt><trkpt lat="45.9784091" lon="12.7454039"><ele>29.0</ele><time>2026-04-06T17:27:49.052Z</time></trkpt><trkpt lat="45.9784473" lon="12.745331"><ele>29.000000000000004</ele><time>2026-04-06T17:27:53.051Z</time></trkpt><trkpt lat="45.9785356" lon="12.7453091"><ele>29.000000000000004</ele><time>2026-04-06T17:27:56.052Z</time></trkpt><trkpt lat="45.9786375" lon="12.7453086"><ele>29.0</ele><time>2026-04-06T17:27:58.051Z</time></trkpt><trkpt lat="45.9787427" lon="12.7452831"><ele>29.0</ele><time>2026-04-06T17:28:00.053Z</time></trkpt><trkpt lat="45.97883" lon="12.7452624"><ele>29.0</ele><time>2026-04-06T17:28:02.052Z</time></trkpt><trkpt lat="45.9789227" lon="12.7452212"><ele>29.0</ele><time>2026-04-06T17:28:04.053Z</time></trkpt><trkpt lat="45.979008" lon="12.7451485"><ele>29.0</ele><time>2026-04-06T17:28:06.051Z</time></trkpt><trkpt lat="45.9790581" lon="12.745066"><ele>28.833333333333332</ele><time>2026-04-06T17:28:08.052Z</time></trkpt><trkpt lat="45.9790285" lon="12.7449772"><ele>28.666666666666664</ele><time>2026-04-06T17:28:09.052Z</time></trkpt><trkpt lat="45.9790064" lon="12.744845"><ele>28.5</ele><time>2026-04-06T17:28:11.052Z</time></trkpt><trkpt lat="45.9790386" lon="12.7447368"><ele>28.333333333333336</ele><time>2026-04-06T17:28:13.051Z</time></trkpt><trkpt lat="45.9791162" lon="12.7446945"><ele>28.166666666666668</ele><time>2026-04-06T17:28:15.053Z</time></trkpt><trkpt lat="45.9792052" lon="12.7447298"><ele>28.0</ele><time>2026-04-06T17:28:17.051Z</time></trkpt><trkpt lat="45.9792834" lon="12.7446874"><ele>28.0</ele><time>2026-04-06T17:28:19.052Z</time></trkpt><trkpt lat="45.9792853" lon="12.7445501"><ele>27.999999999999996</ele><time>2026-04-06T17:28:21.051Z</time></trkpt><trkpt lat="45.9792177" lon="12.7444414"><ele>27.999999999999996</ele><time>2026-04-06T17:28:23.053Z</time></trkpt><trkpt lat="45.9791311" lon="12.7444166"><ele>28.0</ele><time>2026-04-06T17:28:25.052Z</time></trkpt><trkpt lat="45.9790566" lon="12.7444791"><ele>28.0</ele><time>2026-04-06T17:28:27.051Z</time></trkpt><trkpt lat="45.9789818" lon="12.7445805"><ele>28.666666666666668</ele><time>2026-04-06T17:28:29.051Z</time></trkpt><trkpt lat="45.9789301" lon="12.7446824"><ele>29.333333333333336</ele><time>2026-04-06T17:28:31.052Z</time></trkpt><trkpt lat="45.9789001" lon="12.74481"><ele>30.0</ele><time>2026-04-06T17:28:33.051Z</time></trkpt><trkpt lat="45.9788704" lon="12.7449216"><ele>30.666666666666664</ele><time>2026-04-06T17:28:35.051Z</time></trkpt><trkpt lat="45.9788168" lon="12.7450328"><ele>31.333333333333332</ele><time>2026-04-06T17:28:37.051Z</time></trkpt><trkpt lat="45.9787548" lon="12.7450996"><ele>32.0</ele><time>2026-04-06T17:28:39.052Z</time></trkpt><trkpt lat="45.9786628" lon="12.7451436"><ele>32.0</ele><time>2026-04-06T17:28:41.051Z</time></trkpt><trkpt lat="45.9785603" lon="12.7451868"><ele>32.0</ele><time>2026-04-06T17:28:43.051Z</time></trkpt><trkpt lat="45.9784684" lon="12.7452282"><ele>32.0</ele><time>2026-04-06T17:28:45.051Z</time></trkpt><trkpt lat="45.9783649" lon="12.7452771"><ele>32.0</ele><time>2026-04-06T17:28:47.051Z</time></trkpt><trkpt lat="45.9782829" lon="12.745334"><ele>32.0</ele><time>2026-04-06T17:28:49.053Z</time></trkpt><trkpt lat="45.9782446" lon="12.7454303"><ele>32.2</ele><time>2026-04-06T17:28:51.052Z</time></trkpt><trkpt lat="45.9782374" lon="12.7455717"><ele>32.400000000000006</ele><time>2026-04-06T17:28:53.052Z</time></trkpt><trkpt lat="45.9782416" lon="12.7457091"><ele>32.599999999999994</ele><time>2026-04-06T17:28:55.051Z</time></trkpt><trkpt lat="45.978259" lon="12.745845"><ele>32.8</ele><time>2026-04-06T17:28:57.052Z</time></trkpt><trkpt lat="45.9782703" lon="12.7459876"><ele>33.0</ele><time>2026-04-06T17:28:59.053Z</time></trkpt><trkpt lat="45.9782799" lon="12.7461451"><ele>32.6</ele><time>2026-04-06T17:29:01.052Z</time></trkpt><trkpt lat="45.9783042" lon="12.7463061"><ele>32.199999999999996</ele><time>2026-04-06T17:29:03.052Z</time></trkpt><trkpt lat="45.9783184" lon="12.7464347"><ele>31.8</ele><time>2026-04-06T17:29:05.052Z</time></trkpt><trkpt lat="45.9783498" lon="12.7465186"><ele>31.4</ele><time>2026-04-06T17:29:07.051Z</time></trkpt><trkpt lat="45.9784013" lon="12.7466055"><ele>31.0</ele><time>2026-04-06T17:29:09.052Z</time></trkpt><trkpt lat="45.9784776" lon="12.7467116"><ele>30.6</ele><time>2026-04-06T17:29:11.051Z</time></trkpt><trkpt lat="45.9785548" lon="12.7468047"><ele>30.200000000000003</ele><time>2026-04-06T17:29:13.052Z</time></trkpt><trkpt lat="45.9786197" lon="12.746947"><ele>29.799999999999997</ele><time>2026-04-06T17:29:15.052Z</time></trkpt><trkpt lat="45.9787122" lon="12.7470741"><ele>29.4</ele><time>2026-04-06T17:29:17.051Z</time></trkpt><trkpt lat="45.9788036" lon="12.7471399"><ele>29.0</ele><time>2026-04-06T17:29:19.052Z</time></trkpt><trkpt lat="45.9788807" lon="12.7471567"><ele>28.999999999999996</ele><time>2026-04-06T17:29:22.051Z</time></trkpt><trkpt lat="45.9789442" lon="12.7471218"><ele>29.0</ele><time>2026-04-06T17:29:26.051Z</time></trkpt><trkpt lat="45.979038" lon="12.747072"><ele>29.0</ele><time>2026-04-06T17:29:29.051Z</time></trkpt><trkpt lat="45.9791121" lon="12.7471041"><ele>29.0</ele><time>2026-04-06T17:29:31.051Z</time></trkpt><trkpt lat="45.9791292" lon="12.7472401"><ele>28.999999999999996</ele><time>2026-04-06T17:29:33.051Z</time></trkpt><trkpt lat="45.979124" lon="12.7473791"><ele>29.0</ele><time>2026-04-06T17:29:35.052Z</time></trkpt><trkpt lat="45.9791395" lon="12.7474942"><ele>29.499999999999996</ele><time>2026-04-06T17:29:37.052Z</time></trkpt><trkpt lat="45.9791887" lon="12.7475662"><ele>30.0</ele><time>2026-04-06T17:29:39.051Z</time></trkpt><trkpt lat="45.9792546" lon="12.7476537"><ele>30.5</ele><time>2026-04-06T17:29:41.052Z</time></trkpt><trkpt lat="45.9793565" lon="12.7476924"><ele>31.0</ele><time>2026-04-06T17:29:43.052Z</time></trkpt><trkpt lat="45.9794389" lon="12.7476855"><ele>31.499999999999996</ele><time>2026-04-06T17:29:45.052Z</time></trkpt><trkpt lat="45.979458" lon="12.7475735"><ele>32.0</ele><time>2026-04-06T17:29:47.053Z</time></trkpt><trkpt lat="45.9794129" lon="12.7474743"><ele>32.0</ele><time>2026-04-06T17:29:49.052Z</time></trkpt><trkpt lat="45.9793407" lon="12.7473547"><ele>32.0</ele><time>2026-04-06T17:29:51.051Z</time></trkpt><trkpt lat="45.9793396" lon="12.7472059"><ele>32.0</ele><time>2026-04-06T17:29:53.051Z</time></trkpt><trkpt lat="45.9793541" lon="12.7470464"><ele>32.0</ele><time>2026-04-06T17:29:55.051Z</time></trkpt><trkpt lat="45.97937" lon="12.7468804"><ele>32.0</ele><time>2026-04-06T17:29:57.052Z</time></trkpt><trkpt lat="45.9793926" lon="12.7467839"><ele>31.666666666666664</ele><time>2026-04-06T17:29:58.052Z</time></trkpt><trkpt lat="45.9794185" lon="12.7466272"><ele>31.333333333333332</ele><time>2026-04-06T17:30:00.051Z</time></trkpt><trkpt lat="45.9794191" lon="12.7465276"><ele>31.0</ele><time>2026-04-06T17:30:01.051Z</time></trkpt><trkpt lat="45.9794168" lon="12.7464157"><ele>30.666666666666664</ele><time>2026-04-06T17:30:02.052Z</time></trkpt><trkpt lat="45.9794098" lon="12.7463083"><ele>30.333333333333332</ele><time>2026-04-06T17:30:03.052Z</time></trkpt><trkpt lat="45.9793998" lon="12.7461946"><ele>30.0</ele><time>2026-04-06T17:30:04.051Z</time></trkpt><trkpt lat="45.9793869" lon="12.7460632"><ele>29.8</ele><time>2026-04-06T17:30:05.051Z</time></trkpt><trkpt lat="45.9793775" lon="12.7459315"><ele>29.6</ele><time>2026-04-06T17:30:06.051Z</time></trkpt><trkpt lat="45.9793762" lon="12.7457891"><ele>29.4</ele><time>2026-04-06T17:30:07.051Z</time></trkpt><trkpt lat="45.9793796" lon="12.7456454"><ele>29.2</ele><time>2026-04-06T17:30:08.051Z</time></trkpt><trkpt lat="45.9793791" lon="12.7455199"><ele>29.0</ele><time>2026-04-06T17:30:09.052Z</time></trkpt><trkpt lat="45.9793754" lon="12.745409"><ele>29.0</ele><time>2026-04-06T17:30:10.051Z</time></trkpt><trkpt lat="45.979341" lon="12.745242"><ele>29.0</ele><time>2026-04-06T17:30:12.051Z</time></trkpt><trkpt lat="45.9793199" lon="12.7451546"><ele>29.0</ele><time>2026-04-06T17:30:13.051Z</time></trkpt><trkpt lat="45.9792762" lon="12.7450391"><ele>29.0</ele><time>2026-04-06T17:30:15.051Z</time></trkpt><trkpt lat="45.9791978" lon="12.7450366"><ele>29.0</ele><time>2026-04-06T17:30:17.051Z</time></trkpt><trkpt lat="45.9791657" lon="12.7451662"><ele>28.999999999999996</ele><time>2026-04-06T17:30:19.052Z</time></trkpt><trkpt lat="45.979173" lon="12.7452642"><ele>29.0</ele><time>2026-04-06T17:30:20.051Z</time></trkpt><trkpt lat="45.97918" lon="12.7453582"><ele>29.0</ele><time>2026-04-06T17:30:21.051Z</time></trkpt><trkpt lat="45.9791897" lon="12.7454993"><ele>29.0</ele><time>2026-04-06T17:30:23.051Z</time></trkpt><trkpt lat="45.9791692" lon="12.745622"><ele>28.999999999999996</ele><time>2026-04-06T17:30:26.052Z</time></trkpt><trkpt lat="45.9791062" lon="12.745673"><ele>29.0</ele><time>2026-04-06T17:30:28.051Z</time></trkpt><trkpt lat="45.9790216" lon="12.7457148"><ele>28.999999999999996</ele><time>2026-04-06T17:30:30.052Z</time></trkpt><trkpt lat="45.9789708" lon="12.745795"><ele>29.0</ele><time>2026-04-06T17:30:32.052Z</time></trkpt><trkpt lat="45.978947" lon="12.7459268"><ele>29.0</ele><time>2026-04-06T17:30:34.053Z</time></trkpt><trkpt lat="45.9789023" lon="12.7460727"><ele>29.0</ele><time>2026-04-06T17:30:36.052Z</time></trkpt><trkpt lat="45.9788304" lon="12.7460987"><ele>28.999999999999996</ele><time>2026-04-06T17:30:38.051Z</time></trkpt><trkpt lat="45.9788065" lon="12.7459852"><ele>29.0</ele><time>2026-04-06T17:30:40.051Z</time></trkpt><trkpt lat="45.978828" lon="12.7458333"><ele>29.0</ele><time>2026-04-06T17:30:42.052Z</time></trkpt><trkpt lat="45.978856" lon="12.745706"><ele>29.0</ele><time>2026-04-06T17:30:44.052Z</time></trkpt><trkpt lat="45.9789215" lon="12.745573"><ele>29.0</ele><time>2026-04-06T17:30:46.052Z</time></trkpt><trkpt lat="45.9789909" lon="12.7454882"><ele>29.0</ele><time>2026-04-06T17:30:48.051Z</time></trkpt><trkpt lat="45.979012" lon="12.7453935"><ele>29.0</ele><time>2026-04-06T17:30:50.051Z</time></trkpt><trkpt lat="45.9789182" lon="12.7453957"><ele>28.999999999999996</ele><time>2026-04-06T17:30:53.051Z</time></trkpt><trkpt lat="45.9788762" lon="12.7455188"><ele>29.0</ele><time>2026-04-06T17:30:55.051Z</time></trkpt><trkpt lat="45.9787917" lon="12.7455937"><ele>29.0</ele><time>2026-04-06T17:30:57.051Z</time></trkpt><trkpt lat="45.9786982" lon="12.7455945"><ele>29.0</ele><time>2026-04-06T17:30:59.052Z</time></trkpt><trkpt lat="45.9786166" lon="12.745574"><ele>28.999999999999996</ele><time>2026-04-06T17:31:01.052Z</time></trkpt><trkpt lat="45.9785424" lon="12.7455622"><ele>29.0</ele><time>2026-04-06T17:31:03.051Z</time></trkpt><trkpt lat="45.978456" lon="12.7455309"><ele>28.999999999999996</ele><time>2026-04-06T17:31:05.051Z</time></trkpt><trkpt lat="45.9784081" lon="12.7454673"><ele>29.0</ele><time>2026-04-06T17:31:07.053Z</time></trkpt><trkpt lat="45.9784155" lon="12.7453698"><ele>29.0</ele><time>2026-04-06T17:31:10.051Z</time></trkpt><trkpt lat="45.9784977" lon="12.7453102"><ele>29.0</ele><time>2026-04-06T17:31:14.051Z</time></trkpt><trkpt lat="45.9785878" lon="12.7453095"><ele>28.999999999999996</ele><time>2026-04-06T17:31:16.051Z</time></trkpt><trkpt lat="45.978701" lon="12.7452963"><ele>29.0</ele><time>2026-04-06T17:31:18.051Z</time></trkpt><trkpt lat="45.9787975" lon="12.7452701"><ele>28.999999999999996</ele><time>2026-04-06T17:31:20.052Z</time></trkpt><trkpt lat="45.978869" lon="12.7452403"><ele>29.0</ele><time>2026-04-06T17:31:22.051Z</time></trkpt><trkpt lat="45.9789614" lon="12.7451972"><ele>29.0</ele><time>2026-04-06T17:31:24.051Z</time></trkpt><trkpt lat="45.9790304" lon="12.7451153"><ele>29.0</ele><time>2026-04-06T17:31:26.053Z</time></trkpt><trkpt lat="45.9790481" lon="12.7449996"><ele>28.999999999999996</ele><time>2026-04-06T17:31:28.052Z</time></trkpt><trkpt lat="45.9790141" lon="12.7448804"><ele>29.0</ele><time>2026-04-06T17:31:30.051Z</time></trkpt><trkpt lat="45.9790324" lon="12.7447581"><ele>28.799999999999997</ele><time>2026-04-06T17:31:32.051Z</time></trkpt><trkpt lat="45.9790967" lon="12.7446819"><ele>28.599999999999998</ele><time>2026-04-06T17:31:34.051Z</time></trkpt><trkpt lat="45.9792009" lon="12.744741"><ele>28.4</ele><time>2026-04-06T17:31:36.052Z</time></trkpt><trkpt lat="45.9792772" lon="12.7446981"><ele>28.2</ele><time>2026-04-06T17:31:38.051Z</time></trkpt><trkpt lat="45.9792861" lon="12.7445601"><ele>28.0</ele><time>2026-04-06T17:31:40.051Z</time></trkpt><trkpt lat="45.9792214" lon="12.7444506"><ele>28.799999999999997</ele><time>2026-04-06T17:31:42.052Z</time></trkpt><trkpt lat="45.9791338" lon="12.7444205"><ele>29.599999999999998</ele><time>2026-04-06T17:31:44.052Z</time></trkpt><trkpt lat="45.9790516" lon="12.744486"><ele>30.400000000000002</ele><time>2026-04-06T17:31:46.052Z</time></trkpt><trkpt lat="45.9789779" lon="12.7445889"><ele>31.200000000000003</ele><time>2026-04-06T17:31:48.051Z</time></trkpt><trkpt lat="45.9789285" lon="12.7446857"><ele>32.0</ele><time>2026-04-06T17:31:50.051Z</time></trkpt><trkpt lat="45.9789056" lon="12.7448064"><ele>32.0</ele><time>2026-04-06T17:31:52.052Z</time></trkpt><trkpt lat="45.9788653" lon="12.7449353"><ele>32.0</ele><time>2026-04-06T17:31:54.051Z</time></trkpt><trkpt lat="45.9788053" lon="12.7450403"><ele>32.0</ele><time>2026-04-06T17:31:56.052Z</time></trkpt><trkpt lat="45.9787267" lon="12.7451139"><ele>32.0</ele><time>2026-04-06T17:31:58.053Z</time></trkpt><trkpt lat="45.9786143" lon="12.7451611"><ele>32.0</ele><time>2026-04-06T17:32:00.051Z</time></trkpt><trkpt lat="45.9785061" lon="12.7452154"><ele>32.2</ele><time>2026-04-06T17:32:02.053Z</time></trkpt><trkpt lat="45.9784041" lon="12.7452578"><ele>32.400000000000006</ele><time>2026-04-06T17:32:04.051Z</time></trkpt><trkpt lat="45.9783038" lon="12.7453139"><ele>32.599999999999994</ele><time>2026-04-06T17:32:06.051Z</time></trkpt><trkpt lat="45.9782465" lon="12.7454126"><ele>32.8</ele><time>2026-04-06T17:32:08.052Z</time></trkpt><trkpt lat="45.9782393" lon="12.7455603"><ele>33.0</ele><time>2026-04-06T17:32:10.051Z</time></trkpt><trkpt lat="45.9782416" lon="12.7457025"><ele>33.0</ele><time>2026-04-06T17:32:12.051Z</time></trkpt><trkpt lat="45.9782666" lon="12.7458292"><ele>33.0</ele><time>2026-04-06T17:32:14.051Z</time></trkpt><trkpt lat="45.9782751" lon="12.7459747"><ele>33.0</ele><time>2026-04-06T17:32:16.052Z</time></trkpt><trkpt lat="45.9782832" lon="12.7461336"><ele>33.0</ele><time>2026-04-06T17:32:18.052Z</time></trkpt><trkpt lat="45.9783054" lon="12.7462891"><ele>33.0</ele><time>2026-04-06T17:32:20.052Z</time></trkpt><trkpt lat="45.9783245" lon="12.7464353"><ele>32.199999999999996</ele><time>2026-04-06T17:32:22.051Z</time></trkpt><trkpt lat="45.9783658" lon="12.7465389"><ele>31.4</ele><time>2026-04-06T17:32:24.051Z</time></trkpt><trkpt lat="45.9784261" lon="12.7466384"><ele>30.599999999999998</ele><time>2026-04-06T17:32:26.051Z</time></trkpt><trkpt lat="45.9785147" lon="12.7467408"><ele>29.799999999999997</ele><time>2026-04-06T17:32:28.052Z</time></trkpt><trkpt lat="45.9785868" lon="12.7468674"><ele>29.0</ele><time>2026-04-06T17:32:30.051Z</time></trkpt><trkpt lat="45.9786604" lon="12.7469975"><ele>28.999999999999996</ele><time>2026-04-06T17:32:32.051Z</time></trkpt><trkpt lat="45.9787546" lon="12.7470886"><ele>29.0</ele><time>2026-04-06T17:32:34.051Z</time></trkpt><trkpt lat="45.9788319" lon="12.7471487"><ele>29.0</ele><time>2026-04-06T17:32:36.052Z</time></trkpt><trkpt lat="45.978905" lon="12.7471468"><ele>29.0</ele><time>2026-04-06T17:32:39.052Z</time></trkpt><trkpt lat="45.9789739" lon="12.7471031"><ele>28.999999999999996</ele><time>2026-04-06T17:32:42.052Z</time></trkpt><trkpt lat="45.9790363" lon="12.7470703"><ele>29.0</ele><time>2026-04-06T17:32:44.052Z</time></trkpt><trkpt lat="45.9791069" lon="12.7471024"><ele>28.999999999999996</ele><time>2026-04-06T17:32:46.051Z</time></trkpt><trkpt lat="45.9791419" lon="12.7472137"><ele>29.0</ele><time>2026-04-06T17:32:48.052Z</time></trkpt><trkpt lat="45.9791293" lon="12.7473071"><ele>29.0</ele><time>2026-04-06T17:32:49.052Z</time></trkpt><trkpt lat="45.9791334" lon="12.747436"><ele>29.0</ele><time>2026-04-06T17:32:51.051Z</time></trkpt><trkpt lat="45.9791657" lon="12.7475214"><ele>28.999999999999996</ele><time>2026-04-06T17:32:53.051Z</time></trkpt><trkpt lat="45.9792271" lon="12.7476069"><ele>29.0</ele><time>2026-04-06T17:32:55.052Z</time></trkpt><trkpt lat="45.9793144" lon="12.7476794"><ele>29.6</ele><time>2026-04-06T17:32:57.051Z</time></trkpt><trkpt lat="45.9794172" lon="12.7476971"><ele>30.2</ele><time>2026-04-06T17:32:59.052Z</time></trkpt><trkpt lat="45.9794592" lon="12.7476092"><ele>30.800000000000004</ele><time>2026-04-06T17:33:01.051Z</time></trkpt><trkpt lat="45.9794322" lon="12.7474961"><ele>31.400000000000002</ele><time>2026-04-06T17:33:03.052Z</time></trkpt><trkpt lat="45.9793573" lon="12.747407"><ele>32.0</ele><time>2026-04-06T17:33:05.053Z</time></trkpt><trkpt lat="45.9793362" lon="12.747254"><ele>32.0</ele><time>2026-04-06T17:33:07.051Z</time></trkpt><trkpt lat="45.9793457" lon="12.7471563"><ele>32.0</ele><time>2026-04-06T17:33:08.052Z</time></trkpt><trkpt lat="45.9793596" lon="12.7469967"><ele>32.0</ele><time>2026-04-06T17:33:10.052Z</time></trkpt><trkpt lat="45.9793865" lon="12.7468169"><ele>32.0</ele><time>2026-04-06T17:33:12.051Z</time></trkpt><trkpt lat="45.9794114" lon="12.7466617"><ele>32.0</ele><time>2026-04-06T17:33:14.052Z</time></trkpt><trkpt lat="45.9794148" lon="12.7464742"><ele>31.666666666666664</ele><time>2026-04-06T17:33:16.051Z</time></trkpt><trkpt lat="45.9794147" lon="12.7463693"><ele>31.333333333333332</ele><time>2026-04-06T17:33:17.052Z</time></trkpt><trkpt lat="45.9794055" lon="12.7462723"><ele>31.0</ele><time>2026-04-06T17:33:18.052Z</time></trkpt><trkpt lat="45.9793953" lon="12.7461523"><ele>30.666666666666664</ele><time>2026-04-06T17:33:19.052Z</time></trkpt><trkpt lat="45.9793818" lon="12.7460165"><ele>30.333333333333332</ele><time>2026-04-06T17:33:20.053Z</time></trkpt><trkpt lat="45.9793737" lon="12.7458628"><ele>30.0</ele><time>2026-04-06T17:33:21.052Z</time></trkpt><trkpt lat="45.9793754" lon="12.7457092"><ele>29.833333333333332</ele><time>2026-04-06T17:33:22.052Z</time></trkpt><trkpt lat="45.9793791" lon="12.745569"><ele>29.666666666666664</ele><time>2026-04-06T17:33:23.052Z</time></trkpt><trkpt lat="45.9793745" lon="12.7454535"><ele>29.5</ele><time>2026-04-06T17:33:24.053Z</time></trkpt><trkpt lat="45.9793658" lon="12.7453556"><ele>29.333333333333332</ele><time>2026-04-06T17:33:25.053Z</time></trkpt><trkpt lat="45.9793464" lon="12.745258"><ele>29.166666666666664</ele><time>2026-04-06T17:33:26.053Z</time></trkpt><trkpt lat="45.9793031" lon="12.7451039"><ele>29.0</ele><time>2026-04-06T17:33:28.052Z</time></trkpt><trkpt lat="45.9792444" lon="12.7450237"><ele>29.0</ele><time>2026-04-06T17:33:30.051Z</time></trkpt><trkpt lat="45.9791776" lon="12.7450804"><ele>29.0</ele><time>2026-04-06T17:33:32.052Z</time></trkpt><trkpt lat="45.9791766" lon="12.7452341"><ele>29.0</ele><time>2026-04-06T17:33:34.052Z</time></trkpt><trkpt lat="45.9791893" lon="12.7453973"><ele>29.0</ele><time>2026-04-06T17:33:36.051Z</time></trkpt><trkpt lat="45.9791937" lon="12.745528"><ele>29.0</ele><time>2026-04-06T17:33:38.052Z</time></trkpt><trkpt lat="45.979168" lon="12.7456154"><ele>28.999999999999996</ele><time>2026-04-06T17:33:40.051Z</time></trkpt><trkpt lat="45.9791061" lon="12.7456685"><ele>29.0</ele><time>2026-04-06T17:33:42.052Z</time></trkpt><trkpt lat="45.9790227" lon="12.7457104"><ele>29.0</ele><time>2026-04-06T17:33:44.052Z</time></trkpt><trkpt lat="45.9789711" lon="12.7457846"><ele>29.0</ele><time>2026-04-06T17:33:46.052Z</time></trkpt><trkpt lat="45.9789484" lon="12.7459174"><ele>28.999999999999996</ele><time>2026-04-06T17:33:48.051Z</time></trkpt><trkpt lat="45.9789008" lon="12.7460585"><ele>29.0</ele><time>2026-04-06T17:33:50.052Z</time></trkpt><trkpt lat="45.9788346" lon="12.7461065"><ele>29.0</ele><time>2026-04-06T17:33:52.051Z</time></trkpt><trkpt lat="45.9788006" lon="12.7460023"><ele>29.0</ele><time>2026-04-06T17:33:54.051Z</time></trkpt><trkpt lat="45.9788233" lon="12.7458533"><ele>29.0</ele><time>2026-04-06T17:33:56.053Z</time></trkpt><trkpt lat="45.9788513" lon="12.7457181"><ele>29.0</ele><time>2026-04-06T17:33:58.052Z</time></trkpt><trkpt lat="45.9789146" lon="12.7455997"><ele>29.0</ele><time>2026-04-06T17:34:00.051Z</time></trkpt><trkpt lat="45.9789852" lon="12.7455078"><ele>28.999999999999996</ele><time>2026-04-06T17:34:02.052Z</time></trkpt><trkpt lat="45.9790131" lon="12.7454141"><ele>29.0</ele><time>2026-04-06T17:34:04.052Z</time></trkpt><trkpt lat="45.9789342" lon="12.7453826"><ele>29.0</ele><time>2026-04-06T17:34:07.051Z</time></trkpt><trkpt lat="45.978891" lon="12.7454847"><ele>29.0</ele><time>2026-04-06T17:34:09.053Z</time></trkpt><trkpt lat="45.9788219" lon="12.7455633"><ele>28.999999999999996</ele><time>2026-04-06T17:34:11.053Z</time></trkpt><trkpt lat="45.9787329" lon="12.7455994"><ele>29.0</ele><time>2026-04-06T17:34:13.051Z</time></trkpt><trkpt lat="45.9786482" lon="12.7455792"><ele>28.999999999999996</ele><time>2026-04-06T17:34:15.051Z</time></trkpt><trkpt lat="45.9785676" lon="12.7455696"><ele>29.0</ele><time>2026-04-06T17:34:17.051Z</time></trkpt><trkpt lat="45.9784876" lon="12.7455522"><ele>29.0</ele><time>2026-04-06T17:34:19.051Z</time></trkpt><trkpt lat="45.9784166" lon="12.7455021"><ele>29.0</ele><time>2026-04-06T17:34:21.051Z</time></trkpt><trkpt lat="45.9784148" lon="12.7453842"><ele>28.999999999999996</ele><time>2026-04-06T17:34:24.051Z</time></trkpt><trkpt lat="45.9784871" lon="12.7453221"><ele>29.0</ele><time>2026-04-06T17:34:27.052Z</time></trkpt><trkpt lat="45.9785751" lon="12.7453207"><ele>29.0</ele><time>2026-04-06T17:34:29.051Z</time></trkpt><trkpt lat="45.97868" lon="12.7452919"><ele>29.0</ele><time>2026-04-06T17:34:31.051Z</time></trkpt><trkpt lat="45.978783" lon="12.7452747"><ele>29.0</ele><time>2026-04-06T17:34:33.051Z</time></trkpt><trkpt lat="45.9788748" lon="12.7452561"><ele>29.0</ele><time>2026-04-06T17:34:35.051Z</time></trkpt><trkpt lat="45.9789578" lon="12.7452076"><ele>29.0</ele><time>2026-04-06T17:34:37.052Z</time></trkpt><trkpt lat="45.9790385" lon="12.7451102"><ele>28.799999999999997</ele><time>2026-04-06T17:34:39.051Z</time></trkpt><trkpt lat="45.9790459" lon="12.7449804"><ele>28.599999999999998</ele><time>2026-04-06T17:34:41.053Z</time></trkpt><trkpt lat="45.9790165" lon="12.7448453"><ele>28.4</ele><time>2026-04-06T17:34:43.052Z</time></trkpt><trkpt lat="45.97904" lon="12.7447291"><ele>28.2</ele><time>2026-04-06T17:34:45.051Z</time></trkpt><trkpt lat="45.9791224" lon="12.744697"><ele>28.0</ele><time>2026-04-06T17:34:47.053Z</time></trkpt><trkpt lat="45.979223" lon="12.7447343"><ele>28.0</ele><time>2026-04-06T17:34:49.051Z</time></trkpt><trkpt lat="45.9792876" lon="12.744673"><ele>27.999999999999996</ele><time>2026-04-06T17:34:51.051Z</time></trkpt><trkpt lat="45.9792797" lon="12.744538"><ele>27.999999999999996</ele><time>2026-04-06T17:34:53.052Z</time></trkpt><trkpt lat="45.9791961" lon="12.7444396"><ele>28.0</ele><time>2026-04-06T17:34:55.051Z</time></trkpt><trkpt lat="45.9791104" lon="12.7444355"><ele>28.0</ele><time>2026-04-06T17:34:57.051Z</time></trkpt><trkpt lat="45.9790327" lon="12.7445107"><ele>28.799999999999997</ele><time>2026-04-06T17:34:59.052Z</time></trkpt><trkpt lat="45.9789625" lon="12.7446125"><ele>29.599999999999998</ele><time>2026-04-06T17:35:01.051Z</time></trkpt><trkpt lat="45.9789207" lon="12.7447195"><ele>30.400000000000002</ele><time>2026-04-06T17:35:03.051Z</time></trkpt><trkpt lat="45.9788942" lon="12.7448372"><ele>31.200000000000003</ele><time>2026-04-06T17:35:05.052Z</time></trkpt><trkpt lat="45.978848" lon="12.7449614"><ele>32.0</ele><time>2026-04-06T17:35:07.051Z</time></trkpt><trkpt lat="45.9787785" lon="12.7450657"><ele>32.0</ele><time>2026-04-06T17:35:09.051Z</time></trkpt><trkpt lat="45.9786943" lon="12.7451243"><ele>32.0</ele><time>2026-04-06T17:35:11.052Z</time></trkpt><trkpt lat="45.9785858" lon="12.7451693"><ele>32.0</ele><time>2026-04-06T17:35:13.051Z</time></trkpt><trkpt lat="45.9784903" lon="12.7452184"><ele>32.0</ele><time>2026-04-06T17:35:15.051Z</time></trkpt><trkpt lat="45.9783946" lon="12.7452595"><ele>32.0</ele><time>2026-04-06T17:35:17.052Z</time></trkpt><trkpt lat="45.9783039" lon="12.7453139"><ele>32.2</ele><time>2026-04-06T17:35:19.052Z</time></trkpt><trkpt lat="45.9782497" lon="12.7454049"><ele>32.400000000000006</ele><time>2026-04-06T17:35:21.053Z</time></trkpt><trkpt lat="45.9782358" lon="12.7455212"><ele>32.599999999999994</ele><time>2026-04-06T17:35:23.051Z</time></trkpt><trkpt lat="45.9782392" lon="12.7456559"><ele>32.8</ele><time>2026-04-06T17:35:25.051Z</time></trkpt><trkpt lat="45.9782561" lon="12.7457917"><ele>33.0</ele><time>2026-04-06T17:35:27.052Z</time></trkpt><trkpt lat="45.9782701" lon="12.7459328"><ele>32.6</ele><time>2026-04-06T17:35:29.052Z</time></trkpt><trkpt lat="45.9782729" lon="12.7460823"><ele>32.199999999999996</ele><time>2026-04-06T17:35:31.052Z</time></trkpt><trkpt lat="45.978294" lon="12.7462446"><ele>31.8</ele><time>2026-04-06T17:35:33.052Z</time></trkpt><trkpt lat="45.9783118" lon="12.7463933"><ele>31.4</ele><time>2026-04-06T17:35:35.051Z</time></trkpt><trkpt lat="45.9783486" lon="12.7465119"><ele>31.0</ele><time>2026-04-06T17:35:37.051Z</time></trkpt><trkpt lat="45.9784022" lon="12.7466134"><ele>30.6</ele><time>2026-04-06T17:35:39.053Z</time></trkpt><trkpt lat="45.97847" lon="12.7466993"><ele>30.200000000000003</ele><time>2026-04-06T17:35:41.051Z</time></trkpt><trkpt lat="45.9785546" lon="12.7468048"><ele>29.799999999999997</ele><time>2026-04-06T17:35:43.052Z</time></trkpt><trkpt lat="45.978622" lon="12.7469469"><ele>29.4</ele><time>2026-04-06T17:35:45.051Z</time></trkpt><trkpt lat="45.9786699" lon="12.7470147"><ele>29.0</ele><time>2026-04-06T17:35:46.051Z</time></trkpt><trkpt lat="45.9787635" lon="12.7471047"><ele>28.999999999999996</ele><time>2026-04-06T17:35:48.051Z</time></trkpt><trkpt lat="45.978842" lon="12.7471456"><ele>29.0</ele><time>2026-04-06T17:35:50.052Z</time></trkpt><trkpt lat="45.978908" lon="12.7471423"><ele>29.0</ele><time>2026-04-06T17:35:53.052Z</time></trkpt><trkpt lat="45.9789937" lon="12.7470829"><ele>29.0</ele><time>2026-04-06T17:35:56.051Z</time></trkpt><trkpt lat="45.9790724" lon="12.7470738"><ele>28.999999999999996</ele><time>2026-04-06T17:35:58.052Z</time></trkpt><trkpt lat="45.9791318" lon="12.7471487"><ele>29.0</ele><time>2026-04-06T17:36:00.051Z</time></trkpt><trkpt lat="45.97913" lon="12.7472989"><ele>28.999999999999996</ele><time>2026-04-06T17:36:02.051Z</time></trkpt><trkpt lat="45.9791341" lon="12.7474254"><ele>29.0</ele><time>2026-04-06T17:36:04.053Z</time></trkpt><trkpt lat="45.979166" lon="12.7475168"><ele>29.0</ele><time>2026-04-06T17:36:06.052Z</time></trkpt><trkpt lat="45.9792194" lon="12.7476041"><ele>29.0</ele><time>2026-04-06T17:36:08.052Z</time></trkpt><trkpt lat="45.9792984" lon="12.7476653"><ele>28.999999999999996</ele><time>2026-04-06T17:36:10.052Z</time></trkpt><trkpt lat="45.9793962" lon="12.7476949"><ele>29.0</ele><time>2026-04-06T17:36:12.051Z</time></trkpt><trkpt lat="45.9794544" lon="12.7476338"><ele>29.6</ele><time>2026-04-06T17:36:14.052Z</time></trkpt><trkpt lat="45.9794487" lon="12.7475275"><ele>30.2</ele><time>2026-04-06T17:36:16.052Z</time></trkpt><trkpt lat="45.9793795" lon="12.7474563"><ele>30.800000000000004</ele><time>2026-04-06T17:36:18.051Z</time></trkpt><trkpt lat="45.9793323" lon="12.7473279"><ele>31.400000000000002</ele><time>2026-04-06T17:36:20.051Z</time></trkpt><trkpt lat="45.9793403" lon="12.7471666"><ele>32.0</ele><time>2026-04-06T17:36:22.051Z</time></trkpt><trkpt lat="45.979358" lon="12.7469943"><ele>31.666666666666664</ele><time>2026-04-06T17:36:24.051Z</time></trkpt><trkpt lat="45.979384" lon="12.7468287"><ele>31.333333333333332</ele><time>2026-04-06T17:36:26.052Z</time></trkpt><trkpt lat="45.9794101" lon="12.7466769"><ele>31.0</ele><time>2026-04-06T17:36:28.053Z</time></trkpt><trkpt lat="45.9794154" lon="12.7465851"><ele>30.666666666666664</ele><time>2026-04-06T17:36:29.051Z</time></trkpt><trkpt lat="45.9794136" lon="12.7464813"><ele>30.333333333333332</ele><time>2026-04-06T17:36:30.051Z</time></trkpt><trkpt lat="45.9794129" lon="12.7463755"><ele>30.0</ele><time>2026-04-06T17:36:31.051Z</time></trkpt><trkpt lat="45.9794054" lon="12.7462734"><ele>30.0</ele><time>2026-04-06T17:36:32.051Z</time></trkpt><trkpt lat="45.9793942" lon="12.746167"><ele>30.0</ele><time>2026-04-06T17:36:33.053Z</time></trkpt><trkpt lat="45.979379" lon="12.7460592"><ele>30.0</ele><time>2026-04-06T17:36:34.052Z</time></trkpt><trkpt lat="45.9793685" lon="12.7459381"><ele>30.0</ele><time>2026-04-06T17:36:35.052Z</time></trkpt><trkpt lat="45.9793691" lon="12.7458014"><ele>30.0</ele><time>2026-04-06T17:36:36.053Z</time></trkpt><trkpt lat="45.9793745" lon="12.7456696"><ele>30.0</ele><time>2026-04-06T17:36:37.051Z</time></trkpt><trkpt lat="45.9793749" lon="12.745553"><ele>29.8</ele><time>2026-04-06T17:36:38.051Z</time></trkpt><trkpt lat="45.9793736" lon="12.7454499"><ele>29.6</ele><time>2026-04-06T17:36:39.053Z</time></trkpt><trkpt lat="45.9793421" lon="12.7452651"><ele>29.4</ele><time>2026-04-06T17:36:41.051Z</time></trkpt><trkpt lat="45.9793083" lon="12.7451096"><ele>29.2</ele><time>2026-04-06T17:36:43.051Z</time></trkpt><trkpt lat="45.9792538" lon="12.7450249"><ele>29.0</ele><time>2026-04-06T17:36:45.052Z</time></trkpt><trkpt lat="45.9791832" lon="12.7450674"><ele>29.0</ele><time>2026-04-06T17:36:47.053Z</time></trkpt><trkpt lat="45.979169" lon="12.7452176"><ele>29.0</ele><time>2026-04-06T17:36:49.051Z</time></trkpt><trkpt lat="45.9791859" lon="12.7453818"><ele>29.0</ele><time>2026-04-06T17:36:51.052Z</time></trkpt><trkpt lat="45.9791912" lon="12.7455132"><ele>29.0</ele><time>2026-04-06T17:36:53.053Z</time></trkpt><trkpt lat="45.9791691" lon="12.7456054"><ele>29.0</ele><time>2026-04-06T17:36:55.053Z</time></trkpt><trkpt lat="45.9791114" lon="12.7456618"><ele>28.999999999999996</ele><time>2026-04-06T17:36:57.051Z</time></trkpt><trkpt lat="45.9790189" lon="12.7457101"><ele>29.0</ele><time>2026-04-06T17:36:59.052Z</time></trkpt><trkpt lat="45.9789701" lon="12.7457939"><ele>29.0</ele><time>2026-04-06T17:37:01.051Z</time></trkpt><trkpt lat="45.9789493" lon="12.7459191"><ele>29.0</ele><time>2026-04-06T17:37:03.051Z</time></trkpt><trkpt lat="45.9789101" lon="12.7460606"><ele>28.999999999999996</ele><time>2026-04-06T17:37:05.053Z</time></trkpt><trkpt lat="45.9788389" lon="12.7461002"><ele>29.0</ele><time>2026-04-06T17:37:07.051Z</time></trkpt><trkpt lat="45.9788094" lon="12.7460055"><ele>29.0</ele><time>2026-04-06T17:37:09.051Z</time></trkpt><trkpt lat="45.9788259" lon="12.7458417"><ele>29.0</ele><time>2026-04-06T17:37:11.052Z</time></trkpt><trkpt lat="45.978854" lon="12.7457003"><ele>29.0</ele><time>2026-04-06T17:37:13.052Z</time></trkpt><trkpt lat="45.9789128" lon="12.7455822"><ele>29.0</ele><time>2026-04-06T17:37:15.052Z</time></trkpt><trkpt lat="45.9789866" lon="12.7454834"><ele>29.0</ele><time>2026-04-06T17:37:17.053Z</time></trkpt><trkpt lat="45.9790182" lon="12.7453874"><ele>28.999999999999996</ele><time>2026-04-06T17:37:19.052Z</time></trkpt><trkpt lat="45.9789583" lon="12.7453539"><ele>29.0</ele><time>2026-04-06T17:37:21.051Z</time></trkpt><trkpt lat="45.9789042" lon="12.7454423"><ele>29.0</ele><time>2026-04-06T17:37:23.053Z</time></trkpt><trkpt lat="45.9788604" lon="12.7455415"><ele>29.0</ele><time>2026-04-06T17:37:25.053Z</time></trkpt><trkpt lat="45.9787659" lon="12.7455891"><ele>28.999999999999996</ele><time>2026-04-06T17:37:27.052Z</time></trkpt><trkpt lat="45.9786732" lon="12.7455908"><ele>29.0</ele><time>2026-04-06T17:37:29.051Z</time></trkpt><trkpt lat="45.9785961" lon="12.7455711"><ele>28.999999999999996</ele><time>2026-04-06T17:37:31.051Z</time></trkpt><trkpt lat="45.978518" lon="12.7455549"><ele>29.0</ele><time>2026-04-06T17:37:33.051Z</time></trkpt><trkpt lat="45.9784381" lon="12.7455129"><ele>29.0</ele><time>2026-04-06T17:37:35.052Z</time></trkpt><trkpt lat="45.9784006" lon="12.7454353"><ele>29.0</ele><time>2026-04-06T17:37:37.051Z</time></trkpt><trkpt lat="45.9784438" lon="12.7453345"><ele>28.999999999999996</ele><time>2026-04-06T17:37:40.051Z</time></trkpt><trkpt lat="45.9785081" lon="12.7453147"><ele>29.0</ele><time>2026-04-06T17:37:42.051Z</time></trkpt><trkpt lat="45.9785919" lon="12.745312"><ele>29.0</ele><time>2026-04-06T17:37:44.052Z</time></trkpt><trkpt lat="45.9786963" lon="12.7452997"><ele>29.0</ele><time>2026-04-06T17:37:46.052Z</time></trkpt><trkpt lat="45.9787826" lon="12.7452792"><ele>29.0</ele><time>2026-04-06T17:37:48.052Z</time></trkpt><trkpt lat="45.9788734" lon="12.7452468"><ele>29.0</ele><time>2026-04-06T17:37:50.053Z</time></trkpt><trkpt lat="45.9789537" lon="12.7452031"><ele>29.0</ele><time>2026-04-06T17:37:52.051Z</time></trkpt><trkpt lat="45.9790265" lon="12.7451281"><ele>28.833333333333332</ele><time>2026-04-06T17:37:54.052Z</time></trkpt><trkpt lat="45.9790438" lon="12.7449863"><ele>28.666666666666664</ele><time>2026-04-06T17:37:57.052Z</time></trkpt><trkpt lat="45.9790113" lon="12.7448691"><ele>28.5</ele><time>2026-04-06T17:37:59.052Z</time></trkpt><trkpt lat="45.9790234" lon="12.7447603"><ele>28.333333333333336</ele><time>2026-04-06T17:38:01.051Z</time></trkpt><trkpt lat="45.9790839" lon="12.7447103"><ele>28.166666666666668</ele><time>2026-04-06T17:38:03.051Z</time></trkpt><trkpt lat="45.9791625" lon="12.7447253"><ele>28.0</ele><time>2026-04-06T17:38:05.052Z</time></trkpt><trkpt lat="45.979231" lon="12.7447405"><ele>28.000000000000004</ele><time>2026-04-06T17:38:07.052Z</time></trkpt><trkpt lat="45.9792794" lon="12.7446563"><ele>28.0</ele><time>2026-04-06T17:38:09.051Z</time></trkpt><trkpt lat="45.9792658" lon="12.7445434"><ele>28.0</ele><time>2026-04-06T17:38:11.052Z</time></trkpt><trkpt lat="45.9792058" lon="12.7444346"><ele>28.0</ele><time>2026-04-06T17:38:13.051Z</time></trkpt><trkpt lat="45.9791219" lon="12.744418"><ele>28.000000000000004</ele><time>2026-04-06T17:38:15.052Z</time></trkpt><trkpt lat="45.9790543" lon="12.7444727"><ele>28.0</ele><time>2026-04-06T17:38:17.052Z</time></trkpt><trkpt lat="45.978984" lon="12.7445741"><ele>28.799999999999997</ele><time>2026-04-06T17:38:19.052Z</time></trkpt><trkpt lat="45.9789312" lon="12.7446811"><ele>29.599999999999998</ele><time>2026-04-06T17:38:21.052Z</time></trkpt><trkpt lat="45.9789013" lon="12.7448059"><ele>30.400000000000002</ele><time>2026-04-06T17:38:23.051Z</time></trkpt><trkpt lat="45.9788669" lon="12.7449353"><ele>31.200000000000003</ele><time>2026-04-06T17:38:25.051Z</time></trkpt><trkpt lat="45.9788004" lon="12.7450485"><ele>32.0</ele><time>2026-04-06T17:38:27.052Z</time></trkpt><trkpt lat="45.9787186" lon="12.7451231"><ele>32.0</ele><time>2026-04-06T17:38:29.051Z</time></trkpt><trkpt lat="45.9785972" lon="12.7451773"><ele>32.0</ele><time>2026-04-06T17:38:31.051Z</time></trkpt><trkpt lat="45.978491" lon="12.7452224"><ele>32.0</ele><time>2026-04-06T17:38:33.052Z</time></trkpt><trkpt lat="45.9783903" lon="12.7452703"><ele>32.0</ele><time>2026-04-06T17:38:35.052Z</time></trkpt><trkpt lat="45.9782951" lon="12.7453268"><ele>32.0</ele><time>2026-04-06T17:38:37.051Z</time></trkpt><trkpt lat="45.9782385" lon="12.7454243"><ele>32.2</ele><time>2026-04-06T17:38:39.051Z</time></trkpt><trkpt lat="45.9782354" lon="12.7455745"><ele>32.400000000000006</ele><time>2026-04-06T17:38:41.051Z</time></trkpt><trkpt lat="45.9782424" lon="12.7457224"><ele>32.599999999999994</ele><time>2026-04-06T17:38:43.051Z</time></trkpt><trkpt lat="45.978263" lon="12.7458631"><ele>32.8</ele><time>2026-04-06T17:38:45.051Z</time></trkpt><trkpt lat="45.9782756" lon="12.7460176"><ele>33.0</ele><time>2026-04-06T17:38:47.051Z</time></trkpt><trkpt lat="45.9782855" lon="12.7461865"><ele>32.6</ele><time>2026-04-06T17:38:49.052Z</time></trkpt><trkpt lat="45.9782973" lon="12.7462756"><ele>32.199999999999996</ele><time>2026-04-06T17:38:50.051Z</time></trkpt><trkpt lat="45.9783185" lon="12.7464187"><ele>31.8</ele><time>2026-04-06T17:38:52.052Z</time></trkpt><trkpt lat="45.9783594" lon="12.7465373"><ele>31.4</ele><time>2026-04-06T17:38:54.052Z</time></trkpt><trkpt lat="45.9784238" lon="12.7466367"><ele>31.0</ele><time>2026-04-06T17:38:56.052Z</time></trkpt><trkpt lat="45.9785123" lon="12.7467416"><ele>30.6</ele><time>2026-04-06T17:38:58.051Z</time></trkpt><trkpt lat="45.9785919" lon="12.7468665"><ele>30.200000000000003</ele><time>2026-04-06T17:39:00.051Z</time></trkpt><trkpt lat="45.9786303" lon="12.7469389"><ele>29.799999999999997</ele><time>2026-04-06T17:39:01.052Z</time></trkpt><trkpt lat="45.9787161" lon="12.747055"><ele>29.4</ele><time>2026-04-06T17:39:03.052Z</time></trkpt><trkpt lat="45.9787998" lon="12.7471241"><ele>29.0</ele><time>2026-04-06T17:39:05.051Z</time></trkpt><trkpt lat="45.9788613" lon="12.7471567"><ele>28.999999999999996</ele><time>2026-04-06T17:39:07.051Z</time></trkpt><trkpt lat="45.9789377" lon="12.7471182"><ele>29.0</ele><time>2026-04-06T17:39:11.053Z</time></trkpt><trkpt lat="45.978997" lon="12.7470809"><ele>29.0</ele><time>2026-04-06T17:39:13.053Z</time></trkpt><trkpt lat="45.9790827" lon="12.747071"><ele>29.0</ele><time>2026-04-06T17:39:15.051Z</time></trkpt><trkpt lat="45.9791251" lon="12.7471811"><ele>28.999999999999996</ele><time>2026-04-06T17:39:17.051Z</time></trkpt><trkpt lat="45.9791208" lon="12.7473267"><ele>29.0</ele><time>2026-04-06T17:39:19.051Z</time></trkpt><trkpt lat="45.9791356" lon="12.7474454"><ele>28.999999999999996</ele><time>2026-04-06T17:39:21.051Z</time></trkpt><trkpt lat="45.9791677" lon="12.7475311"><ele>29.0</ele><time>2026-04-06T17:39:23.053Z</time></trkpt><trkpt lat="45.9792295" lon="12.747617"><ele>29.0</ele><time>2026-04-06T17:39:25.053Z</time></trkpt><trkpt lat="45.9793154" lon="12.74767"><ele>29.0</ele><time>2026-04-06T17:39:27.052Z</time></trkpt><trkpt lat="45.9794037" lon="12.7476896"><ele>28.999999999999996</ele><time>2026-04-06T17:39:29.052Z</time></trkpt><trkpt lat="45.9794577" lon="12.747635"><ele>29.0</ele><time>2026-04-06T17:39:31.053Z</time></trkpt><trkpt lat="45.9794566" lon="12.7475292"><ele>29.6</ele><time>2026-04-06T17:39:33.052Z</time></trkpt><trkpt lat="45.9793945" lon="12.7474558"><ele>30.2</ele><time>2026-04-06T17:39:35.051Z</time></trkpt><trkpt lat="45.9793311" lon="12.7473364"><ele>30.800000000000004</ele><time>2026-04-06T17:39:37.051Z</time></trkpt><trkpt lat="45.9793394" lon="12.7471773"><ele>31.400000000000002</ele><time>2026-04-06T17:39:39.051Z</time></trkpt><trkpt lat="45.9793447" lon="12.7470857"><ele>32.0</ele><time>2026-04-06T17:39:40.052Z</time></trkpt><trkpt lat="45.9793639" lon="12.7469302"><ele>31.666666666666664</ele><time>2026-04-06T17:39:42.052Z</time></trkpt><trkpt lat="45.9794" lon="12.7467669"><ele>31.333333333333332</ele><time>2026-04-06T17:39:44.052Z</time></trkpt><trkpt lat="45.9794213" lon="12.7466132"><ele>31.0</ele><time>2026-04-06T17:39:46.052Z</time></trkpt><trkpt lat="45.9794195" lon="12.7465128"><ele>30.666666666666664</ele><time>2026-04-06T17:39:47.051Z</time></trkpt><trkpt lat="45.9794196" lon="12.7464053"><ele>30.333333333333332</ele><time>2026-04-06T17:39:48.051Z</time></trkpt><trkpt lat="45.9794106" lon="12.7463051"><ele>30.0</ele><time>2026-04-06T17:39:49.051Z</time></trkpt><trkpt lat="45.9793998" lon="12.7461959"><ele>30.0</ele><time>2026-04-06T17:39:50.051Z</time></trkpt><trkpt lat="45.9793868" lon="12.7460753"><ele>30.0</ele><time>2026-04-06T17:39:51.051Z</time></trkpt><trkpt lat="45.9793761" lon="12.7459398"><ele>30.0</ele><time>2026-04-06T17:39:52.052Z</time></trkpt><trkpt lat="45.9793748" lon="12.7457869"><ele>30.0</ele><time>2026-04-06T17:39:53.052Z</time></trkpt><trkpt lat="45.9793789" lon="12.7456444"><ele>30.0</ele><time>2026-04-06T17:39:54.051Z</time></trkpt><trkpt lat="45.9793782" lon="12.745513"><ele>29.833333333333332</ele><time>2026-04-06T17:39:55.051Z</time></trkpt><trkpt lat="45.9793736" lon="12.745406"><ele>29.666666666666664</ele><time>2026-04-06T17:39:56.051Z</time></trkpt><trkpt lat="45.9793585" lon="12.7453113"><ele>29.5</ele><time>2026-04-06T17:39:57.051Z</time></trkpt><trkpt lat="45.979336" lon="12.7452241"><ele>29.333333333333332</ele><time>2026-04-06T17:39:58.051Z</time></trkpt><trkpt lat="45.9793014" lon="12.7450804"><ele>29.166666666666664</ele><time>2026-04-06T17:40:00.051Z</time></trkpt><trkpt lat="45.9792389" lon="12.7450192"><ele>29.0</ele><time>2026-04-06T17:40:02.051Z</time></trkpt><trkpt lat="45.9791808" lon="12.7450734"><ele>28.999999999999996</ele><time>2026-04-06T17:40:04.051Z</time></trkpt><trkpt lat="45.9791746" lon="12.7452226"><ele>29.0</ele><time>2026-04-06T17:40:06.051Z</time></trkpt><trkpt lat="45.9791838" lon="12.7453885"><ele>29.0</ele><time>2026-04-06T17:40:08.051Z</time></trkpt><trkpt lat="45.9791925" lon="12.7455198"><ele>29.0</ele><time>2026-04-06T17:40:10.052Z</time></trkpt><trkpt lat="45.9791693" lon="12.7456067"><ele>28.999999999999996</ele><time>2026-04-06T17:40:12.052Z</time></trkpt><trkpt lat="45.9791103" lon="12.7456599"><ele>29.0</ele><time>2026-04-06T17:40:14.052Z</time></trkpt><trkpt lat="45.9790234" lon="12.7457091"><ele>28.999999999999996</ele><time>2026-04-06T17:40:16.051Z</time></trkpt><trkpt lat="45.9789751" lon="12.7457859"><ele>29.0</ele><time>2026-04-06T17:40:18.052Z</time></trkpt><trkpt lat="45.9789486" lon="12.7459177"><ele>29.0</ele><time>2026-04-06T17:40:20.052Z</time></trkpt><trkpt lat="45.9789068" lon="12.7460518"><ele>29.0</ele><time>2026-04-06T17:40:22.051Z</time></trkpt><trkpt lat="45.9788388" lon="12.7461165"><ele>28.999999999999996</ele><time>2026-04-06T17:40:24.052Z</time></trkpt><trkpt lat="45.9787852" lon="12.746031"><ele>29.0</ele><time>2026-04-06T17:40:26.052Z</time></trkpt><trkpt lat="45.978823" lon="12.7459391"><ele>29.0</ele><time>2026-04-06T17:40:27.051Z</time></trkpt><trkpt lat="45.9788352" lon="12.7457815"><ele>29.0</ele><time>2026-04-06T17:40:29.052Z</time></trkpt><trkpt lat="45.9788811" lon="12.74566"><ele>29.0</ele><time>2026-04-06T17:40:31.051Z</time></trkpt><trkpt lat="45.9789457" lon="12.7455381"><ele>29.0</ele><time>2026-04-06T17:40:33.052Z</time></trkpt><trkpt lat="45.9790124" lon="12.7454511"><ele>29.0</ele><time>2026-04-06T17:40:35.051Z</time></trkpt><trkpt lat="45.9789844" lon="12.7453549"><ele>29.0</ele><time>2026-04-06T17:40:37.052Z</time></trkpt><trkpt lat="45.9789196" lon="12.7454018"><ele>29.0</ele><time>2026-04-06T17:40:39.051Z</time></trkpt><trkpt lat="45.9788725" lon="12.7455209"><ele>29.0</ele><time>2026-04-06T17:40:41.051Z</time></trkpt><trkpt lat="45.9787788" lon="12.7455858"><ele>29.0</ele><time>2026-04-06T17:40:43.051Z</time></trkpt><trkpt lat="45.9786836" lon="12.7455921"><ele>29.0</ele><time>2026-04-06T17:40:45.051Z</time></trkpt><trkpt lat="45.9785916" lon="12.7455733"><ele>28.999999999999996</ele><time>2026-04-06T17:40:47.052Z</time></trkpt><trkpt lat="45.9785118" lon="12.7455493"><ele>29.0</ele><time>2026-04-06T17:40:49.051Z</time></trkpt><trkpt lat="45.9784341" lon="12.7455087"><ele>29.0</ele><time>2026-04-06T17:40:51.053Z</time></trkpt><trkpt lat="45.9784189" lon="12.745383"><ele>29.0</ele><time>2026-04-06T17:40:54.052Z</time></trkpt><trkpt lat="45.9784922" lon="12.7453195"><ele>28.999999999999996</ele><time>2026-04-06T17:40:57.051Z</time></trkpt><trkpt lat="45.9785937" lon="12.7453144"><ele>29.0</ele><time>2026-04-06T17:40:59.052Z</time></trkpt><trkpt lat="45.9787004" lon="12.7452893"><ele>29.0</ele><time>2026-04-06T17:41:01.051Z</time></trkpt><trkpt lat="45.9788123" lon="12.7452598"><ele>29.0</ele><time>2026-04-06T17:41:03.051Z</time></trkpt><trkpt lat="45.9789065" lon="12.745223"><ele>29.0</ele><time>2026-04-06T17:41:05.051Z</time></trkpt><trkpt lat="45.9789919" lon="12.7451762"><ele>29.0</ele><time>2026-04-06T17:41:07.051Z</time></trkpt><trkpt lat="45.979046" lon="12.745071"><ele>29.0</ele><time>2026-04-06T17:41:09.051Z</time></trkpt><trkpt lat="45.9790447" lon="12.744951"><ele>28.833333333333332</ele><time>2026-04-06T17:41:11.051Z</time></trkpt><trkpt lat="45.9790152" lon="12.7448214"><ele>28.666666666666664</ele><time>2026-04-06T17:41:13.053Z</time></trkpt><trkpt lat="45.979056" lon="12.744713"><ele>28.5</ele><time>2026-04-06T17:41:15.052Z</time></trkpt><trkpt lat="45.9791395" lon="12.744697"><ele>28.333333333333336</ele><time>2026-04-06T17:41:17.052Z</time></trkpt><trkpt lat="45.9792422" lon="12.7447209"><ele>28.166666666666668</ele><time>2026-04-06T17:41:19.052Z</time></trkpt><trkpt lat="45.9792929" lon="12.7446416"><ele>28.0</ele><time>2026-04-06T17:41:21.051Z</time></trkpt><trkpt lat="45.9792746" lon="12.7445084"><ele>28.0</ele><time>2026-04-06T17:41:23.051Z</time></trkpt><trkpt lat="45.9791879" lon="12.7444229"><ele>27.999999999999996</ele><time>2026-04-06T17:41:25.052Z</time></trkpt><trkpt lat="45.9790977" lon="12.744445"><ele>27.999999999999996</ele><time>2026-04-06T17:41:27.052Z</time></trkpt><trkpt lat="45.9790181" lon="12.7445396"><ele>28.0</ele><time>2026-04-06T17:41:29.052Z</time></trkpt><trkpt lat="45.9789478" lon="12.7446388"><ele>28.0</ele><time>2026-04-06T17:41:31.051Z</time></trkpt><trkpt lat="45.9789111" lon="12.744752"><ele>28.799999999999997</ele><time>2026-04-06T17:41:33.051Z</time></trkpt><trkpt lat="45.9788836" lon="12.744878"><ele>29.599999999999998</ele><time>2026-04-06T17:41:35.051Z</time></trkpt><trkpt lat="45.9788316" lon="12.7449895"><ele>30.400000000000002</ele><time>2026-04-06T17:41:37.051Z</time></trkpt><trkpt lat="45.9787691" lon="12.7450806"><ele>31.200000000000003</ele><time>2026-04-06T17:41:39.051Z</time></trkpt><trkpt lat="45.9786743" lon="12.7451378"><ele>32.0</ele><time>2026-04-06T17:41:41.052Z</time></trkpt><trkpt lat="45.9785582" lon="12.7451886"><ele>32.2</ele><time>2026-04-06T17:41:43.053Z</time></trkpt><trkpt lat="45.9784455" lon="12.7452424"><ele>32.400000000000006</ele><time>2026-04-06T17:41:45.051Z</time></trkpt><trkpt lat="45.978342" lon="12.7452939"><ele>32.599999999999994</ele><time>2026-04-06T17:41:47.051Z</time></trkpt><trkpt lat="45.9782621" lon="12.745361"><ele>32.8</ele><time>2026-04-06T17:41:49.052Z</time></trkpt><trkpt lat="45.978235" lon="12.7454883"><ele>33.0</ele><time>2026-04-06T17:41:51.052Z</time></trkpt><trkpt lat="45.9782369" lon="12.7456304"><ele>33.0</ele><time>2026-04-06T17:41:53.052Z</time></trkpt><trkpt lat="45.9782486" lon="12.7457682"><ele>33.0</ele><time>2026-04-06T17:41:55.051Z</time></trkpt><trkpt lat="45.9782638" lon="12.7459084"><ele>33.0</ele><time>2026-04-06T17:41:57.051Z</time></trkpt><trkpt lat="45.9782749" lon="12.7460593"><ele>33.0</ele><time>2026-04-06T17:41:59.051Z</time></trkpt><trkpt lat="45.9782899" lon="12.7462155"><ele>33.0</ele><time>2026-04-06T17:42:01.051Z</time></trkpt><trkpt lat="45.9783125" lon="12.7463717"><ele>32.6</ele><time>2026-04-06T17:42:03.051Z</time></trkpt><trkpt lat="45.97834" lon="12.7464929"><ele>32.199999999999996</ele><time>2026-04-06T17:42:05.051Z</time></trkpt><trkpt lat="45.9783955" lon="12.7465902"><ele>31.8</ele><time>2026-04-06T17:42:07.051Z</time></trkpt><trkpt lat="45.9784715" lon="12.7466943"><ele>31.4</ele><time>2026-04-06T17:42:09.051Z</time></trkpt><trkpt lat="45.9785456" lon="12.7467962"><ele>31.0</ele><time>2026-04-06T17:42:11.051Z</time></trkpt><trkpt lat="45.9786289" lon="12.7469357"><ele>30.666666666666668</ele><time>2026-04-06T17:42:13.051Z</time></trkpt><trkpt lat="45.9786739" lon="12.7470026"><ele>30.333333333333336</ele><time>2026-04-06T17:42:14.052Z</time></trkpt><trkpt lat="45.9787552" lon="12.7470985"><ele>30.0</ele><time>2026-04-06T17:42:16.051Z</time></trkpt><trkpt lat="45.9788316" lon="12.7471462"><ele>29.666666666666664</ele><time>2026-04-06T17:42:18.052Z</time></trkpt><trkpt lat="45.9789089" lon="12.7471417"><ele>29.333333333333332</ele><time>2026-04-06T17:42:21.052Z</time></trkpt><trkpt lat="45.978987" lon="12.7470903"><ele>29.0</ele><time>2026-04-06T17:42:24.051Z</time></trkpt><trkpt lat="45.9790646" lon="12.7470665"><ele>28.999999999999996</ele><time>2026-04-06T17:42:26.053Z</time></trkpt><trkpt lat="45.9791321" lon="12.7471128"><ele>29.0</ele><time>2026-04-06T17:42:28.052Z</time></trkpt><trkpt lat="45.9791304" lon="12.7472112"><ele>29.0</ele><time>2026-04-06T17:42:29.051Z</time></trkpt><trkpt lat="45.9791242" lon="12.747356"><ele>29.0</ele><time>2026-04-06T17:42:31.051Z</time></trkpt><trkpt lat="45.979145" lon="12.7474667"><ele>28.999999999999996</ele><time>2026-04-06T17:42:33.052Z</time></trkpt><trkpt lat="45.9791946" lon="12.7475455"><ele>29.0</ele><time>2026-04-06T17:42:35.051Z</time></trkpt><trkpt lat="45.9792657" lon="12.7476358"><ele>29.499999999999996</ele><time>2026-04-06T17:42:37.052Z</time></trkpt><trkpt lat="45.9793521" lon="12.7476746"><ele>30.0</ele><time>2026-04-06T17:42:39.051Z</time></trkpt><trkpt lat="45.9794238" lon="12.7476799"><ele>30.5</ele><time>2026-04-06T17:42:41.051Z</time></trkpt><trkpt lat="45.979462" lon="12.7475926"><ele>31.0</ele><time>2026-04-06T17:42:43.052Z</time></trkpt><trkpt lat="45.9794371" lon="12.747495"><ele>31.499999999999996</ele><time>2026-04-06T17:42:45.051Z</time></trkpt><trkpt lat="45.9793578" lon="12.7474115"><ele>32.0</ele><time>2026-04-06T17:42:47.051Z</time></trkpt><trkpt lat="45.9793287" lon="12.7472784"><ele>32.0</ele><time>2026-04-06T17:42:49.051Z</time></trkpt><trkpt lat="45.9793476" lon="12.7471039"><ele>32.0</ele><time>2026-04-06T17:42:51.051Z</time></trkpt><trkpt lat="45.9793652" lon="12.7469402"><ele>32.0</ele><time>2026-04-06T17:42:53.052Z</time></trkpt><trkpt lat="45.979394" lon="12.7467857"><ele>32.0</ele><time>2026-04-06T17:42:55.053Z</time></trkpt><trkpt lat="45.979416" lon="12.7466251"><ele>31.6</ele><time>2026-04-06T17:42:57.051Z</time></trkpt><trkpt lat="45.9794165" lon="12.7464313"><ele>31.200000000000003</ele><time>2026-04-06T17:42:59.052Z</time></trkpt><trkpt lat="45.9794148" lon="12.7463233"><ele>30.8</ele><time>2026-04-06T17:43:00.051Z</time></trkpt><trkpt lat="45.9794039" lon="12.7462039"><ele>30.4</ele><time>2026-04-06T17:43:01.052Z</time></trkpt><trkpt lat="45.9793869" lon="12.7460617"><ele>30.0</ele><time>2026-04-06T17:43:02.051Z</time></trkpt><trkpt lat="45.9793759" lon="12.7458954"><ele>29.833333333333332</ele><time>2026-04-06T17:43:03.051Z</time></trkpt><trkpt lat="45.9793752" lon="12.745737"><ele>29.666666666666664</ele><time>2026-04-06T17:43:04.051Z</time></trkpt><trkpt lat="45.9793776" lon="12.7456156"><ele>29.5</ele><time>2026-04-06T17:43:05.051Z</time></trkpt><trkpt lat="45.9793784" lon="12.7455177"><ele>29.333333333333332</ele><time>2026-04-06T17:43:06.051Z</time></trkpt><trkpt lat="45.9793731" lon="12.745427"><ele>29.166666666666664</ele><time>2026-04-06T17:43:07.052Z</time></trkpt><trkpt lat="45.9793437" lon="12.7452639"><ele>29.0</ele><time>2026-04-06T17:43:09.051Z</time></trkpt><trkpt lat="45.9793077" lon="12.7451058"><ele>28.999999999999996</ele><time>2026-04-06T17:43:11.051Z</time></trkpt><trkpt lat="45.9792491" lon="12.7450266"><ele>29.0</ele><time>2026-04-06T17:43:13.052Z</time></trkpt><trkpt lat="45.9791827" lon="12.7450777"><ele>29.0</ele><time>2026-04-06T17:43:15.051Z</time></trkpt><trkpt lat="45.9791722" lon="12.7452104"><ele>29.0</ele><time>2026-04-06T17:43:17.053Z</time></trkpt><trkpt lat="45.9791849" lon="12.745363"><ele>28.999999999999996</ele><time>2026-04-06T17:43:19.051Z</time></trkpt><trkpt lat="45.9791909" lon="12.7454553"><ele>29.0</ele><time>2026-04-06T17:43:20.052Z</time></trkpt><trkpt lat="45.9791879" lon="12.7455666"><ele>28.999999999999996</ele><time>2026-04-06T17:43:22.052Z</time></trkpt><trkpt lat="45.9791428" lon="12.7456398"><ele>29.0</ele><time>2026-04-06T17:43:24.052Z</time></trkpt><trkpt lat="45.9790528" lon="12.7456883"><ele>29.0</ele><time>2026-04-06T17:43:26.051Z</time></trkpt><trkpt lat="45.9789867" lon="12.7457518"><ele>29.0</ele><time>2026-04-06T17:43:28.051Z</time></trkpt><trkpt lat="45.9789572" lon="12.7458749"><ele>28.999999999999996</ele><time>2026-04-06T17:43:30.051Z</time></trkpt><trkpt lat="45.9789138" lon="12.7460222"><ele>29.0</ele><time>2026-04-06T17:43:32.052Z</time></trkpt><trkpt lat="45.9788562" lon="12.7461087"><ele>29.0</ele><time>2026-04-06T17:43:34.052Z</time></trkpt><trkpt lat="45.9788008" lon="12.746036"><ele>29.0</ele><time>2026-04-06T17:43:36.052Z</time></trkpt><trkpt lat="45.9788183" lon="12.7458767"><ele>29.0</ele><time>2026-04-06T17:43:38.052Z</time></trkpt><trkpt lat="45.9788428" lon="12.7457389"><ele>29.0</ele><time>2026-04-06T17:43:40.052Z</time></trkpt><trkpt lat="45.9788971" lon="12.7456349"><ele>29.0</ele><time>2026-04-06T17:43:42.053Z</time></trkpt><trkpt lat="45.9789622" lon="12.7455345"><ele>28.999999999999996</ele><time>2026-04-06T17:43:44.052Z</time></trkpt><trkpt lat="45.9790171" lon="12.745438"><ele>29.0</ele><time>2026-04-06T17:43:46.051Z</time></trkpt><trkpt lat="45.9789825" lon="12.7453541"><ele>29.0</ele><time>2026-04-06T17:43:48.051Z</time></trkpt><trkpt lat="45.9789129" lon="12.7454055"><ele>29.0</ele><time>2026-04-06T17:43:50.051Z</time></trkpt><trkpt lat="45.9788734" lon="12.7455254"><ele>28.999999999999996</ele><time>2026-04-06T17:43:52.052Z</time></trkpt><trkpt lat="45.9787806" lon="12.745594"><ele>29.0</ele><time>2026-04-06T17:43:54.051Z</time></trkpt><trkpt lat="45.978696" lon="12.7455954"><ele>28.999999999999996</ele><time>2026-04-06T17:43:56.052Z</time></trkpt><trkpt lat="45.9786074" lon="12.7455734"><ele>29.0</ele><time>2026-04-06T17:43:58.051Z</time></trkpt><trkpt lat="45.9785317" lon="12.7455615"><ele>29.0</ele><time>2026-04-06T17:44:00.052Z</time></trkpt><trkpt lat="45.9784505" lon="12.745524"><ele>29.0</ele><time>2026-04-06T17:44:02.051Z</time></trkpt><trkpt lat="45.9784122" lon="12.7454411"><ele>28.999999999999996</ele><time>2026-04-06T17:44:04.051Z</time></trkpt><trkpt lat="45.9784435" lon="12.7453457"><ele>29.0</ele><time>2026-04-06T17:44:07.053Z</time></trkpt><trkpt lat="45.9785076" lon="12.7453084"><ele>29.0</ele><time>2026-04-06T17:44:09.053Z</time></trkpt><trkpt lat="45.9785994" lon="12.7453149"><ele>29.0</ele><time>2026-04-06T17:44:11.051Z</time></trkpt><trkpt lat="45.9786999" lon="12.7452923"><ele>29.0</ele><time>2026-04-06T17:44:13.052Z</time></trkpt><trkpt lat="45.9787959" lon="12.7452707"><ele>29.0</ele><time>2026-04-06T17:44:15.051Z</time></trkpt><trkpt lat="45.9788833" lon="12.7452479"><ele>29.0</ele><time>2026-04-06T17:44:17.052Z</time></trkpt><trkpt lat="45.9789696" lon="12.7452014"><ele>29.6</ele><time>2026-04-06T17:44:19.052Z</time></trkpt><trkpt lat="45.9790476" lon="12.7450992"><ele>30.2</ele><time>2026-04-06T17:44:21.053Z</time></trkpt><trkpt lat="45.9790544" lon="12.744976"><ele>30.800000000000004</ele><time>2026-04-06T17:44:23.051Z</time></trkpt><trkpt lat="45.9790152" lon="12.7448514"><ele>31.400000000000002</ele><time>2026-04-06T17:44:25.052Z</time></trkpt><trkpt lat="45.9790318" lon="12.744739"><ele>32.0</ele><time>2026-04-06T17:44:27.052Z</time></trkpt><trkpt lat="45.9791097" lon="12.7446925"><ele>32.0</ele><time>2026-04-06T17:44:29.051Z</time></trkpt><trkpt lat="45.9792258" lon="12.7447323"><ele>32.0</ele><time>2026-04-06T17:44:31.052Z</time></trkpt><trkpt lat="45.9792925" lon="12.744681"><ele>32.0</ele><time>2026-04-06T17:44:33.051Z</time></trkpt><trkpt lat="45.9792965" lon="12.744557"><ele>32.0</ele><time>2026-04-06T17:44:35.051Z</time></trkpt><trkpt lat="45.9792293" lon="12.744451"><ele>32.0</ele><time>2026-04-06T17:44:37.051Z</time></trkpt><trkpt lat="45.9791437" lon="12.7444188"><ele>32.0</ele><time>2026-04-06T17:44:39.051Z</time></trkpt><trkpt lat="45.9790625" lon="12.7444827"><ele>32.0</ele><time>2026-04-06T17:44:41.052Z</time></trkpt><trkpt lat="45.9789828" lon="12.7445838"><ele>32.0</ele><time>2026-04-06T17:44:43.051Z</time></trkpt><trkpt lat="45.9789337" lon="12.744682"><ele>32.0</ele><time>2026-04-06T17:44:45.052Z</time></trkpt><trkpt lat="45.9789053" lon="12.7447997"><ele>32.0</ele><time>2026-04-06T17:44:47.052Z</time></trkpt><trkpt lat="45.9788686" lon="12.7449264"><ele>32.0</ele><time>2026-04-06T17:44:49.051Z</time></trkpt><trkpt lat="45.9788035" lon="12.7450417"><ele>32.0</ele><time>2026-04-06T17:44:51.051Z</time></trkpt><trkpt lat="45.9787231" lon="12.7451112"><ele>32.0</ele><time>2026-04-06T17:44:53.051Z</time></trkpt><trkpt lat="45.9786171" lon="12.7451567"><ele>32.0</ele><time>2026-04-06T17:44:55.052Z</time></trkpt><trkpt lat="45.9785126" lon="12.7452099"><ele>32.0</ele><time>2026-04-06T17:44:57.052Z</time></trkpt><trkpt lat="45.9784152" lon="12.7452549"><ele>32.2</ele><time>2026-04-06T17:44:59.052Z</time></trkpt><trkpt lat="45.9783173" lon="12.745306"><ele>32.400000000000006</ele><time>2026-04-06T17:45:01.052Z</time></trkpt><trkpt lat="45.9782491" lon="12.7453956"><ele>32.599999999999994</ele><time>2026-04-06T17:45:03.051Z</time></trkpt><trkpt lat="45.9782345" lon="12.7455301"><ele>32.8</ele><time>2026-04-06T17:45:05.052Z</time></trkpt><trkpt lat="45.978237" lon="12.7456734"><ele>33.0</ele><time>2026-04-06T17:45:07.052Z</time></trkpt><trkpt lat="45.9782533" lon="12.7458117"><ele>33.0</ele><time>2026-04-06T17:45:09.051Z</time></trkpt><trkpt lat="45.9782734" lon="12.7459629"><ele>33.0</ele><time>2026-04-06T17:45:11.052Z</time></trkpt><trkpt lat="45.9782834" lon="12.7461188"><ele>33.0</ele><time>2026-04-06T17:45:13.053Z</time></trkpt><trkpt lat="45.9783063" lon="12.7462802"><ele>33.0</ele><time>2026-04-06T17:45:15.051Z</time></trkpt><trkpt lat="45.9783219" lon="12.7464156"><ele>33.0</ele><time>2026-04-06T17:45:17.052Z</time></trkpt><trkpt lat="45.9783591" lon="12.74653"><ele>32.199999999999996</ele><time>2026-04-06T17:45:19.051Z</time></trkpt><trkpt lat="45.9784156" lon="12.7466255"><ele>31.4</ele><time>2026-04-06T17:45:21.052Z</time></trkpt><trkpt lat="45.9784907" lon="12.7467255"><ele>30.599999999999998</ele><time>2026-04-06T17:45:23.051Z</time></trkpt><trkpt lat="45.9785719" lon="12.7468264"><ele>29.799999999999997</ele><time>2026-04-06T17:45:25.051Z</time></trkpt><trkpt lat="45.9786381" lon="12.7469503"><ele>29.0</ele><time>2026-04-06T17:45:27.052Z</time></trkpt><trkpt lat="45.9787166" lon="12.7470497"><ele>28.999999999999996</ele><time>2026-04-06T17:45:29.051Z</time></trkpt><trkpt lat="45.9787919" lon="12.7471124"><ele>29.0</ele><time>2026-04-06T17:45:31.052Z</time></trkpt><trkpt lat="45.9788529" lon="12.7471478"><ele>29.0</ele><time>2026-04-06T17:45:33.051Z</time></trkpt><trkpt lat="45.9789268" lon="12.7471378"><ele>29.0</ele><time>2026-04-06T17:45:57.052Z</time></trkpt><trkpt lat="45.9789888" lon="12.7470968"><ele>28.999999999999996</ele><time>2026-04-06T17:46:00.052Z</time></trkpt><trkpt lat="45.9790566" lon="12.747068"><ele>29.0</ele><time>2026-04-06T17:46:02.051Z</time></trkpt><trkpt lat="45.9791351" lon="12.7471362"><ele>28.999999999999996</ele><time>2026-04-06T17:46:05.051Z</time></trkpt><trkpt lat="45.9791426" lon="12.7472571"><ele>29.0</ele><time>2026-04-06T17:46:07.052Z</time></trkpt><trkpt lat="45.9791367" lon="12.7473877"><ele>29.0</ele><time>2026-04-06T17:46:09.051Z</time></trkpt><trkpt lat="45.9791595" lon="12.7474879"><ele>29.0</ele><time>2026-04-06T17:46:11.051Z</time></trkpt><trkpt lat="45.9792128" lon="12.7475664"><ele>28.999999999999996</ele><time>2026-04-06T17:46:13.051Z</time></trkpt><trkpt lat="45.979276" lon="12.7476458"><ele>29.0</ele><time>2026-04-06T17:46:15.052Z</time></trkpt><trkpt lat="45.9793682" lon="12.7476851"><ele>29.499999999999996</ele><time>2026-04-06T17:46:17.051Z</time></trkpt><trkpt lat="45.9794375" lon="12.7476716"><ele>30.0</ele><time>2026-04-06T17:46:19.051Z</time></trkpt><trkpt lat="45.9794633" lon="12.7475758"><ele>30.5</ele><time>2026-04-06T17:46:21.052Z</time></trkpt><trkpt lat="45.9794257" lon="12.7474818"><ele>31.0</ele><time>2026-04-06T17:46:23.051Z</time></trkpt><trkpt lat="45.9793535" lon="12.7473884"><ele>31.499999999999996</ele><time>2026-04-06T17:46:25.052Z</time></trkpt><trkpt lat="45.9793314" lon="12.7472615"><ele>32.0</ele><time>2026-04-06T17:46:27.051Z</time></trkpt><trkpt lat="45.9793451" lon="12.7471015"><ele>31.999999999999996</ele><time>2026-04-06T17:46:29.053Z</time></trkpt><trkpt lat="45.9793685" lon="12.7469441"><ele>32.0</ele><time>2026-04-06T17:46:31.053Z</time></trkpt><trkpt lat="45.979385" lon="12.7468418"><ele>32.0</ele><time>2026-04-06T17:46:32.051Z</time></trkpt><trkpt lat="45.9794067" lon="12.7466781"><ele>32.0</ele><time>2026-04-06T17:46:34.052Z</time></trkpt><trkpt lat="45.9794148" lon="12.7465811"><ele>31.999999999999996</ele><time>2026-04-06T17:46:35.052Z</time></trkpt><trkpt lat="45.979412" lon="12.7464674"><ele>32.0</ele><time>2026-04-06T17:46:36.052Z</time></trkpt><trkpt lat="45.9794093" lon="12.7463497"><ele>31.6</ele><time>2026-04-06T17:46:37.052Z</time></trkpt><trkpt lat="45.9794014" lon="12.7462355"><ele>31.200000000000003</ele><time>2026-04-06T17:46:38.051Z</time></trkpt><trkpt lat="45.9793889" lon="12.7461089"><ele>30.8</ele><time>2026-04-06T17:46:39.052Z</time></trkpt><trkpt lat="45.979378" lon="12.7459746"><ele>30.4</ele><time>2026-04-06T17:46:40.051Z</time></trkpt><trkpt lat="45.9793738" lon="12.7458348"><ele>30.0</ele><time>2026-04-06T17:46:41.052Z</time></trkpt><trkpt lat="45.9793764" lon="12.7457"><ele>29.833333333333332</ele><time>2026-04-06T17:46:42.052Z</time></trkpt><trkpt lat="45.9793769" lon="12.7455806"><ele>29.666666666666664</ele><time>2026-04-06T17:46:43.052Z</time></trkpt><trkpt lat="45.9793754" lon="12.7454731"><ele>29.5</ele><time>2026-04-06T17:46:44.051Z</time></trkpt><trkpt lat="45.9793638" lon="12.7453764"><ele>29.333333333333332</ele><time>2026-04-06T17:46:45.052Z</time></trkpt><trkpt lat="45.9793428" lon="12.7452855"><ele>29.166666666666664</ele><time>2026-04-06T17:46:46.052Z</time></trkpt><trkpt lat="45.9793209" lon="12.7451904"><ele>29.0</ele><time>2026-04-06T17:46:47.052Z</time></trkpt><trkpt lat="45.9792845" lon="12.7450596"><ele>28.999999999999996</ele><time>2026-04-06T17:46:49.052Z</time></trkpt><trkpt lat="45.9792075" lon="12.7450335"><ele>29.0</ele><time>2026-04-06T17:46:51.053Z</time></trkpt><trkpt lat="45.9791706" lon="12.7451393"><ele>29.0</ele><time>2026-04-06T17:46:53.051Z</time></trkpt><trkpt lat="45.9791926" lon="12.7452563"><ele>29.0</ele><time>2026-04-06T17:46:55.051Z</time></trkpt><trkpt lat="45.9791928" lon="12.7454048"><ele>28.999999999999996</ele><time>2026-04-06T17:46:57.051Z</time></trkpt><trkpt lat="45.9791986" lon="12.7455362"><ele>29.0</ele><time>2026-04-06T17:46:59.052Z</time></trkpt><trkpt lat="45.9791636" lon="12.7456217"><ele>28.999999999999996</ele><time>2026-04-06T17:47:01.051Z</time></trkpt><trkpt lat="45.9790836" lon="12.7456801"><ele>29.0</ele><time>2026-04-06T17:47:03.052Z</time></trkpt><trkpt lat="45.9790054" lon="12.7457302"><ele>29.0</ele><time>2026-04-06T17:47:05.051Z</time></trkpt><trkpt lat="45.9789637" lon="12.7458145"><ele>29.0</ele><time>2026-04-06T17:47:07.053Z</time></trkpt><trkpt lat="45.978946" lon="12.7459353"><ele>28.999999999999996</ele><time>2026-04-06T17:47:09.053Z</time></trkpt><trkpt lat="45.9789093" lon="12.7460566"><ele>29.0</ele><time>2026-04-06T17:47:11.052Z</time></trkpt><trkpt lat="45.9788419" lon="12.7461087"><ele>29.0</ele><time>2026-04-06T17:47:13.052Z</time></trkpt><trkpt lat="45.9788029" lon="12.7460199"><ele>29.0</ele><time>2026-04-06T17:47:15.051Z</time></trkpt><trkpt lat="45.9788192" lon="12.7458826"><ele>29.0</ele><time>2026-04-06T17:47:17.051Z</time></trkpt><trkpt lat="45.9788431" lon="12.7457418"><ele>29.0</ele><time>2026-04-06T17:47:19.051Z</time></trkpt><trkpt lat="45.9789" lon="12.7456218"><ele>29.0</ele><time>2026-04-06T17:47:21.052Z</time></trkpt><trkpt lat="45.9789724" lon="12.7455187"><ele>28.999999999999996</ele><time>2026-04-06T17:47:23.051Z</time></trkpt><trkpt lat="45.9790198" lon="12.7454197"><ele>29.0</ele><time>2026-04-06T17:47:25.051Z</time></trkpt><trkpt lat="45.9789763" lon="12.7453515"><ele>29.0</ele><time>2026-04-06T17:47:27.051Z</time></trkpt><trkpt lat="45.9789087" lon="12.7454134"><ele>29.0</ele><time>2026-04-06T17:47:29.052Z</time></trkpt><trkpt lat="45.9788575" lon="12.7455368"><ele>28.999999999999996</ele><time>2026-04-06T17:47:31.051Z</time></trkpt><trkpt lat="45.9787654" lon="12.7455923"><ele>29.0</ele><time>2026-04-06T17:47:33.052Z</time></trkpt><trkpt lat="45.9786725" lon="12.7455935"><ele>28.999999999999996</ele><time>2026-04-06T17:47:35.052Z</time></trkpt><trkpt lat="45.9785846" lon="12.7455738"><ele>29.0</ele><time>2026-04-06T17:47:37.051Z</time></trkpt><trkpt lat="45.9785022" lon="12.7455529"><ele>29.0</ele><time>2026-04-06T17:47:39.052Z</time></trkpt><trkpt lat="45.9784322" lon="12.7455112"><ele>29.0</ele><time>2026-04-06T17:47:41.052Z</time></trkpt><trkpt lat="45.978409" lon="12.7453898"><ele>28.999999999999996</ele><time>2026-04-06T17:47:44.052Z</time></trkpt><trkpt lat="45.9784884" lon="12.7453161"><ele>29.0</ele><time>2026-04-06T17:47:47.051Z</time></trkpt><trkpt lat="45.9785966" lon="12.7453205"><ele>29.0</ele><time>2026-04-06T17:47:49.051Z</time></trkpt><trkpt lat="45.978708" lon="12.7453025"><ele>29.0</ele><time>2026-04-06T17:47:51.051Z</time></trkpt><trkpt lat="45.9788019" lon="12.7452787"><ele>29.0</ele><time>2026-04-06T17:47:53.053Z</time></trkpt><trkpt lat="45.9788699" lon="12.7452561"><ele>29.0</ele><time>2026-04-06T17:47:55.052Z</time></trkpt><trkpt lat="45.9789663" lon="12.7452089"><ele>29.0</ele><time>2026-04-06T17:47:57.051Z</time></trkpt><trkpt lat="45.9790356" lon="12.7451234"><ele>28.799999999999997</ele><time>2026-04-06T17:47:59.052Z</time></trkpt><trkpt lat="45.9790522" lon="12.7450086"><ele>28.599999999999998</ele><time>2026-04-06T17:48:01.052Z</time></trkpt><trkpt lat="45.97902" lon="12.7448739"><ele>28.4</ele><time>2026-04-06T17:48:03.052Z</time></trkpt><trkpt lat="45.9790351" lon="12.744756"><ele>28.2</ele><time>2026-04-06T17:48:05.053Z</time></trkpt><trkpt lat="45.9791108" lon="12.7446936"><ele>28.0</ele><time>2026-04-06T17:48:07.053Z</time></trkpt><trkpt lat="45.9792153" lon="12.744743"><ele>28.0</ele><time>2026-04-06T17:48:09.053Z</time></trkpt><trkpt lat="45.9792809" lon="12.7446694"><ele>27.999999999999996</ele><time>2026-04-06T17:48:11.052Z</time></trkpt><trkpt lat="45.9792791" lon="12.7445431"><ele>27.999999999999996</ele><time>2026-04-06T17:48:13.053Z</time></trkpt><trkpt lat="45.9792065" lon="12.7444387"><ele>28.0</ele><time>2026-04-06T17:48:15.051Z</time></trkpt><trkpt lat="45.979118" lon="12.7444295"><ele>28.0</ele><time>2026-04-06T17:48:17.052Z</time></trkpt><trkpt lat="45.9790407" lon="12.7444971"><ele>28.799999999999997</ele><time>2026-04-06T17:48:19.051Z</time></trkpt><trkpt lat="45.9789692" lon="12.7445973"><ele>29.599999999999998</ele><time>2026-04-06T17:48:21.051Z</time></trkpt><trkpt lat="45.9789255" lon="12.7447039"><ele>30.400000000000002</ele><time>2026-04-06T17:48:23.051Z</time></trkpt><trkpt lat="45.978898" lon="12.7448191"><ele>31.200000000000003</ele><time>2026-04-06T17:48:25.052Z</time></trkpt><trkpt lat="45.978863" lon="12.7449408"><ele>32.0</ele><time>2026-04-06T17:48:27.051Z</time></trkpt><trkpt lat="45.9788055" lon="12.7450395"><ele>32.0</ele><time>2026-04-06T17:48:29.051Z</time></trkpt><trkpt lat="45.9787252" lon="12.7451118"><ele>32.0</ele><time>2026-04-06T17:48:31.051Z</time></trkpt><trkpt lat="45.9786176" lon="12.7451567"><ele>32.0</ele><time>2026-04-06T17:48:33.053Z</time></trkpt><trkpt lat="45.9785034" lon="12.7452063"><ele>32.0</ele><time>2026-04-06T17:48:35.052Z</time></trkpt><trkpt lat="45.9783976" lon="12.7452632"><ele>32.0</ele><time>2026-04-06T17:48:37.051Z</time></trkpt><trkpt lat="45.978296" lon="12.745321"><ele>32.2</ele><time>2026-04-06T17:48:39.051Z</time></trkpt><trkpt lat="45.9782456" lon="12.7454331"><ele>32.400000000000006</ele><time>2026-04-06T17:48:41.051Z</time></trkpt><trkpt lat="45.9782379" lon="12.74558"><ele>32.599999999999994</ele><time>2026-04-06T17:48:43.052Z</time></trkpt><trkpt lat="45.9782458" lon="12.7457309"><ele>32.8</ele><time>2026-04-06T17:48:45.052Z</time></trkpt><trkpt lat="45.9782648" lon="12.7458631"><ele>33.0</ele><time>2026-04-06T17:48:47.051Z</time></trkpt><trkpt lat="45.978276" lon="12.7460215"><ele>32.6</ele><time>2026-04-06T17:48:49.052Z</time></trkpt><trkpt lat="45.9782899" lon="12.7461944"><ele>32.199999999999996</ele><time>2026-04-06T17:48:51.051Z</time></trkpt><trkpt lat="45.9783137" lon="12.7463597"><ele>31.8</ele><time>2026-04-06T17:48:53.052Z</time></trkpt><trkpt lat="45.9783412" lon="12.7464867"><ele>31.4</ele><time>2026-04-06T17:48:55.053Z</time></trkpt><trkpt lat="45.9784014" lon="12.7465907"><ele>31.0</ele><time>2026-04-06T17:48:57.051Z</time></trkpt><trkpt lat="45.9784794" lon="12.7467028"><ele>30.6</ele><time>2026-04-06T17:48:59.051Z</time></trkpt><trkpt lat="45.978549" lon="12.7468132"><ele>30.200000000000003</ele><time>2026-04-06T17:49:01.052Z</time></trkpt><trkpt lat="45.97862" lon="12.7469537"><ele>29.799999999999997</ele><time>2026-04-06T17:49:03.052Z</time></trkpt><trkpt lat="45.9787098" lon="12.7470484"><ele>29.4</ele><time>2026-04-06T17:49:05.052Z</time></trkpt><trkpt lat="45.978783" lon="12.7471142"><ele>29.0</ele><time>2026-04-06T17:49:07.051Z</time></trkpt><trkpt lat="45.9788486" lon="12.7471507"><ele>28.999999999999996</ele><time>2026-04-06T17:49:09.052Z</time></trkpt><trkpt lat="45.9789255" lon="12.7471303"><ele>29.0</ele><time>2026-04-06T17:49:13.052Z</time></trkpt><trkpt lat="45.9789857" lon="12.7470885"><ele>29.0</ele><time>2026-04-06T17:49:15.053Z</time></trkpt><trkpt lat="45.9790627" lon="12.7470701"><ele>29.0</ele><time>2026-04-06T17:49:17.052Z</time></trkpt><trkpt lat="45.9791254" lon="12.7471415"><ele>28.999999999999996</ele><time>2026-04-06T17:49:19.051Z</time></trkpt><trkpt lat="45.9791263" lon="12.747286"><ele>29.0</ele><time>2026-04-06T17:49:21.052Z</time></trkpt><trkpt lat="45.9791314" lon="12.7474157"><ele>28.999999999999996</ele><time>2026-04-06T17:49:23.052Z</time></trkpt><trkpt lat="45.9791622" lon="12.747511"><ele>29.0</ele><time>2026-04-06T17:49:25.053Z</time></trkpt><trkpt lat="45.9792324" lon="12.7476116"><ele>29.0</ele><time>2026-04-06T17:49:27.051Z</time></trkpt><trkpt lat="45.9793091" lon="12.7476623"><ele>29.0</ele><time>2026-04-06T17:49:29.052Z</time></trkpt><trkpt lat="45.9794067" lon="12.7476963"><ele>28.999999999999996</ele><time>2026-04-06T17:49:31.052Z</time></trkpt><trkpt lat="45.9794601" lon="12.7476283"><ele>29.0</ele><time>2026-04-06T17:49:33.051Z</time></trkpt><trkpt lat="45.9794395" lon="12.7475138"><ele>29.2</ele><time>2026-04-06T17:49:35.051Z</time></trkpt><trkpt lat="45.9793625" lon="12.7474204"><ele>29.4</ele><time>2026-04-06T17:49:37.051Z</time></trkpt><trkpt lat="45.9793279" lon="12.7472804"><ele>29.6</ele><time>2026-04-06T17:49:39.053Z</time></trkpt><trkpt lat="45.9793509" lon="12.7471216"><ele>29.8</ele><time>2026-04-06T17:49:41.052Z</time></trkpt><trkpt lat="45.9793673" lon="12.7469501"><ele>30.0</ele><time>2026-04-06T17:49:43.051Z</time></trkpt><trkpt lat="45.9793832" lon="12.7468621"><ele>30.0</ele><time>2026-04-06T17:49:44.052Z</time></trkpt><trkpt lat="45.9794066" lon="12.7467112"><ele>30.0</ele><time>2026-04-06T17:49:46.053Z</time></trkpt><trkpt lat="45.9794199" lon="12.7465376"><ele>30.0</ele><time>2026-04-06T17:49:48.051Z</time></trkpt><trkpt lat="45.9794158" lon="12.7464311"><ele>30.0</ele><time>2026-04-06T17:49:49.052Z</time></trkpt><trkpt lat="45.9794108" lon="12.7463223"><ele>30.0</ele><time>2026-04-06T17:49:50.051Z</time></trkpt><trkpt lat="45.9794023" lon="12.7462066"><ele>30.0</ele><time>2026-04-06T17:49:51.052Z</time></trkpt><trkpt lat="45.979388" lon="12.7460907"><ele>30.0</ele><time>2026-04-06T17:49:52.052Z</time></trkpt><trkpt lat="45.9793776" lon="12.7459665"><ele>30.0</ele><time>2026-04-06T17:49:53.052Z</time></trkpt><trkpt lat="45.9793766" lon="12.7458346"><ele>30.0</ele><time>2026-04-06T17:49:54.051Z</time></trkpt><trkpt lat="45.9793774" lon="12.7456993"><ele>30.0</ele><time>2026-04-06T17:49:55.051Z</time></trkpt><trkpt lat="45.9793801" lon="12.7455788"><ele>30.0</ele><time>2026-04-06T17:49:56.052Z</time></trkpt><trkpt lat="45.979378" lon="12.745473"><ele>29.833333333333332</ele><time>2026-04-06T17:49:57.051Z</time></trkpt><trkpt lat="45.9793643" lon="12.7453657"><ele>29.666666666666664</ele><time>2026-04-06T17:49:58.051Z</time></trkpt><trkpt lat="45.9793423" lon="12.7452561"><ele>29.5</ele><time>2026-04-06T17:49:59.052Z</time></trkpt><trkpt lat="45.9793186" lon="12.745157"><ele>29.333333333333332</ele><time>2026-04-06T17:50:00.051Z</time></trkpt><trkpt lat="45.9792746" lon="12.7450398"><ele>29.166666666666664</ele><time>2026-04-06T17:50:02.051Z</time></trkpt><trkpt lat="45.9792019" lon="12.7450526"><ele>29.0</ele><time>2026-04-06T17:50:04.052Z</time></trkpt><trkpt lat="45.9791728" lon="12.7451731"><ele>29.0</ele><time>2026-04-06T17:50:06.051Z</time></trkpt><trkpt lat="45.9791846" lon="12.7453382"><ele>29.0</ele><time>2026-04-06T17:50:08.052Z</time></trkpt><trkpt lat="45.9791921" lon="12.7454796"><ele>29.0</ele><time>2026-04-06T17:50:10.052Z</time></trkpt><trkpt lat="45.9791865" lon="12.7455761"><ele>29.0</ele><time>2026-04-06T17:50:12.051Z</time></trkpt><trkpt lat="45.9791307" lon="12.7456426"><ele>29.0</ele><time>2026-04-06T17:50:14.051Z</time></trkpt><trkpt lat="45.9790366" lon="12.7456906"><ele>28.999999999999996</ele><time>2026-04-06T17:50:16.051Z</time></trkpt><trkpt lat="45.9789769" lon="12.7457748"><ele>29.0</ele><time>2026-04-06T17:50:18.051Z</time></trkpt><trkpt lat="45.9789496" lon="12.74591"><ele>29.0</ele><time>2026-04-06T17:50:20.053Z</time></trkpt><trkpt lat="45.9789081" lon="12.746048"><ele>29.0</ele><time>2026-04-06T17:50:22.052Z</time></trkpt><trkpt lat="45.9788467" lon="12.7461016"><ele>28.999999999999996</ele><time>2026-04-06T17:50:24.051Z</time></trkpt><trkpt lat="45.9788028" lon="12.7460099"><ele>29.0</ele><time>2026-04-06T17:50:26.052Z</time></trkpt><trkpt lat="45.9788279" lon="12.7458408"><ele>29.0</ele><time>2026-04-06T17:50:28.052Z</time></trkpt><trkpt lat="45.978854" lon="12.745709"><ele>29.0</ele><time>2026-04-06T17:50:30.051Z</time></trkpt><trkpt lat="45.9789272" lon="12.7455897"><ele>29.0</ele><time>2026-04-06T17:50:32.051Z</time></trkpt><trkpt lat="45.9789943" lon="12.7454868"><ele>29.0</ele><time>2026-04-06T17:50:34.051Z</time></trkpt><trkpt lat="45.9790096" lon="12.7453786"><ele>29.0</ele><time>2026-04-06T17:50:36.051Z</time></trkpt><trkpt lat="45.9789408" lon="12.7453667"><ele>29.0</ele><time>2026-04-06T17:50:38.053Z</time></trkpt><trkpt lat="45.978892" lon="12.7454693"><ele>29.0</ele><time>2026-04-06T17:50:40.051Z</time></trkpt><trkpt lat="45.9788189" lon="12.7455606"><ele>29.0</ele><time>2026-04-06T17:50:42.051Z</time></trkpt><trkpt lat="45.9787246" lon="12.7455925"><ele>29.0</ele><time>2026-04-06T17:50:44.051Z</time></trkpt><trkpt lat="45.9786325" lon="12.7455755"><ele>29.0</ele><time>2026-04-06T17:50:46.051Z</time></trkpt><trkpt lat="45.9785553" lon="12.7455615"><ele>28.999999999999996</ele><time>2026-04-06T17:50:48.052Z</time></trkpt><trkpt lat="45.9784704" lon="12.7455349"><ele>29.0</ele><time>2026-04-06T17:50:50.053Z</time></trkpt><trkpt lat="45.9784156" lon="12.7454651"><ele>29.0</ele><time>2026-04-06T17:50:52.052Z</time></trkpt><trkpt lat="45.9784292" lon="12.7453526"><ele>29.0</ele><time>2026-04-06T17:50:55.052Z</time></trkpt><trkpt lat="45.9785226" lon="12.745304"><ele>28.999999999999996</ele><time>2026-04-06T17:50:58.051Z</time></trkpt><trkpt lat="45.9786204" lon="12.745298"><ele>29.0</ele><time>2026-04-06T17:51:00.051Z</time></trkpt><trkpt lat="45.9787253" lon="12.7452829"><ele>29.0</ele><time>2026-04-06T17:51:02.051Z</time></trkpt><trkpt lat="45.9788281" lon="12.7452606"><ele>29.0</ele><time>2026-04-06T17:51:04.052Z</time></trkpt><trkpt lat="45.9789151" lon="12.745224"><ele>29.0</ele><time>2026-04-06T17:51:06.053Z</time></trkpt><trkpt lat="45.9790021" lon="12.7451613"><ele>29.0</ele><time>2026-04-06T17:51:08.052Z</time></trkpt><trkpt lat="45.9790482" lon="12.7450609"><ele>29.0</ele><time>2026-04-06T17:51:10.051Z</time></trkpt><trkpt lat="45.9790318" lon="12.7449318"><ele>28.799999999999997</ele><time>2026-04-06T17:51:12.052Z</time></trkpt><trkpt lat="45.9790201" lon="12.744786"><ele>28.599999999999998</ele><time>2026-04-06T17:51:14.053Z</time></trkpt><trkpt lat="45.9790737" lon="12.7447"><ele>28.4</ele><time>2026-04-06T17:51:16.051Z</time></trkpt><trkpt lat="45.9791739" lon="12.7447227"><ele>28.2</ele><time>2026-04-06T17:51:18.051Z</time></trkpt><trkpt lat="45.9792636" lon="12.7447223"><ele>28.0</ele><time>2026-04-06T17:51:20.051Z</time></trkpt><trkpt lat="45.9792857" lon="12.7445841"><ele>28.0</ele><time>2026-04-06T17:51:22.051Z</time></trkpt><trkpt lat="45.9792339" lon="12.7444673"><ele>27.999999999999996</ele><time>2026-04-06T17:51:24.052Z</time></trkpt><trkpt lat="45.9791463" lon="12.7444202"><ele>27.999999999999996</ele><time>2026-04-06T17:51:26.053Z</time></trkpt><trkpt lat="45.9790665" lon="12.7444716"><ele>28.0</ele><time>2026-04-06T17:51:28.051Z</time></trkpt><trkpt lat="45.9789865" lon="12.7445737"><ele>28.0</ele><time>2026-04-06T17:51:30.052Z</time></trkpt><trkpt lat="45.9789349" lon="12.7446679"><ele>28.799999999999997</ele><time>2026-04-06T17:51:32.051Z</time></trkpt><trkpt lat="45.978907" lon="12.7447959"><ele>29.599999999999998</ele><time>2026-04-06T17:51:34.052Z</time></trkpt><trkpt lat="45.9788616" lon="12.7449324"><ele>30.400000000000002</ele><time>2026-04-06T17:51:36.053Z</time></trkpt><trkpt lat="45.9788055" lon="12.7450325"><ele>31.200000000000003</ele><time>2026-04-06T17:51:38.053Z</time></trkpt><trkpt lat="45.9787173" lon="12.7451096"><ele>32.0</ele><time>2026-04-06T17:51:40.052Z</time></trkpt><trkpt lat="45.9786579" lon="12.7451405"><ele>32.0</ele><time>2026-04-06T17:51:41.051Z</time></trkpt><trkpt lat="45.9785954" lon="12.7451666"><ele>32.0</ele><time>2026-04-06T17:51:42.052Z</time></trkpt><trkpt lat="45.9784894" lon="12.7452174"><ele>32.0</ele><time>2026-04-06T17:51:44.052Z</time></trkpt><trkpt lat="45.9783834" lon="12.7452701"><ele>32.0</ele><time>2026-04-06T17:51:46.051Z</time></trkpt><trkpt lat="45.9782839" lon="12.7453281"><ele>32.0</ele><time>2026-04-06T17:51:48.051Z</time></trkpt><trkpt lat="45.9782396" lon="12.7454447"><ele>32.2</ele><time>2026-04-06T17:51:50.051Z</time></trkpt><trkpt lat="45.9782329" lon="12.7455843"><ele>32.400000000000006</ele><time>2026-04-06T17:51:52.052Z</time></trkpt><trkpt lat="45.9782428" lon="12.7457272"><ele>32.599999999999994</ele><time>2026-04-06T17:51:54.052Z</time></trkpt><trkpt lat="45.9782634" lon="12.7458619"><ele>32.8</ele><time>2026-04-06T17:51:56.051Z</time></trkpt><trkpt lat="45.9782747" lon="12.7460211"><ele>33.0</ele><time>2026-04-06T17:51:58.051Z</time></trkpt><trkpt lat="45.9782892" lon="12.7461893"><ele>32.6</ele><time>2026-04-06T17:52:00.052Z</time></trkpt><trkpt lat="45.9783004" lon="12.7462818"><ele>32.199999999999996</ele><time>2026-04-06T17:52:01.051Z</time></trkpt><trkpt lat="45.9783165" lon="12.7464233"><ele>31.8</ele><time>2026-04-06T17:52:03.052Z</time></trkpt><trkpt lat="45.9783624" lon="12.7465387"><ele>31.4</ele><time>2026-04-06T17:52:05.051Z</time></trkpt><trkpt lat="45.9784269" lon="12.7466392"><ele>31.0</ele><time>2026-04-06T17:52:07.051Z</time></trkpt><trkpt lat="45.9785086" lon="12.7467363"><ele>30.666666666666668</ele><time>2026-04-06T17:52:09.052Z</time></trkpt><trkpt lat="45.9785848" lon="12.7468552"><ele>30.333333333333336</ele><time>2026-04-06T17:52:11.052Z</time></trkpt><trkpt lat="45.9786258" lon="12.7469332"><ele>30.0</ele><time>2026-04-06T17:52:12.051Z</time></trkpt><trkpt lat="45.978669" lon="12.7470001"><ele>29.666666666666664</ele><time>2026-04-06T17:52:13.052Z</time></trkpt><trkpt lat="45.9787614" lon="12.7470886"><ele>29.333333333333332</ele><time>2026-04-06T17:52:15.052Z</time></trkpt><trkpt lat="45.978847" lon="12.7471441"><ele>29.0</ele><time>2026-04-06T17:52:17.052Z</time></trkpt><trkpt lat="45.9789183" lon="12.7471313"><ele>28.999999999999996</ele><time>2026-04-06T17:52:20.051Z</time></trkpt><trkpt lat="45.9789771" lon="12.7470954"><ele>29.0</ele><time>2026-04-06T17:52:22.053Z</time></trkpt><trkpt lat="45.9790545" lon="12.7470674"><ele>29.0</ele><time>2026-04-06T17:52:24.051Z</time></trkpt><trkpt lat="45.9791203" lon="12.7471243"><ele>29.0</ele><time>2026-04-06T17:52:26.052Z</time></trkpt><trkpt lat="45.979135" lon="12.7472646"><ele>28.999999999999996</ele><time>2026-04-06T17:52:28.052Z</time></trkpt><trkpt lat="45.9791336" lon="12.7474024"><ele>29.0</ele><time>2026-04-06T17:52:30.052Z</time></trkpt><trkpt lat="45.9791567" lon="12.7474989"><ele>29.499999999999996</ele><time>2026-04-06T17:52:32.052Z</time></trkpt><trkpt lat="45.9792132" lon="12.7475793"><ele>30.0</ele><time>2026-04-06T17:52:34.051Z</time></trkpt><trkpt lat="45.9792795" lon="12.7476565"><ele>30.5</ele><time>2026-04-06T17:52:36.051Z</time></trkpt><trkpt lat="45.979368" lon="12.7476851"><ele>31.0</ele><time>2026-04-06T17:52:38.052Z</time></trkpt><trkpt lat="45.9794472" lon="12.7477389"><ele>31.499999999999996</ele><time>2026-04-06T17:52:41.052Z</time></trkpt><trkpt lat="45.9794621" lon="12.7478366"><ele>32.0</ele><time>2026-04-06T17:52:43.052Z</time></trkpt><trkpt lat="45.9794262" lon="12.7479158"><ele>32.166666666666664</ele><time>2026-04-06T17:52:45.051Z</time></trkpt><trkpt lat="45.9793492" lon="12.7479004"><ele>32.33333333333333</ele><time>2026-04-06T17:52:47.052Z</time></trkpt><trkpt lat="45.9792972" lon="12.7478404"><ele>32.5</ele><time>2026-04-06T17:52:48.051Z</time></trkpt><trkpt lat="45.9792376" lon="12.7477669"><ele>32.666666666666664</ele><time>2026-04-06T17:52:49.051Z</time></trkpt><trkpt lat="45.9791686" lon="12.7476882"><ele>32.833333333333336</ele><time>2026-04-06T17:52:50.052Z</time></trkpt><trkpt lat="45.9790955" lon="12.7476075"><ele>33.0</ele><time>2026-04-06T17:52:51.052Z</time></trkpt><trkpt lat="45.9790261" lon="12.7475361"><ele>32.333333333333336</ele><time>2026-04-06T17:52:52.052Z</time></trkpt><trkpt lat="45.9789587" lon="12.7474736"><ele>31.666666666666664</ele><time>2026-04-06T17:52:53.051Z</time></trkpt><trkpt lat="45.9788935" lon="12.7474153"><ele>31.0</ele><time>2026-04-06T17:52:54.051Z</time></trkpt><trkpt lat="45.9788275" lon="12.7473583"><ele>30.333333333333332</ele><time>2026-04-06T17:52:55.051Z</time></trkpt><trkpt lat="45.9787593" lon="12.7473037"><ele>29.666666666666664</ele><time>2026-04-06T17:52:56.051Z</time></trkpt><trkpt lat="45.9787012" lon="12.7472475"><ele>29.0</ele><time>2026-04-06T17:52:57.052Z</time></trkpt><trkpt lat="45.9786237" lon="12.7471452"><ele>29.0</ele><time>2026-04-06T17:52:59.052Z</time></trkpt><trkpt lat="45.9786996" lon="12.7472451"><ele>29.0</ele><time>2026-04-06T17:53:39.052Z</time></trkpt><trkpt lat="45.9787747" lon="12.7473133"><ele>29.0</ele><time>2026-04-06T17:53:41.051Z</time></trkpt><trkpt lat="45.9788612" lon="12.7473887"><ele>29.0</ele><time>2026-04-06T17:53:43.051Z</time></trkpt><trkpt lat="45.9789403" lon="12.747449"><ele>29.0</ele><time>2026-04-06T17:53:45.052Z</time></trkpt><trkpt lat="45.9790274" lon="12.7475399"><ele>28.999999999999996</ele><time>2026-04-06T17:53:47.052Z</time></trkpt><trkpt lat="45.9790835" lon="12.7475994"><ele>29.0</ele><time>2026-04-06T17:53:48.051Z</time></trkpt><trkpt lat="45.9791363" lon="12.7476564"><ele>29.0</ele><time>2026-04-06T17:53:49.051Z</time></trkpt><trkpt lat="45.9792263" lon="12.7477584"><ele>29.0</ele><time>2026-04-06T17:53:51.053Z</time></trkpt><trkpt lat="45.9793045" lon="12.7478354"><ele>28.999999999999996</ele><time>2026-04-06T17:53:53.051Z</time></trkpt><trkpt lat="45.9793667" lon="12.7479117"><ele>29.0</ele><time>2026-04-06T17:53:55.052Z</time></trkpt><trkpt lat="45.9794164" lon="12.7479767"><ele>29.666666666666664</ele><time>2026-04-06T17:54:22.051Z</time></trkpt><trkpt lat="45.9794789" lon="12.7479542"><ele>30.333333333333332</ele><time>2026-04-06T17:54:24.052Z</time></trkpt><trkpt lat="45.9795736" lon="12.7479289"><ele>31.0</ele><time>2026-04-06T17:54:26.051Z</time></trkpt><trkpt lat="45.979658" lon="12.7479441"><ele>31.666666666666664</ele><time>2026-04-06T17:54:28.052Z</time></trkpt><trkpt lat="45.9797468" lon="12.7479225"><ele>32.333333333333336</ele><time>2026-04-06T17:54:30.052Z</time></trkpt><trkpt lat="45.9798105" lon="12.7479136"><ele>33.0</ele><time>2026-04-06T17:54:31.052Z</time></trkpt><trkpt lat="45.9798756" lon="12.747903"><ele>33.0</ele><time>2026-04-06T17:54:32.051Z</time></trkpt><trkpt lat="45.9799781" lon="12.747861"><ele>33.0</ele><time>2026-04-06T17:54:34.051Z</time></trkpt><trkpt lat="45.9800401" lon="12.7477824"><ele>33.0</ele><time>2026-04-06T17:54:36.051Z</time></trkpt><trkpt lat="45.9800632" lon="12.7476614"><ele>33.0</ele><time>2026-04-06T17:54:38.053Z</time></trkpt><trkpt lat="45.9800691" lon="12.7474942"><ele>33.0</ele><time>2026-04-06T17:54:40.052Z</time></trkpt><trkpt lat="45.9800619" lon="12.7473977"><ele>33.0</ele><time>2026-04-06T17:54:41.051Z</time></trkpt><trkpt lat="45.9800468" lon="12.7472999"><ele>33.0</ele><time>2026-04-06T17:54:42.052Z</time></trkpt><trkpt lat="45.9800205" lon="12.7472082"><ele>33.0</ele><time>2026-04-06T17:54:43.053Z</time></trkpt><trkpt lat="45.9799975" lon="12.7471178"><ele>33.0</ele><time>2026-04-06T17:54:44.051Z</time></trkpt><trkpt lat="45.9799659" lon="12.7469539"><ele>33.0</ele><time>2026-04-06T17:54:46.052Z</time></trkpt><trkpt lat="45.9799662" lon="12.7468586"><ele>33.0</ele><time>2026-04-06T17:54:47.052Z</time></trkpt><trkpt lat="45.9799967" lon="12.7466845"><ele>32.833333333333336</ele><time>2026-04-06T17:54:49.051Z</time></trkpt><trkpt lat="45.980032" lon="12.7465955"><ele>32.666666666666664</ele><time>2026-04-06T17:54:50.051Z</time></trkpt><trkpt lat="45.9800788" lon="12.7465064"><ele>32.5</ele><time>2026-04-06T17:54:51.051Z</time></trkpt><trkpt lat="45.980127" lon="12.7464181"><ele>32.33333333333333</ele><time>2026-04-06T17:54:52.051Z</time></trkpt><trkpt lat="45.9801779" lon="12.7463391"><ele>32.166666666666664</ele><time>2026-04-06T17:54:53.051Z</time></trkpt><trkpt lat="45.9802328" lon="12.7462593"><ele>32.0</ele><time>2026-04-06T17:54:54.051Z</time></trkpt><trkpt lat="45.9802864" lon="12.7461841"><ele>32.0</ele><time>2026-04-06T17:54:55.051Z</time></trkpt><trkpt lat="45.9803329" lon="12.7461053"><ele>31.999999999999996</ele><time>2026-04-06T17:54:56.052Z</time></trkpt><trkpt lat="45.9803851" lon="12.7460215"><ele>32.0</ele><time>2026-04-06T17:54:57.052Z</time></trkpt><trkpt lat="45.9804301" lon="12.7459431"><ele>32.0</ele><time>2026-04-06T17:54:58.052Z</time></trkpt><trkpt lat="45.9804786" lon="12.7458536"><ele>31.999999999999996</ele><time>2026-04-06T17:54:59.052Z</time></trkpt><trkpt lat="45.9805274" lon="12.7457657"><ele>32.0</ele><time>2026-04-06T17:55:00.051Z</time></trkpt><trkpt lat="45.9805727" lon="12.7456884"><ele>32.0</ele><time>2026-04-06T17:55:01.051Z</time></trkpt><trkpt lat="45.9806409" lon="12.7455317"><ele>31.8</ele><time>2026-04-06T17:55:03.052Z</time></trkpt><trkpt lat="45.9806659" lon="12.7454455"><ele>31.6</ele><time>2026-04-06T17:55:04.051Z</time></trkpt><trkpt lat="45.9806841" lon="12.7452773"><ele>31.400000000000002</ele><time>2026-04-06T17:55:06.053Z</time></trkpt><trkpt lat="45.9806778" lon="12.7451866"><ele>31.200000000000003</ele><time>2026-04-06T17:55:07.051Z</time></trkpt><trkpt lat="45.9806855" lon="12.7450201"><ele>31.0</ele><time>2026-04-06T17:55:09.051Z</time></trkpt><trkpt lat="45.9807226" lon="12.7448978"><ele>30.857142857142858</ele><time>2026-04-06T17:55:11.051Z</time></trkpt><trkpt lat="45.9807882" lon="12.7448609"><ele>30.714285714285715</ele><time>2026-04-06T17:55:14.051Z</time></trkpt><trkpt lat="45.9808578" lon="12.744925"><ele>30.571428571428573</ele><time>2026-04-06T17:55:16.052Z</time></trkpt><trkpt lat="45.9809119" lon="12.7449798"><ele>30.42857142857143</ele><time>2026-04-06T17:55:17.053Z</time></trkpt><trkpt lat="45.9809796" lon="12.7450298"><ele>30.285714285714285</ele><time>2026-04-06T17:55:18.051Z</time></trkpt><trkpt lat="45.9810509" lon="12.7450805"><ele>30.142857142857146</ele><time>2026-04-06T17:55:19.052Z</time></trkpt><trkpt lat="45.9811107" lon="12.7451357"><ele>30.0</ele><time>2026-04-06T17:55:20.051Z</time></trkpt><trkpt lat="45.9811611" lon="12.7452166"><ele>30.5</ele><time>2026-04-06T17:55:21.052Z</time></trkpt><trkpt lat="45.9812071" lon="12.745319"><ele>31.0</ele><time>2026-04-06T17:55:22.051Z</time></trkpt><trkpt lat="45.9812453" lon="12.7454405"><ele>31.5</ele><time>2026-04-06T17:55:23.052Z</time></trkpt><trkpt lat="45.9812833" lon="12.7455627"><ele>32.0</ele><time>2026-04-06T17:55:24.051Z</time></trkpt><trkpt lat="45.9813196" lon="12.7456759"><ele>32.5</ele><time>2026-04-06T17:55:25.053Z</time></trkpt><trkpt lat="45.9813598" lon="12.7457933"><ele>33.0</ele><time>2026-04-06T17:55:26.052Z</time></trkpt><trkpt lat="45.9814006" lon="12.7459112"><ele>33.0</ele><time>2026-04-06T17:55:27.052Z</time></trkpt><trkpt lat="45.9814458" lon="12.7460297"><ele>33.0</ele><time>2026-04-06T17:55:28.052Z</time></trkpt><trkpt lat="45.9814977" lon="12.7461597"><ele>33.0</ele><time>2026-04-06T17:55:29.052Z</time></trkpt><trkpt lat="45.9815494" lon="12.7463052"><ele>33.0</ele><time>2026-04-06T17:55:30.052Z</time></trkpt><trkpt lat="45.9816007" lon="12.7464438"><ele>33.0</ele><time>2026-04-06T17:55:31.051Z</time></trkpt><trkpt lat="45.9816531" lon="12.7465766"><ele>32.8</ele><time>2026-04-06T17:55:32.052Z</time></trkpt><trkpt lat="45.9817028" lon="12.7467018"><ele>32.599999999999994</ele><time>2026-04-06T17:55:33.052Z</time></trkpt><trkpt lat="45.981749" lon="12.7468174"><ele>32.400000000000006</ele><time>2026-04-06T17:55:34.051Z</time></trkpt><trkpt lat="45.9817937" lon="12.7469241"><ele>32.2</ele><time>2026-04-06T17:55:35.051Z</time></trkpt><trkpt lat="45.9818352" lon="12.7470262"><ele>32.0</ele><time>2026-04-06T17:55:36.051Z</time></trkpt><trkpt lat="45.981878" lon="12.7471367"><ele>32.0</ele><time>2026-04-06T17:55:37.052Z</time></trkpt><trkpt lat="45.9819227" lon="12.7472541"><ele>32.0</ele><time>2026-04-06T17:55:38.051Z</time></trkpt><trkpt lat="45.9819714" lon="12.7473772"><ele>32.0</ele><time>2026-04-06T17:55:39.051Z</time></trkpt><trkpt lat="45.9820241" lon="12.7475045"><ele>32.0</ele><time>2026-04-06T17:55:40.051Z</time></trkpt><trkpt lat="45.982075" lon="12.7476338"><ele>32.0</ele><time>2026-04-06T17:55:41.051Z</time></trkpt><trkpt lat="45.9821288" lon="12.7477634"><ele>32.2</ele><time>2026-04-06T17:55:42.051Z</time></trkpt><trkpt lat="45.9821839" lon="12.7478966"><ele>32.400000000000006</ele><time>2026-04-06T17:55:43.051Z</time></trkpt><trkpt lat="45.9822334" lon="12.7480206"><ele>32.599999999999994</ele><time>2026-04-06T17:55:44.051Z</time></trkpt><trkpt lat="45.9822777" lon="12.7481368"><ele>32.8</ele><time>2026-04-06T17:55:45.053Z</time></trkpt><trkpt lat="45.9823159" lon="12.7482441"><ele>33.0</ele><time>2026-04-06T17:55:46.053Z</time></trkpt><trkpt lat="45.9823441" lon="12.7483458"><ele>33.0</ele><time>2026-04-06T17:55:47.052Z</time></trkpt><trkpt lat="45.9823651" lon="12.7484559"><ele>33.0</ele><time>2026-04-06T17:55:48.052Z</time></trkpt><trkpt lat="45.982393" lon="12.7485456"><ele>33.0</ele><time>2026-04-06T17:55:49.053Z</time></trkpt><trkpt lat="45.9824288" lon="12.7486279"><ele>33.0</ele><time>2026-04-06T17:55:50.051Z</time></trkpt><trkpt lat="45.9824961" lon="12.7487681"><ele>33.0</ele><time>2026-04-06T17:55:52.052Z</time></trkpt><trkpt lat="45.9825548" lon="12.7488888"><ele>33.0</ele><time>2026-04-06T17:55:54.052Z</time></trkpt><trkpt lat="45.9826371" lon="12.7490382"><ele>33.4</ele><time>2026-04-06T17:55:56.051Z</time></trkpt><trkpt lat="45.9826724" lon="12.7491171"><ele>33.8</ele><time>2026-04-06T17:55:57.052Z</time></trkpt><trkpt lat="45.9827169" lon="12.7492703"><ele>34.2</ele><time>2026-04-06T17:55:59.051Z</time></trkpt><trkpt lat="45.9827329" lon="12.7494165"><ele>34.6</ele><time>2026-04-06T17:56:01.051Z</time></trkpt><trkpt lat="45.9827376" lon="12.7495504"><ele>35.0</ele><time>2026-04-06T17:56:03.053Z</time></trkpt><trkpt lat="45.9827371" lon="12.7496696"><ele>35.0</ele><time>2026-04-06T17:56:05.052Z</time></trkpt><trkpt lat="45.9827208" lon="12.7497708"><ele>35.0</ele><time>2026-04-06T17:56:07.051Z</time></trkpt><trkpt lat="45.9827042" lon="12.7498692"><ele>35.0</ele><time>2026-04-06T17:56:09.051Z</time></trkpt><trkpt lat="45.9826692" lon="12.7499785"><ele>35.0</ele><time>2026-04-06T17:56:12.052Z</time></trkpt><trkpt lat="45.9827051" lon="12.7499007"><ele>35.0</ele><time>2026-04-06T17:56:21.052Z</time></trkpt><trkpt lat="45.9827068" lon="12.7498053"><ele>35.0</ele><time>2026-04-06T17:56:24.051Z</time></trkpt><trkpt lat="45.9827326" lon="12.749639"><ele>35.0</ele><time>2026-04-06T17:56:26.051Z</time></trkpt><trkpt lat="45.9827396" lon="12.7494466"><ele>35.0</ele><time>2026-04-06T17:56:28.051Z</time></trkpt><trkpt lat="45.9827307" lon="12.7493311"><ele>35.0</ele><time>2026-04-06T17:56:29.051Z</time></trkpt><trkpt lat="45.9827086" lon="12.7492301"><ele>35.0</ele><time>2026-04-06T17:56:30.052Z</time></trkpt><trkpt lat="45.9826783" lon="12.7491242"><ele>35.0</ele><time>2026-04-06T17:56:31.051Z</time></trkpt><trkpt lat="45.9826441" lon="12.7490342"><ele>35.0</ele><time>2026-04-06T17:56:32.052Z</time></trkpt><trkpt lat="45.9826065" lon="12.7489588"><ele>35.0</ele><time>2026-04-06T17:56:33.052Z</time></trkpt><trkpt lat="45.9825251" lon="12.7488351"><ele>35.0</ele><time>2026-04-06T17:56:35.051Z</time></trkpt><trkpt lat="45.9824942" lon="12.7487209"><ele>35.0</ele><time>2026-04-06T17:56:37.051Z</time></trkpt><trkpt lat="45.9825279" lon="12.7486331"><ele>35.0</ele><time>2026-04-06T17:56:39.051Z</time></trkpt><trkpt lat="45.9826102" lon="12.7485666"><ele>35.0</ele><time>2026-04-06T17:56:41.051Z</time></trkpt><trkpt lat="45.9827117" lon="12.7485426"><ele>35.0</ele><time>2026-04-06T17:56:43.052Z</time></trkpt><trkpt lat="45.982834" lon="12.7485845"><ele>35.0</ele><time>2026-04-06T17:56:45.052Z</time></trkpt><trkpt lat="45.9829067" lon="12.7486209"><ele>35.0</ele><time>2026-04-06T17:56:46.051Z</time></trkpt><trkpt lat="45.9829786" lon="12.7486516"><ele>35.0</ele><time>2026-04-06T17:56:47.052Z</time></trkpt><trkpt lat="45.9830532" lon="12.7486731"><ele>35.0</ele><time>2026-04-06T17:56:48.051Z</time></trkpt><trkpt lat="45.983133" lon="12.7486882"><ele>35.0</ele><time>2026-04-06T17:56:49.051Z</time></trkpt><trkpt lat="45.9832205" lon="12.7486965"><ele>35.0</ele><time>2026-04-06T17:56:50.051Z</time></trkpt><trkpt lat="45.983314" lon="12.7486965"><ele>35.0</ele><time>2026-04-06T17:56:51.051Z</time></trkpt><trkpt lat="45.9834126" lon="12.7486959"><ele>35.0</ele><time>2026-04-06T17:56:52.051Z</time></trkpt><trkpt lat="45.9835084" lon="12.7486957"><ele>35.0</ele><time>2026-04-06T17:56:53.052Z</time></trkpt><trkpt lat="45.9836096" lon="12.7486911"><ele>35.0</ele><time>2026-04-06T17:56:54.052Z</time></trkpt><trkpt lat="45.983712" lon="12.7486871"><ele>34.8</ele><time>2026-04-06T17:56:55.053Z</time></trkpt><trkpt lat="45.9838127" lon="12.7486889"><ele>34.6</ele><time>2026-04-06T17:56:56.052Z</time></trkpt><trkpt lat="45.9839094" lon="12.7486902"><ele>34.4</ele><time>2026-04-06T17:56:57.052Z</time></trkpt><trkpt lat="45.9840074" lon="12.7486959"><ele>34.2</ele><time>2026-04-06T17:56:58.051Z</time></trkpt><trkpt lat="45.9841101" lon="12.7487013"><ele>34.0</ele><time>2026-04-06T17:56:59.051Z</time></trkpt><trkpt lat="45.9842128" lon="12.7487063"><ele>33.8</ele><time>2026-04-06T17:57:00.052Z</time></trkpt><trkpt lat="45.9843174" lon="12.7487071"><ele>33.599999999999994</ele><time>2026-04-06T17:57:01.051Z</time></trkpt><trkpt lat="45.9844156" lon="12.7487059"><ele>33.4</ele><time>2026-04-06T17:57:02.051Z</time></trkpt><trkpt lat="45.9845134" lon="12.7486958"><ele>33.199999999999996</ele><time>2026-04-06T17:57:03.052Z</time></trkpt><trkpt lat="45.9846133" lon="12.748673"><ele>33.0</ele><time>2026-04-06T17:57:04.051Z</time></trkpt><trkpt lat="45.9847092" lon="12.7486373"><ele>33.0</ele><time>2026-04-06T17:57:05.052Z</time></trkpt><trkpt lat="45.9847985" lon="12.7486"><ele>33.0</ele><time>2026-04-06T17:57:06.052Z</time></trkpt><trkpt lat="45.98489" lon="12.7485592"><ele>33.0</ele><time>2026-04-06T17:57:07.053Z</time></trkpt><trkpt lat="45.9849835" lon="12.7485153"><ele>33.0</ele><time>2026-04-06T17:57:08.051Z</time></trkpt><trkpt lat="45.9850791" lon="12.7484729"><ele>33.0</ele><time>2026-04-06T17:57:09.051Z</time></trkpt><trkpt lat="45.9851765" lon="12.7484307"><ele>33.199999999999996</ele><time>2026-04-06T17:57:10.052Z</time></trkpt><trkpt lat="45.9852763" lon="12.7483881"><ele>33.4</ele><time>2026-04-06T17:57:11.053Z</time></trkpt><trkpt lat="45.9853798" lon="12.7483433"><ele>33.599999999999994</ele><time>2026-04-06T17:57:12.051Z</time></trkpt><trkpt lat="45.9854826" lon="12.748298"><ele>33.8</ele><time>2026-04-06T17:57:13.052Z</time></trkpt><trkpt lat="45.9855802" lon="12.7482484"><ele>34.0</ele><time>2026-04-06T17:57:14.051Z</time></trkpt><trkpt lat="45.9856676" lon="12.7481956"><ele>34.0</ele><time>2026-04-06T17:57:15.053Z</time></trkpt><trkpt lat="45.9857502" lon="12.7481366"><ele>34.0</ele><time>2026-04-06T17:57:16.053Z</time></trkpt><trkpt lat="45.9858328" lon="12.7480712"><ele>34.0</ele><time>2026-04-06T17:57:17.051Z</time></trkpt><trkpt lat="45.9859192" lon="12.7479963"><ele>34.0</ele><time>2026-04-06T17:57:18.051Z</time></trkpt><trkpt lat="45.9860036" lon="12.7479158"><ele>34.0</ele><time>2026-04-06T17:57:19.051Z</time></trkpt><trkpt lat="45.9860869" lon="12.7478276"><ele>34.6</ele><time>2026-04-06T17:57:20.052Z</time></trkpt><trkpt lat="45.9861647" lon="12.7477369"><ele>35.2</ele><time>2026-04-06T17:57:21.051Z</time></trkpt><trkpt lat="45.9862346" lon="12.7476387"><ele>35.800000000000004</ele><time>2026-04-06T17:57:22.051Z</time></trkpt><trkpt lat="45.9863082" lon="12.7475389"><ele>36.4</ele><time>2026-04-06T17:57:23.052Z</time></trkpt><trkpt lat="45.9863898" lon="12.7474413"><ele>37.0</ele><time>2026-04-06T17:57:24.051Z</time></trkpt><trkpt lat="45.9864749" lon="12.7473465"><ele>37.0</ele><time>2026-04-06T17:57:25.051Z</time></trkpt><trkpt lat="45.986556" lon="12.7472642"><ele>37.0</ele><time>2026-04-06T17:57:26.051Z</time></trkpt><trkpt lat="45.9866356" lon="12.7471967"><ele>37.0</ele><time>2026-04-06T17:57:27.051Z</time></trkpt><trkpt lat="45.9867224" lon="12.7471412"><ele>37.0</ele><time>2026-04-06T17:57:28.051Z</time></trkpt><trkpt lat="45.9868223" lon="12.7470999"><ele>37.0</ele><time>2026-04-06T17:57:29.052Z</time></trkpt><trkpt lat="45.986929" lon="12.7470657"><ele>36.75</ele><time>2026-04-06T17:57:30.051Z</time></trkpt><trkpt lat="45.987043" lon="12.7470348"><ele>36.5</ele><time>2026-04-06T17:57:31.051Z</time></trkpt><trkpt lat="45.987163" lon="12.7470063"><ele>36.25</ele><time>2026-04-06T17:57:32.052Z</time></trkpt><trkpt lat="45.9872799" lon="12.7469794"><ele>36.0</ele><time>2026-04-06T17:57:33.051Z</time></trkpt><trkpt lat="45.9873986" lon="12.7469575"><ele>36.0</ele><time>2026-04-06T17:57:34.052Z</time></trkpt><trkpt lat="45.9875224" lon="12.7469327"><ele>36.0</ele><time>2026-04-06T17:57:35.051Z</time></trkpt><trkpt lat="45.9876491" lon="12.7469002"><ele>36.0</ele><time>2026-04-06T17:57:36.052Z</time></trkpt><trkpt lat="45.987771" lon="12.7468649"><ele>36.0</ele><time>2026-04-06T17:57:37.052Z</time></trkpt><trkpt lat="45.9878895" lon="12.7468305"><ele>36.0</ele><time>2026-04-06T17:57:38.051Z</time></trkpt><trkpt lat="45.9880147" lon="12.7467964"><ele>36.0</ele><time>2026-04-06T17:57:39.051Z</time></trkpt><trkpt lat="45.9881371" lon="12.7467611"><ele>36.0</ele><time>2026-04-06T17:57:40.052Z</time></trkpt><trkpt lat="45.9882706" lon="12.7467231"><ele>36.0</ele><time>2026-04-06T17:57:41.051Z</time></trkpt><trkpt lat="45.9884072" lon="12.7466826"><ele>36.0</ele><time>2026-04-06T17:57:42.052Z</time></trkpt><trkpt lat="45.9885477" lon="12.746646"><ele>36.0</ele><time>2026-04-06T17:57:43.051Z</time></trkpt><trkpt lat="45.988692" lon="12.7466083"><ele>36.0</ele><time>2026-04-06T17:57:44.051Z</time></trkpt><trkpt lat="45.9888396" lon="12.7465681"><ele>36.0</ele><time>2026-04-06T17:57:45.051Z</time></trkpt><trkpt lat="45.9889882" lon="12.7465293"><ele>36.0</ele><time>2026-04-06T17:57:46.051Z</time></trkpt><trkpt lat="45.9891396" lon="12.7464904"><ele>36.0</ele><time>2026-04-06T17:57:47.052Z</time></trkpt><trkpt lat="45.9892849" lon="12.7464515"><ele>36.0</ele><time>2026-04-06T17:57:48.053Z</time></trkpt><trkpt lat="45.9894179" lon="12.7464182"><ele>36.0</ele><time>2026-04-06T17:57:49.051Z</time></trkpt><trkpt lat="45.9895478" lon="12.7463889"><ele>37.0</ele><time>2026-04-06T17:57:50.051Z</time></trkpt><trkpt lat="45.9896776" lon="12.7463525"><ele>38.0</ele><time>2026-04-06T17:57:51.052Z</time></trkpt><trkpt lat="45.9898037" lon="12.7463206"><ele>39.0</ele><time>2026-04-06T17:57:52.051Z</time></trkpt><trkpt lat="45.9899197" lon="12.746292"><ele>40.0</ele><time>2026-04-06T17:57:53.051Z</time></trkpt><trkpt lat="45.9900376" lon="12.7462623"><ele>40.25</ele><time>2026-04-06T17:57:54.051Z</time></trkpt><trkpt lat="45.9901572" lon="12.7462337"><ele>40.5</ele><time>2026-04-06T17:57:55.051Z</time></trkpt><trkpt lat="45.9902816" lon="12.7462045"><ele>40.75</ele><time>2026-04-06T17:57:56.051Z</time></trkpt><trkpt lat="45.9904052" lon="12.7461695"><ele>41.0</ele><time>2026-04-06T17:57:57.053Z</time></trkpt><trkpt lat="45.9905168" lon="12.7461372"><ele>41.0</ele><time>2026-04-06T17:57:58.052Z</time></trkpt><trkpt lat="45.9906252" lon="12.7461075"><ele>41.0</ele><time>2026-04-06T17:57:59.052Z</time></trkpt><trkpt lat="45.9907349" lon="12.7460776"><ele>41.0</ele><time>2026-04-06T17:58:00.052Z</time></trkpt><trkpt lat="45.9908418" lon="12.7460466"><ele>41.0</ele><time>2026-04-06T17:58:01.052Z</time></trkpt><trkpt lat="45.9909521" lon="12.7460236"><ele>41.0</ele><time>2026-04-06T17:58:02.051Z</time></trkpt><trkpt lat="45.9910625" lon="12.7460014"><ele>40.83333333333333</ele><time>2026-04-06T17:58:03.051Z</time></trkpt><trkpt lat="45.991159" lon="12.7459706"><ele>40.666666666666664</ele><time>2026-04-06T17:58:04.052Z</time></trkpt><trkpt lat="45.9912501" lon="12.7459462"><ele>40.5</ele><time>2026-04-06T17:58:05.053Z</time></trkpt><trkpt lat="45.9913335" lon="12.745922"><ele>40.333333333333336</ele><time>2026-04-06T17:58:06.053Z</time></trkpt><trkpt lat="45.9914157" lon="12.7459028"><ele>40.16666666666667</ele><time>2026-04-06T17:58:07.051Z</time></trkpt><trkpt lat="45.9914948" lon="12.7458803"><ele>40.0</ele><time>2026-04-06T17:58:08.051Z</time></trkpt><trkpt lat="45.9915701" lon="12.7458621"><ele>40.0</ele><time>2026-04-06T17:58:09.052Z</time></trkpt><trkpt lat="45.9916448" lon="12.7458422"><ele>40.0</ele><time>2026-04-06T17:58:10.052Z</time></trkpt><trkpt lat="45.9917135" lon="12.7458232"><ele>40.0</ele><time>2026-04-06T17:58:11.051Z</time></trkpt><trkpt lat="45.9917853" lon="12.745809"><ele>40.0</ele><time>2026-04-06T17:58:12.051Z</time></trkpt><trkpt lat="45.991855" lon="12.7457869"><ele>40.0</ele><time>2026-04-06T17:58:13.052Z</time></trkpt><trkpt lat="45.9919254" lon="12.7457688"><ele>40.0</ele><time>2026-04-06T17:58:14.051Z</time></trkpt><trkpt lat="45.9919975" lon="12.7457515"><ele>40.0</ele><time>2026-04-06T17:58:15.052Z</time></trkpt><trkpt lat="45.9920741" lon="12.7457356"><ele>39.8</ele><time>2026-04-06T17:58:16.052Z</time></trkpt><trkpt lat="45.9921579" lon="12.7457156"><ele>39.6</ele><time>2026-04-06T17:58:17.053Z</time></trkpt><trkpt lat="45.9922587" lon="12.7456919"><ele>39.4</ele><time>2026-04-06T17:58:18.052Z</time></trkpt><trkpt lat="45.9923724" lon="12.7456618"><ele>39.2</ele><time>2026-04-06T17:58:19.051Z</time></trkpt><trkpt lat="45.9924974" lon="12.7456301"><ele>39.0</ele><time>2026-04-06T17:58:20.052Z</time></trkpt><trkpt lat="45.9926286" lon="12.7455957"><ele>39.0</ele><time>2026-04-06T17:58:21.051Z</time></trkpt><trkpt lat="45.9927557" lon="12.7455621"><ele>39.0</ele><time>2026-04-06T17:58:22.051Z</time></trkpt><trkpt lat="45.9928839" lon="12.7455273"><ele>39.0</ele><time>2026-04-06T17:58:23.052Z</time></trkpt><trkpt lat="45.99302" lon="12.745493"><ele>39.0</ele><time>2026-04-06T17:58:24.051Z</time></trkpt><trkpt lat="45.9931593" lon="12.7454542"><ele>39.0</ele><time>2026-04-06T17:58:25.051Z</time></trkpt><trkpt lat="45.9933" lon="12.7454151"><ele>39.0</ele><time>2026-04-06T17:58:26.052Z</time></trkpt><trkpt lat="45.9934326" lon="12.7453809"><ele>39.0</ele><time>2026-04-06T17:58:27.051Z</time></trkpt><trkpt lat="45.9935522" lon="12.7453483"><ele>39.0</ele><time>2026-04-06T17:58:28.053Z</time></trkpt><trkpt lat="45.9936563" lon="12.7453198"><ele>39.5</ele><time>2026-04-06T17:58:29.052Z</time></trkpt><trkpt lat="45.9937498" lon="12.7452994"><ele>40.0</ele><time>2026-04-06T17:58:30.051Z</time></trkpt><trkpt lat="45.9938345" lon="12.7452814"><ele>40.5</ele><time>2026-04-06T17:58:31.051Z</time></trkpt><trkpt lat="45.9939149" lon="12.7452622"><ele>41.0</ele><time>2026-04-06T17:58:32.052Z</time></trkpt><trkpt lat="45.9939825" lon="12.74525"><ele>41.5</ele><time>2026-04-06T17:58:33.052Z</time></trkpt><trkpt lat="45.9940748" lon="12.7452196"><ele>42.0</ele><time>2026-04-06T17:58:35.051Z</time></trkpt><trkpt lat="45.9941362" lon="12.7451567"><ele>42.0</ele><time>2026-04-06T17:58:37.051Z</time></trkpt><trkpt lat="45.9941702" lon="12.7450205"><ele>42.0</ele><time>2026-04-06T17:58:39.051Z</time></trkpt><trkpt lat="45.9941764" lon="12.7449176"><ele>42.0</ele><time>2026-04-06T17:58:40.051Z</time></trkpt><trkpt lat="45.9941755" lon="12.7448004"><ele>42.0</ele><time>2026-04-06T17:58:41.052Z</time></trkpt><trkpt lat="45.994173" lon="12.7446614"><ele>42.0</ele><time>2026-04-06T17:58:42.051Z</time></trkpt><trkpt lat="45.994169" lon="12.7445047"><ele>42.0</ele><time>2026-04-06T17:58:43.052Z</time></trkpt><trkpt lat="45.9941656" lon="12.7443332"><ele>42.0</ele><time>2026-04-06T17:58:44.052Z</time></trkpt><trkpt lat="45.9941628" lon="12.7441687"><ele>42.0</ele><time>2026-04-06T17:58:45.052Z</time></trkpt><trkpt lat="45.9941624" lon="12.7439971"><ele>42.0</ele><time>2026-04-06T17:58:46.052Z</time></trkpt><trkpt lat="45.9941652" lon="12.7438205"><ele>42.0</ele><time>2026-04-06T17:58:47.051Z</time></trkpt><trkpt lat="45.9941727" lon="12.7436501"><ele>42.0</ele><time>2026-04-06T17:58:48.052Z</time></trkpt><trkpt lat="45.9941815" lon="12.7434822"><ele>42.0</ele><time>2026-04-06T17:58:49.052Z</time></trkpt><trkpt lat="45.9941912" lon="12.7433083"><ele>42.0</ele><time>2026-04-06T17:58:50.052Z</time></trkpt><trkpt lat="45.9942024" lon="12.7431309"><ele>42.25</ele><time>2026-04-06T17:58:51.051Z</time></trkpt><trkpt lat="45.9942143" lon="12.7429559"><ele>42.5</ele><time>2026-04-06T17:58:52.052Z</time></trkpt><trkpt lat="45.9942296" lon="12.7427764"><ele>42.75</ele><time>2026-04-06T17:58:53.052Z</time></trkpt><trkpt lat="45.9942421" lon="12.7425941"><ele>43.0</ele><time>2026-04-06T17:58:54.051Z</time></trkpt><trkpt lat="45.994255" lon="12.7424116"><ele>43.0</ele><time>2026-04-06T17:58:55.052Z</time></trkpt><trkpt lat="45.994269" lon="12.7422255"><ele>43.0</ele><time>2026-04-06T17:58:56.051Z</time></trkpt><trkpt lat="45.9942819" lon="12.7420399"><ele>43.0</ele><time>2026-04-06T17:58:57.051Z</time></trkpt><trkpt lat="45.9942976" lon="12.7418558"><ele>43.0</ele><time>2026-04-06T17:58:58.052Z</time></trkpt><trkpt lat="45.9943112" lon="12.741669"><ele>42.8</ele><time>2026-04-06T17:58:59.051Z</time></trkpt><trkpt lat="45.9943259" lon="12.7414845"><ele>42.599999999999994</ele><time>2026-04-06T17:59:00.051Z</time></trkpt><trkpt lat="45.9943404" lon="12.7413124"><ele>42.400000000000006</ele><time>2026-04-06T17:59:01.052Z</time></trkpt><trkpt lat="45.9943514" lon="12.7411678"><ele>42.2</ele><time>2026-04-06T17:59:02.051Z</time></trkpt><trkpt lat="45.9943664" lon="12.7410293"><ele>42.0</ele><time>2026-04-06T17:59:03.051Z</time></trkpt><trkpt lat="45.9943826" lon="12.7408863"><ele>41.75</ele><time>2026-04-06T17:59:04.052Z</time></trkpt><trkpt lat="45.9944022" lon="12.7407278"><ele>41.5</ele><time>2026-04-06T17:59:05.052Z</time></trkpt><trkpt lat="45.9944208" lon="12.7405527"><ele>41.25</ele><time>2026-04-06T17:59:06.053Z</time></trkpt><trkpt lat="45.9944381" lon="12.7403685"><ele>41.0</ele><time>2026-04-06T17:59:07.053Z</time></trkpt><trkpt lat="45.9944586" lon="12.7401756"><ele>41.0</ele><time>2026-04-06T17:59:08.052Z</time></trkpt><trkpt lat="45.9944764" lon="12.7399744"><ele>41.0</ele><time>2026-04-06T17:59:09.051Z</time></trkpt><trkpt lat="45.9944944" lon="12.7397792"><ele>41.0</ele><time>2026-04-06T17:59:10.051Z</time></trkpt><trkpt lat="45.9945121" lon="12.7395937"><ele>41.0</ele><time>2026-04-06T17:59:11.051Z</time></trkpt><trkpt lat="45.9945299" lon="12.7394049"><ele>41.0</ele><time>2026-04-06T17:59:12.052Z</time></trkpt><trkpt lat="45.9945467" lon="12.7392245"><ele>41.0</ele><time>2026-04-06T17:59:13.052Z</time></trkpt><trkpt lat="45.9945583" lon="12.739065"><ele>41.0</ele><time>2026-04-06T17:59:14.051Z</time></trkpt><trkpt lat="45.9945651" lon="12.7389249"><ele>41.0</ele><time>2026-04-06T17:59:15.051Z</time></trkpt><trkpt lat="45.9945601" lon="12.7387809"><ele>41.0</ele><time>2026-04-06T17:59:16.052Z</time></trkpt><trkpt lat="45.9945417" lon="12.7386317"><ele>41.0</ele><time>2026-04-06T17:59:17.052Z</time></trkpt><trkpt lat="45.9945108" lon="12.7384729"><ele>41.0</ele><time>2026-04-06T17:59:18.052Z</time></trkpt><trkpt lat="45.9944685" lon="12.7383115"><ele>41.0</ele><time>2026-04-06T17:59:19.052Z</time></trkpt><trkpt lat="45.9944201" lon="12.7381411"><ele>41.0</ele><time>2026-04-06T17:59:20.052Z</time></trkpt><trkpt lat="45.9943695" lon="12.7379652"><ele>41.0</ele><time>2026-04-06T17:59:21.052Z</time></trkpt><trkpt lat="45.9943184" lon="12.7377932"><ele>41.0</ele><time>2026-04-06T17:59:22.052Z</time></trkpt><trkpt lat="45.9942664" lon="12.7376371"><ele>41.0</ele><time>2026-04-06T17:59:23.051Z</time></trkpt><trkpt lat="45.9942213" lon="12.7375003"><ele>41.0</ele><time>2026-04-06T17:59:24.051Z</time></trkpt><trkpt lat="45.9941857" lon="12.7373674"><ele>41.199999999999996</ele><time>2026-04-06T17:59:25.051Z</time></trkpt><trkpt lat="45.994152" lon="12.7372242"><ele>41.4</ele><time>2026-04-06T17:59:26.051Z</time></trkpt><trkpt lat="45.9941292" lon="12.7370736"><ele>41.6</ele><time>2026-04-06T17:59:27.051Z</time></trkpt><trkpt lat="45.9941216" lon="12.7369164"><ele>41.8</ele><time>2026-04-06T17:59:28.053Z</time></trkpt><trkpt lat="45.9941258" lon="12.7367502"><ele>42.0</ele><time>2026-04-06T17:59:29.053Z</time></trkpt><trkpt lat="45.9941429" lon="12.73658"><ele>42.0</ele><time>2026-04-06T17:59:30.052Z</time></trkpt><trkpt lat="45.9941714" lon="12.7364033"><ele>42.0</ele><time>2026-04-06T17:59:31.052Z</time></trkpt><trkpt lat="45.9942019" lon="12.7362266"><ele>42.0</ele><time>2026-04-06T17:59:32.052Z</time></trkpt><trkpt lat="45.9942285" lon="12.7360481"><ele>42.0</ele><time>2026-04-06T17:59:33.052Z</time></trkpt><trkpt lat="45.9942548" lon="12.7358725"><ele>41.75</ele><time>2026-04-06T17:59:34.052Z</time></trkpt><trkpt lat="45.9942797" lon="12.7356946"><ele>41.5</ele><time>2026-04-06T17:59:35.051Z</time></trkpt><trkpt lat="45.9943012" lon="12.7355162"><ele>41.25</ele><time>2026-04-06T17:59:36.051Z</time></trkpt><trkpt lat="45.9943244" lon="12.7353429"><ele>41.0</ele><time>2026-04-06T17:59:37.052Z</time></trkpt><trkpt lat="45.9943468" lon="12.7351769"><ele>41.0</ele><time>2026-04-06T17:59:38.051Z</time></trkpt><trkpt lat="45.9943728" lon="12.7350171"><ele>41.0</ele><time>2026-04-06T17:59:39.052Z</time></trkpt><trkpt lat="45.9944019" lon="12.7348585"><ele>41.0</ele><time>2026-04-06T17:59:40.051Z</time></trkpt><trkpt lat="45.9944355" lon="12.7347001"><ele>41.0</ele><time>2026-04-06T17:59:41.051Z</time></trkpt><trkpt lat="45.994471" lon="12.7345441"><ele>41.5</ele><time>2026-04-06T17:59:42.051Z</time></trkpt><trkpt lat="45.9945184" lon="12.7343863"><ele>42.0</ele><time>2026-04-06T17:59:43.053Z</time></trkpt><trkpt lat="45.9945698" lon="12.7342291"><ele>42.5</ele><time>2026-04-06T17:59:44.053Z</time></trkpt><trkpt lat="45.9946202" lon="12.7340649"><ele>43.0</ele><time>2026-04-06T17:59:45.051Z</time></trkpt><trkpt lat="45.9946709" lon="12.7339008"><ele>43.0</ele><time>2026-04-06T17:59:46.051Z</time></trkpt><trkpt lat="45.9947199" lon="12.7337359"><ele>43.0</ele><time>2026-04-06T17:59:47.051Z</time></trkpt><trkpt lat="45.9947581" lon="12.7335779"><ele>43.0</ele><time>2026-04-06T17:59:48.051Z</time></trkpt><trkpt lat="45.9947843" lon="12.7334155"><ele>43.0</ele><time>2026-04-06T17:59:49.051Z</time></trkpt><trkpt lat="45.9947992" lon="12.7332465"><ele>43.25</ele><time>2026-04-06T17:59:50.051Z</time></trkpt><trkpt lat="45.9948085" lon="12.7330752"><ele>43.5</ele><time>2026-04-06T17:59:51.051Z</time></trkpt><trkpt lat="45.9948125" lon="12.7329017"><ele>43.75</ele><time>2026-04-06T17:59:52.052Z</time></trkpt><trkpt lat="45.994813" lon="12.7327221"><ele>44.0</ele><time>2026-04-06T17:59:53.053Z</time></trkpt><trkpt lat="45.9948156" lon="12.7325453"><ele>44.0</ele><time>2026-04-06T17:59:54.051Z</time></trkpt><trkpt lat="45.9948172" lon="12.7323641"><ele>44.0</ele><time>2026-04-06T17:59:55.051Z</time></trkpt><trkpt lat="45.9948173" lon="12.7321897"><ele>44.0</ele><time>2026-04-06T17:59:56.051Z</time></trkpt><trkpt lat="45.9948172" lon="12.7320223"><ele>44.0</ele><time>2026-04-06T17:59:57.052Z</time></trkpt><trkpt lat="45.9948177" lon="12.7318562"><ele>44.25</ele><time>2026-04-06T17:59:58.051Z</time></trkpt><trkpt lat="45.9948133" lon="12.7316883"><ele>44.5</ele><time>2026-04-06T17:59:59.053Z</time></trkpt><trkpt lat="45.9948048" lon="12.7315215"><ele>44.75</ele><time>2026-04-06T18:00:00.053Z</time></trkpt><trkpt lat="45.9947913" lon="12.7313556"><ele>45.0</ele><time>2026-04-06T18:00:01.052Z</time></trkpt><trkpt lat="45.9947738" lon="12.7311947"><ele>45.0</ele><time>2026-04-06T18:00:02.052Z</time></trkpt><trkpt lat="45.9947537" lon="12.7310448"><ele>45.0</ele><time>2026-04-06T18:00:03.052Z</time></trkpt><trkpt lat="45.9947336" lon="12.7309051"><ele>45.0</ele><time>2026-04-06T18:00:04.051Z</time></trkpt><trkpt lat="45.9947139" lon="12.7307662"><ele>45.0</ele><time>2026-04-06T18:00:05.052Z</time></trkpt><trkpt lat="45.994688" lon="12.7306242"><ele>45.0</ele><time>2026-04-06T18:00:06.051Z</time></trkpt><trkpt lat="45.9946604" lon="12.7304735"><ele>45.0</ele><time>2026-04-06T18:00:07.051Z</time></trkpt><trkpt lat="45.9946346" lon="12.73033"><ele>45.0</ele><time>2026-04-06T18:00:08.052Z</time></trkpt><trkpt lat="45.9946087" lon="12.730196"><ele>45.0</ele><time>2026-04-06T18:00:09.051Z</time></trkpt><trkpt lat="45.9945869" lon="12.7300708"><ele>45.0</ele><time>2026-04-06T18:00:10.052Z</time></trkpt><trkpt lat="45.9945663" lon="12.7299414"><ele>45.0</ele><time>2026-04-06T18:00:11.051Z</time></trkpt><trkpt lat="45.9945446" lon="12.7298185"><ele>45.0</ele><time>2026-04-06T18:00:12.052Z</time></trkpt><trkpt lat="45.9945245" lon="12.7296938"><ele>45.0</ele><time>2026-04-06T18:00:13.051Z</time></trkpt><trkpt lat="45.994503" lon="12.7295633"><ele>45.0</ele><time>2026-04-06T18:00:14.052Z</time></trkpt><trkpt lat="45.9944784" lon="12.7294222"><ele>45.0</ele><time>2026-04-06T18:00:15.051Z</time></trkpt><trkpt lat="45.9944515" lon="12.7292765"><ele>45.0</ele><time>2026-04-06T18:00:16.051Z</time></trkpt><trkpt lat="45.9944245" lon="12.7291356"><ele>44.8</ele><time>2026-04-06T18:00:17.052Z</time></trkpt><trkpt lat="45.9943932" lon="12.7289836"><ele>44.6</ele><time>2026-04-06T18:00:18.052Z</time></trkpt><trkpt lat="45.9943598" lon="12.7288243"><ele>44.400000000000006</ele><time>2026-04-06T18:00:19.052Z</time></trkpt><trkpt lat="45.9943313" lon="12.7286709"><ele>44.2</ele><time>2026-04-06T18:00:20.051Z</time></trkpt><trkpt lat="45.9943059" lon="12.7285312"><ele>44.0</ele><time>2026-04-06T18:00:21.051Z</time></trkpt><trkpt lat="45.9942868" lon="12.7283974"><ele>43.800000000000004</ele><time>2026-04-06T18:00:22.051Z</time></trkpt><trkpt lat="45.9942785" lon="12.7282621"><ele>43.6</ele><time>2026-04-06T18:00:23.051Z</time></trkpt><trkpt lat="45.9942798" lon="12.728118"><ele>43.4</ele><time>2026-04-06T18:00:24.052Z</time></trkpt><trkpt lat="45.9942925" lon="12.7279714"><ele>43.2</ele><time>2026-04-06T18:00:25.053Z</time></trkpt><trkpt lat="45.9943136" lon="12.7278197"><ele>43.0</ele><time>2026-04-06T18:00:26.052Z</time></trkpt><trkpt lat="45.9943387" lon="12.7276643"><ele>42.8</ele><time>2026-04-06T18:00:27.051Z</time></trkpt><trkpt lat="45.9943724" lon="12.7275075"><ele>42.599999999999994</ele><time>2026-04-06T18:00:28.052Z</time></trkpt><trkpt lat="45.9944129" lon="12.7273538"><ele>42.400000000000006</ele><time>2026-04-06T18:00:29.051Z</time></trkpt><trkpt lat="45.994456" lon="12.7272082"><ele>42.2</ele><time>2026-04-06T18:00:30.051Z</time></trkpt><trkpt lat="45.9944916" lon="12.7270727"><ele>42.0</ele><time>2026-04-06T18:00:31.053Z</time></trkpt><trkpt lat="45.9945197" lon="12.7269359"><ele>42.400000000000006</ele><time>2026-04-06T18:00:32.051Z</time></trkpt><trkpt lat="45.9945359" lon="12.7268033"><ele>42.800000000000004</ele><time>2026-04-06T18:00:33.051Z</time></trkpt><trkpt lat="45.9945362" lon="12.7266659"><ele>43.2</ele><time>2026-04-06T18:00:34.051Z</time></trkpt><trkpt lat="45.994528" lon="12.7265276"><ele>43.6</ele><time>2026-04-06T18:00:35.051Z</time></trkpt><trkpt lat="45.9945149" lon="12.7263832"><ele>44.0</ele><time>2026-04-06T18:00:36.052Z</time></trkpt><trkpt lat="45.994497" lon="12.7262385"><ele>44.0</ele><time>2026-04-06T18:00:37.052Z</time></trkpt><trkpt lat="45.9944803" lon="12.7261065"><ele>44.0</ele><time>2026-04-06T18:00:38.051Z</time></trkpt><trkpt lat="45.9944619" lon="12.7259787"><ele>44.0</ele><time>2026-04-06T18:00:39.051Z</time></trkpt><trkpt lat="45.9944393" lon="12.7258411"><ele>44.0</ele><time>2026-04-06T18:00:40.052Z</time></trkpt><trkpt lat="45.9944177" lon="12.7256962"><ele>44.0</ele><time>2026-04-06T18:00:41.051Z</time></trkpt><trkpt lat="45.9943944" lon="12.7255423"><ele>44.2</ele><time>2026-04-06T18:00:42.051Z</time></trkpt><trkpt lat="45.9943674" lon="12.7253881"><ele>44.400000000000006</ele><time>2026-04-06T18:00:43.051Z</time></trkpt><trkpt lat="45.9943414" lon="12.7252368"><ele>44.6</ele><time>2026-04-06T18:00:44.052Z</time></trkpt><trkpt lat="45.9943231" lon="12.7250955"><ele>44.8</ele><time>2026-04-06T18:00:45.052Z</time></trkpt><trkpt lat="45.9943075" lon="12.7249659"><ele>45.0</ele><time>2026-04-06T18:00:46.052Z</time></trkpt><trkpt lat="45.9942928" lon="12.7248421"><ele>44.333333333333336</ele><time>2026-04-06T18:00:47.051Z</time></trkpt><trkpt lat="45.9942808" lon="12.7247263"><ele>43.666666666666664</ele><time>2026-04-06T18:00:48.052Z</time></trkpt><trkpt lat="45.9942715" lon="12.7246253"><ele>43.0</ele><time>2026-04-06T18:00:49.052Z</time></trkpt><trkpt lat="45.9942645" lon="12.7245347"><ele>42.33333333333333</ele><time>2026-04-06T18:00:50.052Z</time></trkpt><trkpt lat="45.9942636" lon="12.7244207"><ele>41.666666666666664</ele><time>2026-04-06T18:00:52.051Z</time></trkpt><trkpt lat="45.9942617" lon="12.7243028"><ele>41.0</ele><time>2026-04-06T18:01:00.051Z</time></trkpt><trkpt lat="45.9942316" lon="12.7241805"><ele>41.0</ele><time>2026-04-06T18:01:02.052Z</time></trkpt><trkpt lat="45.9941752" lon="12.7240102"><ele>41.0</ele><time>2026-04-06T18:01:04.051Z</time></trkpt><trkpt lat="45.9941469" lon="12.7239181"><ele>41.0</ele><time>2026-04-06T18:01:05.052Z</time></trkpt><trkpt lat="45.9941226" lon="12.7238203"><ele>41.0</ele><time>2026-04-06T18:01:06.051Z</time></trkpt><trkpt lat="45.9940961" lon="12.7237066"><ele>41.0</ele><time>2026-04-06T18:01:07.051Z</time></trkpt><trkpt lat="45.9940662" lon="12.7235854"><ele>41.0</ele><time>2026-04-06T18:01:08.051Z</time></trkpt><trkpt lat="45.994036" lon="12.7234709"><ele>41.4</ele><time>2026-04-06T18:01:09.051Z</time></trkpt><trkpt lat="45.9940091" lon="12.7233448"><ele>41.8</ele><time>2026-04-06T18:01:10.052Z</time></trkpt><trkpt lat="45.9939796" lon="12.723209"><ele>42.199999999999996</ele><time>2026-04-06T18:01:11.053Z</time></trkpt><trkpt lat="45.9939509" lon="12.7230655"><ele>42.599999999999994</ele><time>2026-04-06T18:01:12.052Z</time></trkpt><trkpt lat="45.9939221" lon="12.7229158"><ele>43.0</ele><time>2026-04-06T18:01:13.051Z</time></trkpt><trkpt lat="45.9938939" lon="12.7227615"><ele>43.2</ele><time>2026-04-06T18:01:14.052Z</time></trkpt><trkpt lat="45.9938649" lon="12.7226167"><ele>43.4</ele><time>2026-04-06T18:01:15.051Z</time></trkpt><trkpt lat="45.9938346" lon="12.7224722"><ele>43.6</ele><time>2026-04-06T18:01:16.051Z</time></trkpt><trkpt lat="45.9938005" lon="12.7223265"><ele>43.800000000000004</ele><time>2026-04-06T18:01:17.053Z</time></trkpt><trkpt lat="45.9937626" lon="12.7221813"><ele>44.0</ele><time>2026-04-06T18:01:18.053Z</time></trkpt><trkpt lat="45.9937207" lon="12.7220361"><ele>44.5</ele><time>2026-04-06T18:01:19.051Z</time></trkpt><trkpt lat="45.9936802" lon="12.7218866"><ele>45.0</ele><time>2026-04-06T18:01:20.051Z</time></trkpt><trkpt lat="45.9936396" lon="12.7217349"><ele>45.5</ele><time>2026-04-06T18:01:21.051Z</time></trkpt><trkpt lat="45.9935981" lon="12.7215823"><ele>46.0</ele><time>2026-04-06T18:01:22.051Z</time></trkpt><trkpt lat="45.9935562" lon="12.7214261"><ele>46.0</ele><time>2026-04-06T18:01:23.051Z</time></trkpt><trkpt lat="45.99351" lon="12.7212664"><ele>46.0</ele><time>2026-04-06T18:01:24.053Z</time></trkpt><trkpt lat="45.9934653" lon="12.7211139"><ele>46.0</ele><time>2026-04-06T18:01:25.051Z</time></trkpt><trkpt lat="45.9934211" lon="12.7209567"><ele>46.0</ele><time>2026-04-06T18:01:26.051Z</time></trkpt><trkpt lat="45.9933755" lon="12.7207938"><ele>45.5</ele><time>2026-04-06T18:01:27.052Z</time></trkpt><trkpt lat="45.9933249" lon="12.7206235"><ele>45.0</ele><time>2026-04-06T18:01:28.052Z</time></trkpt><trkpt lat="45.9932706" lon="12.7204475"><ele>44.5</ele><time>2026-04-06T18:01:29.052Z</time></trkpt><trkpt lat="45.9932184" lon="12.7202632"><ele>44.0</ele><time>2026-04-06T18:01:30.052Z</time></trkpt><trkpt lat="45.9931655" lon="12.7200679"><ele>44.0</ele><time>2026-04-06T18:01:31.052Z</time></trkpt><trkpt lat="45.9931161" lon="12.7198837"><ele>44.0</ele><time>2026-04-06T18:01:32.051Z</time></trkpt><trkpt lat="45.9930676" lon="12.7197149"><ele>44.0</ele><time>2026-04-06T18:01:33.051Z</time></trkpt><trkpt lat="45.9930183" lon="12.7195534"><ele>44.0</ele><time>2026-04-06T18:01:34.052Z</time></trkpt><trkpt lat="45.9929708" lon="12.7193921"><ele>44.25</ele><time>2026-04-06T18:01:35.052Z</time></trkpt><trkpt lat="45.9929282" lon="12.7192273"><ele>44.5</ele><time>2026-04-06T18:01:36.052Z</time></trkpt><trkpt lat="45.9928823" lon="12.7190607"><ele>44.75</ele><time>2026-04-06T18:01:37.052Z</time></trkpt><trkpt lat="45.992836" lon="12.718891"><ele>45.0</ele><time>2026-04-06T18:01:38.052Z</time></trkpt><trkpt lat="45.9927922" lon="12.7187176"><ele>45.0</ele><time>2026-04-06T18:01:39.051Z</time></trkpt><trkpt lat="45.9927482" lon="12.7185546"><ele>45.0</ele><time>2026-04-06T18:01:40.052Z</time></trkpt><trkpt lat="45.992706" lon="12.7183958"><ele>45.0</ele><time>2026-04-06T18:01:41.051Z</time></trkpt><trkpt lat="45.9926612" lon="12.718239"><ele>45.0</ele><time>2026-04-06T18:01:42.051Z</time></trkpt><trkpt lat="45.9926167" lon="12.718077"><ele>45.0</ele><time>2026-04-06T18:01:43.052Z</time></trkpt><trkpt lat="45.9925718" lon="12.7179139"><ele>45.0</ele><time>2026-04-06T18:01:44.052Z</time></trkpt><trkpt lat="45.992525" lon="12.7177469"><ele>45.0</ele><time>2026-04-06T18:01:45.052Z</time></trkpt><trkpt lat="45.9924778" lon="12.7175788"><ele>45.0</ele><time>2026-04-06T18:01:46.051Z</time></trkpt><trkpt lat="45.9924339" lon="12.7174178"><ele>44.8</ele><time>2026-04-06T18:01:47.052Z</time></trkpt><trkpt lat="45.9923932" lon="12.7172647"><ele>44.6</ele><time>2026-04-06T18:01:48.051Z</time></trkpt><trkpt lat="45.992352" lon="12.7171186"><ele>44.400000000000006</ele><time>2026-04-06T18:01:49.051Z</time></trkpt><trkpt lat="45.9923129" lon="12.7169862"><ele>44.2</ele><time>2026-04-06T18:01:50.053Z</time></trkpt><trkpt lat="45.9922769" lon="12.7168639"><ele>44.0</ele><time>2026-04-06T18:01:51.051Z</time></trkpt><trkpt lat="45.9922446" lon="12.7167465"><ele>44.0</ele><time>2026-04-06T18:01:52.052Z</time></trkpt><trkpt lat="45.9922115" lon="12.7166358"><ele>44.0</ele><time>2026-04-06T18:01:53.053Z</time></trkpt><trkpt lat="45.9921812" lon="12.7165343"><ele>44.0</ele><time>2026-04-06T18:01:54.053Z</time></trkpt><trkpt lat="45.9921575" lon="12.7164407"><ele>44.0</ele><time>2026-04-06T18:01:55.052Z</time></trkpt><trkpt lat="45.9921624" lon="12.7162763"><ele>44.0</ele><time>2026-04-06T18:01:57.052Z</time></trkpt><trkpt lat="45.9922517" lon="12.7161539"><ele>44.0</ele><time>2026-04-06T18:01:59.052Z</time></trkpt><trkpt lat="45.9923266" lon="12.7161118"><ele>44.0</ele><time>2026-04-06T18:02:00.052Z</time></trkpt><trkpt lat="45.9924125" lon="12.7160689"><ele>44.0</ele><time>2026-04-06T18:02:01.051Z</time></trkpt><trkpt lat="45.9925009" lon="12.7160212"><ele>44.0</ele><time>2026-04-06T18:02:02.052Z</time></trkpt><trkpt lat="45.9925884" lon="12.7159728"><ele>44.0</ele><time>2026-04-06T18:02:03.052Z</time></trkpt><trkpt lat="45.9926788" lon="12.7159244"><ele>44.2</ele><time>2026-04-06T18:02:04.051Z</time></trkpt><trkpt lat="45.9927714" lon="12.7158781"><ele>44.400000000000006</ele><time>2026-04-06T18:02:05.051Z</time></trkpt><trkpt lat="45.9928797" lon="12.7158231"><ele>44.6</ele><time>2026-04-06T18:02:06.051Z</time></trkpt><trkpt lat="45.9929925" lon="12.7157628"><ele>44.8</ele><time>2026-04-06T18:02:07.052Z</time></trkpt><trkpt lat="45.9930954" lon="12.7157016"><ele>45.0</ele><time>2026-04-06T18:02:08.053Z</time></trkpt><trkpt lat="45.99319" lon="12.7156463"><ele>45.0</ele><time>2026-04-06T18:02:09.052Z</time></trkpt><trkpt lat="45.9932783" lon="12.7155986"><ele>45.0</ele><time>2026-04-06T18:02:10.051Z</time></trkpt><trkpt lat="45.9933689" lon="12.7155532"><ele>45.0</ele><time>2026-04-06T18:02:11.051Z</time></trkpt><trkpt lat="45.9934669" lon="12.7155038"><ele>45.0</ele><time>2026-04-06T18:02:12.051Z</time></trkpt><trkpt lat="45.9935684" lon="12.7154479"><ele>45.0</ele><time>2026-04-06T18:02:13.051Z</time></trkpt><trkpt lat="45.9936741" lon="12.7153847"><ele>45.0</ele><time>2026-04-06T18:02:14.051Z</time></trkpt><trkpt lat="45.9937791" lon="12.7153174"><ele>45.0</ele><time>2026-04-06T18:02:15.051Z</time></trkpt><trkpt lat="45.9938802" lon="12.7152487"><ele>45.0</ele><time>2026-04-06T18:02:16.051Z</time></trkpt><trkpt lat="45.9939855" lon="12.7151727"><ele>45.0</ele><time>2026-04-06T18:02:17.051Z</time></trkpt><trkpt lat="45.9940924" lon="12.7150952"><ele>46.0</ele><time>2026-04-06T18:02:18.051Z</time></trkpt><trkpt lat="45.9942016" lon="12.7150164"><ele>47.0</ele><time>2026-04-06T18:02:19.051Z</time></trkpt><trkpt lat="45.9943095" lon="12.7149338"><ele>48.0</ele><time>2026-04-06T18:02:20.052Z</time></trkpt><trkpt lat="45.9944202" lon="12.7148484"><ele>49.0</ele><time>2026-04-06T18:02:21.051Z</time></trkpt><trkpt lat="45.9945294" lon="12.7147619"><ele>49.0</ele><time>2026-04-06T18:02:22.051Z</time></trkpt><trkpt lat="45.9946409" lon="12.7146745"><ele>49.0</ele><time>2026-04-06T18:02:23.051Z</time></trkpt><trkpt lat="45.9947565" lon="12.7145859"><ele>49.0</ele><time>2026-04-06T18:02:24.051Z</time></trkpt><trkpt lat="45.9948692" lon="12.7144958"><ele>49.0</ele><time>2026-04-06T18:02:25.051Z</time></trkpt><trkpt lat="45.994971" lon="12.7144105"><ele>49.25</ele><time>2026-04-06T18:02:26.052Z</time></trkpt><trkpt lat="45.9950687" lon="12.714332"><ele>49.5</ele><time>2026-04-06T18:02:27.051Z</time></trkpt><trkpt lat="45.9951663" lon="12.7142573"><ele>49.75</ele><time>2026-04-06T18:02:28.052Z</time></trkpt><trkpt lat="45.9952679" lon="12.7141791"><ele>50.0</ele><time>2026-04-06T18:02:29.052Z</time></trkpt><trkpt lat="45.9953768" lon="12.7140952"><ele>50.0</ele><time>2026-04-06T18:02:30.051Z</time></trkpt><trkpt lat="45.9954853" lon="12.7140067"><ele>50.0</ele><time>2026-04-06T18:02:31.051Z</time></trkpt><trkpt lat="45.9955921" lon="12.7139208"><ele>50.0</ele><time>2026-04-06T18:02:32.051Z</time></trkpt><trkpt lat="45.9956996" lon="12.7138359"><ele>50.0</ele><time>2026-04-06T18:02:33.051Z</time></trkpt><trkpt lat="45.9958113" lon="12.7137464"><ele>50.0</ele><time>2026-04-06T18:02:34.051Z</time></trkpt><trkpt lat="45.9959246" lon="12.7136566"><ele>50.0</ele><time>2026-04-06T18:02:35.052Z</time></trkpt><trkpt lat="45.9960382" lon="12.7135612"><ele>50.0</ele><time>2026-04-06T18:02:36.051Z</time></trkpt><trkpt lat="45.9961566" lon="12.7134738"><ele>50.0</ele><time>2026-04-06T18:02:37.051Z</time></trkpt><trkpt lat="45.9962693" lon="12.7133889"><ele>50.0</ele><time>2026-04-06T18:02:38.051Z</time></trkpt><trkpt lat="45.9963729" lon="12.7133106"><ele>50.0</ele><time>2026-04-06T18:02:39.051Z</time></trkpt><trkpt lat="45.9964723" lon="12.7132384"><ele>50.0</ele><time>2026-04-06T18:02:40.052Z</time></trkpt><trkpt lat="45.9965644" lon="12.7131752"><ele>50.0</ele><time>2026-04-06T18:02:41.051Z</time></trkpt><trkpt lat="45.9966497" lon="12.7131136"><ele>50.0</ele><time>2026-04-06T18:02:42.051Z</time></trkpt><trkpt lat="45.9967242" lon="12.7130579"><ele>50.00000000000001</ele><time>2026-04-06T18:02:43.053Z</time></trkpt><trkpt lat="45.996789" lon="12.713011"><ele>50.0</ele><time>2026-04-06T18:02:44.052Z</time></trkpt><trkpt lat="45.9968569" lon="12.7129514"><ele>50.0</ele><time>2026-04-06T18:02:46.051Z</time></trkpt><trkpt lat="45.996867" lon="12.7128225"><ele>50.0</ele><time>2026-04-06T18:03:03.051Z</time></trkpt><trkpt lat="45.9967916" lon="12.7127269"><ele>50.00000000000001</ele><time>2026-04-06T18:03:05.051Z</time></trkpt><trkpt lat="45.9967355" lon="12.7126784"><ele>50.0</ele><time>2026-04-06T18:03:06.052Z</time></trkpt><trkpt lat="45.9966751" lon="12.7126275"><ele>50.333333333333336</ele><time>2026-04-06T18:03:07.052Z</time></trkpt><trkpt lat="45.9966121" lon="12.7125724"><ele>50.66666666666667</ele><time>2026-04-06T18:03:08.052Z</time></trkpt><trkpt lat="45.996538" lon="12.7125135"><ele>51.0</ele><time>2026-04-06T18:03:09.052Z</time></trkpt><trkpt lat="45.9964668" lon="12.7124524"><ele>51.33333333333333</ele><time>2026-04-06T18:03:10.052Z</time></trkpt><trkpt lat="45.9963905" lon="12.7123895"><ele>51.666666666666664</ele><time>2026-04-06T18:03:11.051Z</time></trkpt><trkpt lat="45.9963092" lon="12.7123211"><ele>52.0</ele><time>2026-04-06T18:03:12.051Z</time></trkpt><trkpt lat="45.9962251" lon="12.7122476"><ele>52.0</ele><time>2026-04-06T18:03:13.051Z</time></trkpt><trkpt lat="45.9961424" lon="12.7121693"><ele>52.0</ele><time>2026-04-06T18:03:14.051Z</time></trkpt><trkpt lat="45.9960617" lon="12.7120935"><ele>52.0</ele><time>2026-04-06T18:03:15.051Z</time></trkpt><trkpt lat="45.9959765" lon="12.7120102"><ele>52.0</ele><time>2026-04-06T18:03:16.051Z</time></trkpt><trkpt lat="45.9958854" lon="12.7119237"><ele>52.0</ele><time>2026-04-06T18:03:17.052Z</time></trkpt><trkpt lat="45.9957932" lon="12.7118366"><ele>51.6</ele><time>2026-04-06T18:03:18.052Z</time></trkpt><trkpt lat="45.9957072" lon="12.7117496"><ele>51.2</ele><time>2026-04-06T18:03:19.051Z</time></trkpt><trkpt lat="45.9956194" lon="12.7116636"><ele>50.8</ele><time>2026-04-06T18:03:20.051Z</time></trkpt><trkpt lat="45.995532" lon="12.7115802"><ele>50.4</ele><time>2026-04-06T18:03:21.052Z</time></trkpt><trkpt lat="45.9954458" lon="12.7114963"><ele>50.0</ele><time>2026-04-06T18:03:22.051Z</time></trkpt><trkpt lat="45.995366" lon="12.7114089"><ele>50.0</ele><time>2026-04-06T18:03:23.052Z</time></trkpt><trkpt lat="45.9952937" lon="12.7113231"><ele>50.0</ele><time>2026-04-06T18:03:24.051Z</time></trkpt><trkpt lat="45.995228" lon="12.7112365"><ele>50.0</ele><time>2026-04-06T18:03:25.051Z</time></trkpt><trkpt lat="45.9951648" lon="12.7111539"><ele>50.0</ele><time>2026-04-06T18:03:26.051Z</time></trkpt><trkpt lat="45.9951057" lon="12.711081"><ele>50.0</ele><time>2026-04-06T18:03:27.052Z</time></trkpt><trkpt lat="45.9950411" lon="12.710946"><ele>49.8</ele><time>2026-04-06T18:03:29.052Z</time></trkpt><trkpt lat="45.9950061" lon="12.7107755"><ele>49.6</ele><time>2026-04-06T18:03:31.051Z</time></trkpt><trkpt lat="45.9949837" lon="12.710659"><ele>49.400000000000006</ele><time>2026-04-06T18:03:32.052Z</time></trkpt><trkpt lat="45.994953" lon="12.7105334"><ele>49.2</ele><time>2026-04-06T18:03:33.051Z</time></trkpt><trkpt lat="45.9949236" lon="12.7104108"><ele>49.0</ele><time>2026-04-06T18:03:34.051Z</time></trkpt><trkpt lat="45.9948915" lon="12.7102802"><ele>48.6</ele><time>2026-04-06T18:03:35.052Z</time></trkpt><trkpt lat="45.9948601" lon="12.7101376"><ele>48.2</ele><time>2026-04-06T18:03:36.051Z</time></trkpt><trkpt lat="45.9948277" lon="12.709987"><ele>47.800000000000004</ele><time>2026-04-06T18:03:37.051Z</time></trkpt><trkpt lat="45.9947927" lon="12.7098358"><ele>47.400000000000006</ele><time>2026-04-06T18:03:38.052Z</time></trkpt><trkpt lat="45.994759" lon="12.7096855"><ele>47.0</ele><time>2026-04-06T18:03:39.051Z</time></trkpt><trkpt lat="45.9947221" lon="12.7095313"><ele>47.400000000000006</ele><time>2026-04-06T18:03:40.051Z</time></trkpt><trkpt lat="45.994683" lon="12.7093793"><ele>47.800000000000004</ele><time>2026-04-06T18:03:41.052Z</time></trkpt><trkpt lat="45.9946447" lon="12.7092369"><ele>48.2</ele><time>2026-04-06T18:03:42.052Z</time></trkpt><trkpt lat="45.994612" lon="12.7091065"><ele>48.6</ele><time>2026-04-06T18:03:43.052Z</time></trkpt><trkpt lat="45.9945834" lon="12.7089938"><ele>49.0</ele><time>2026-04-06T18:03:44.051Z</time></trkpt><trkpt lat="45.9945618" lon="12.7088911"><ele>48.99999999999999</ele><time>2026-04-06T18:03:45.052Z</time></trkpt><trkpt lat="45.9945437" lon="12.7087371"><ele>49.0</ele><time>2026-04-06T18:03:47.051Z</time></trkpt><trkpt lat="45.9945574" lon="12.7086298"><ele>49.0</ele><time>2026-04-06T18:03:59.051Z</time></trkpt><trkpt lat="45.9945948" lon="12.7085403"><ele>49.0</ele><time>2026-04-06T18:04:01.051Z</time></trkpt><trkpt lat="45.9945509" lon="12.7084352"><ele>48.99999999999999</ele><time>2026-04-06T18:04:02.052Z</time></trkpt><trkpt lat="45.994519" lon="12.7083532"><ele>49.0</ele><time>2026-04-06T18:04:03.052Z</time></trkpt><trkpt lat="45.9944777" lon="12.7082676"><ele>48.83333333333333</ele><time>2026-04-06T18:04:04.052Z</time></trkpt><trkpt lat="45.9944462" lon="12.7081787"><ele>48.666666666666664</ele><time>2026-04-06T18:04:05.051Z</time></trkpt><trkpt lat="45.9944165" lon="12.7080734"><ele>48.5</ele><time>2026-04-06T18:04:06.051Z</time></trkpt><trkpt lat="45.9943857" lon="12.7079542"><ele>48.33333333333333</ele><time>2026-04-06T18:04:07.051Z</time></trkpt><trkpt lat="45.9943577" lon="12.7078368"><ele>48.166666666666664</ele><time>2026-04-06T18:04:08.051Z</time></trkpt><trkpt lat="45.9943274" lon="12.7077141"><ele>48.0</ele><time>2026-04-06T18:04:09.053Z</time></trkpt><trkpt lat="45.9942948" lon="12.7075805"><ele>48.0</ele><time>2026-04-06T18:04:10.052Z</time></trkpt><trkpt lat="45.9942586" lon="12.7074395"><ele>48.0</ele><time>2026-04-06T18:04:11.051Z</time></trkpt><trkpt lat="45.9942242" lon="12.7073066"><ele>48.0</ele><time>2026-04-06T18:04:12.051Z</time></trkpt><trkpt lat="45.9941837" lon="12.707174"><ele>48.0</ele><time>2026-04-06T18:04:13.051Z</time></trkpt><trkpt lat="45.9941384" lon="12.7070324"><ele>48.0</ele><time>2026-04-06T18:04:14.052Z</time></trkpt><trkpt lat="45.9940904" lon="12.70689"><ele>47.5</ele><time>2026-04-06T18:04:15.052Z</time></trkpt><trkpt lat="45.9940402" lon="12.7067426"><ele>47.0</ele><time>2026-04-06T18:04:16.053Z</time></trkpt><trkpt lat="45.9939894" lon="12.7065899"><ele>46.5</ele><time>2026-04-06T18:04:17.051Z</time></trkpt><trkpt lat="45.9939401" lon="12.7064444"><ele>46.0</ele><time>2026-04-06T18:04:18.052Z</time></trkpt><trkpt lat="45.9938961" lon="12.7063048"><ele>46.0</ele><time>2026-04-06T18:04:19.052Z</time></trkpt><trkpt lat="45.9938497" lon="12.7061679"><ele>46.0</ele><time>2026-04-06T18:04:20.053Z</time></trkpt><trkpt lat="45.9937979" lon="12.7060298"><ele>46.0</ele><time>2026-04-06T18:04:21.051Z</time></trkpt><trkpt lat="45.9937373" lon="12.7058955"><ele>46.0</ele><time>2026-04-06T18:04:22.051Z</time></trkpt><trkpt lat="45.9936585" lon="12.7057735"><ele>46.0</ele><time>2026-04-06T18:04:23.051Z</time></trkpt><trkpt lat="45.9935644" lon="12.7056598"><ele>46.0</ele><time>2026-04-06T18:04:24.051Z</time></trkpt><trkpt lat="45.9934608" lon="12.7055469"><ele>46.0</ele><time>2026-04-06T18:04:25.051Z</time></trkpt><trkpt lat="45.9933524" lon="12.7054294"><ele>46.0</ele><time>2026-04-06T18:04:26.052Z</time></trkpt><trkpt lat="45.9932402" lon="12.7053018"><ele>46.0</ele><time>2026-04-06T18:04:27.052Z</time></trkpt><trkpt lat="45.9931245" lon="12.7051742"><ele>46.0</ele><time>2026-04-06T18:04:28.052Z</time></trkpt><trkpt lat="45.9930104" lon="12.7050499"><ele>46.0</ele><time>2026-04-06T18:04:29.051Z</time></trkpt><trkpt lat="45.9929005" lon="12.704934"><ele>46.0</ele><time>2026-04-06T18:04:30.051Z</time></trkpt><trkpt lat="45.9927907" lon="12.7048185"><ele>46.0</ele><time>2026-04-06T18:04:31.051Z</time></trkpt><trkpt lat="45.9926803" lon="12.704701"><ele>46.0</ele><time>2026-04-06T18:04:32.051Z</time></trkpt><trkpt lat="45.9925699" lon="12.7045813"><ele>46.0</ele><time>2026-04-06T18:04:33.051Z</time></trkpt><trkpt lat="45.992461" lon="12.7044548"><ele>46.0</ele><time>2026-04-06T18:04:34.051Z</time></trkpt><trkpt lat="45.9923531" lon="12.7043247"><ele>46.0</ele><time>2026-04-06T18:04:35.051Z</time></trkpt><trkpt lat="45.9922501" lon="12.7041849"><ele>45.75</ele><time>2026-04-06T18:04:36.051Z</time></trkpt><trkpt lat="45.9921519" lon="12.704042"><ele>45.5</ele><time>2026-04-06T18:04:37.053Z</time></trkpt><trkpt lat="45.9920563" lon="12.7038913"><ele>45.25</ele><time>2026-04-06T18:04:38.051Z</time></trkpt><trkpt lat="45.9919647" lon="12.7037367"><ele>45.0</ele><time>2026-04-06T18:04:39.052Z</time></trkpt><trkpt lat="45.991879" lon="12.7035746"><ele>44.75</ele><time>2026-04-06T18:04:40.051Z</time></trkpt><trkpt lat="45.9917977" lon="12.7034055"><ele>44.5</ele><time>2026-04-06T18:04:41.052Z</time></trkpt><trkpt lat="45.9917202" lon="12.7032331"><ele>44.25</ele><time>2026-04-06T18:04:42.052Z</time></trkpt><trkpt lat="45.9916451" lon="12.7030521"><ele>44.0</ele><time>2026-04-06T18:04:43.052Z</time></trkpt><trkpt lat="45.9915768" lon="12.7028666"><ele>44.5</ele><time>2026-04-06T18:04:44.051Z</time></trkpt><trkpt lat="45.9915048" lon="12.7026824"><ele>45.0</ele><time>2026-04-06T18:04:45.052Z</time></trkpt><trkpt lat="45.9914325" lon="12.7025027"><ele>45.5</ele><time>2026-04-06T18:04:46.051Z</time></trkpt><trkpt lat="45.9913616" lon="12.7023254"><ele>46.0</ele><time>2026-04-06T18:04:47.051Z</time></trkpt><trkpt lat="45.9912899" lon="12.7021489"><ele>46.0</ele><time>2026-04-06T18:04:48.051Z</time></trkpt><trkpt lat="45.9912137" lon="12.7019714"><ele>46.0</ele><time>2026-04-06T18:04:49.051Z</time></trkpt><trkpt lat="45.9911344" lon="12.7017896"><ele>46.0</ele><time>2026-04-06T18:04:50.053Z</time></trkpt><trkpt lat="45.9910601" lon="12.7016047"><ele>46.0</ele><time>2026-04-06T18:04:51.052Z</time></trkpt><trkpt lat="45.9909842" lon="12.7014218"><ele>46.0</ele><time>2026-04-06T18:04:52.051Z</time></trkpt><trkpt lat="45.9909123" lon="12.7012471"><ele>46.0</ele><time>2026-04-06T18:04:53.052Z</time></trkpt><trkpt lat="45.990849" lon="12.7010806"><ele>46.0</ele><time>2026-04-06T18:04:54.051Z</time></trkpt><trkpt lat="45.990798" lon="12.7009085"><ele>46.0</ele><time>2026-04-06T18:04:55.051Z</time></trkpt><trkpt lat="45.9907607" lon="12.7007216"><ele>46.0</ele><time>2026-04-06T18:04:56.051Z</time></trkpt><trkpt lat="45.9907346" lon="12.7005246"><ele>46.0</ele><time>2026-04-06T18:04:57.051Z</time></trkpt><trkpt lat="45.9907152" lon="12.7003229"><ele>46.0</ele><time>2026-04-06T18:04:58.051Z</time></trkpt><trkpt lat="45.9906945" lon="12.7001197"><ele>46.0</ele><time>2026-04-06T18:04:59.051Z</time></trkpt><trkpt lat="45.9906723" lon="12.6999303"><ele>46.0</ele><time>2026-04-06T18:05:00.052Z</time></trkpt><trkpt lat="45.9906506" lon="12.6997467"><ele>46.0</ele><time>2026-04-06T18:05:01.053Z</time></trkpt><trkpt lat="45.9906204" lon="12.6995665"><ele>46.0</ele><time>2026-04-06T18:05:02.051Z</time></trkpt><trkpt lat="45.9905735" lon="12.6993903"><ele>46.0</ele><time>2026-04-06T18:05:03.051Z</time></trkpt><trkpt lat="45.9905176" lon="12.6992191"><ele>46.0</ele><time>2026-04-06T18:05:04.051Z</time></trkpt><trkpt lat="45.9904545" lon="12.6990474"><ele>46.0</ele><time>2026-04-06T18:05:05.053Z</time></trkpt><trkpt lat="45.9903933" lon="12.6988671"><ele>46.0</ele><time>2026-04-06T18:05:06.053Z</time></trkpt><trkpt lat="45.9903417" lon="12.6986986"><ele>46.0</ele><time>2026-04-06T18:05:07.053Z</time></trkpt><trkpt lat="45.9902942" lon="12.6985325"><ele>46.0</ele><time>2026-04-06T18:05:08.051Z</time></trkpt><trkpt lat="45.9902486" lon="12.6983614"><ele>46.0</ele><time>2026-04-06T18:05:09.052Z</time></trkpt><trkpt lat="45.9902022" lon="12.6981864"><ele>46.0</ele><time>2026-04-06T18:05:10.052Z</time></trkpt><trkpt lat="45.9901573" lon="12.6980093"><ele>46.0</ele><time>2026-04-06T18:05:11.052Z</time></trkpt><trkpt lat="45.990111" lon="12.697835"><ele>46.0</ele><time>2026-04-06T18:05:12.051Z</time></trkpt><trkpt lat="45.9900637" lon="12.6976544"><ele>46.0</ele><time>2026-04-06T18:05:13.052Z</time></trkpt><trkpt lat="45.9900215" lon="12.6974697"><ele>46.0</ele><time>2026-04-06T18:05:14.052Z</time></trkpt><trkpt lat="45.9899893" lon="12.6972783"><ele>46.0</ele><time>2026-04-06T18:05:15.052Z</time></trkpt><trkpt lat="45.9899639" lon="12.6970816"><ele>46.0</ele><time>2026-04-06T18:05:16.052Z</time></trkpt><trkpt lat="45.9899429" lon="12.6968808"><ele>46.0</ele><time>2026-04-06T18:05:17.052Z</time></trkpt><trkpt lat="45.9899214" lon="12.6966947"><ele>46.0</ele><time>2026-04-06T18:05:18.052Z</time></trkpt><trkpt lat="45.9899001" lon="12.6965212"><ele>46.0</ele><time>2026-04-06T18:05:19.053Z</time></trkpt><trkpt lat="45.9898802" lon="12.6963563"><ele>46.0</ele><time>2026-04-06T18:05:20.052Z</time></trkpt><trkpt lat="45.9898604" lon="12.6961935"><ele>46.0</ele><time>2026-04-06T18:05:21.052Z</time></trkpt><trkpt lat="45.9898411" lon="12.6960259"><ele>46.0</ele><time>2026-04-06T18:05:22.052Z</time></trkpt><trkpt lat="45.989824" lon="12.6958544"><ele>46.0</ele><time>2026-04-06T18:05:23.052Z</time></trkpt><trkpt lat="45.9898066" lon="12.6956761"><ele>46.5</ele><time>2026-04-06T18:05:24.052Z</time></trkpt><trkpt lat="45.9897829" lon="12.695497"><ele>47.0</ele><time>2026-04-06T18:05:25.051Z</time></trkpt><trkpt lat="45.9897477" lon="12.6953217"><ele>47.5</ele><time>2026-04-06T18:05:26.052Z</time></trkpt><trkpt lat="45.9897006" lon="12.6951606"><ele>48.0</ele><time>2026-04-06T18:05:27.052Z</time></trkpt><trkpt lat="45.989647" lon="12.6950107"><ele>48.25</ele><time>2026-04-06T18:05:28.052Z</time></trkpt><trkpt lat="45.9895908" lon="12.6948618"><ele>48.5</ele><time>2026-04-06T18:05:29.051Z</time></trkpt><trkpt lat="45.989534" lon="12.6947076"><ele>48.75</ele><time>2026-04-06T18:05:30.053Z</time></trkpt><trkpt lat="45.9894746" lon="12.6945508"><ele>49.0</ele><time>2026-04-06T18:05:31.052Z</time></trkpt><trkpt lat="45.9894119" lon="12.694384"><ele>49.0</ele><time>2026-04-06T18:05:32.052Z</time></trkpt><trkpt lat="45.9893504" lon="12.6942167"><ele>49.0</ele><time>2026-04-06T18:05:33.051Z</time></trkpt><trkpt lat="45.9892864" lon="12.6940428"><ele>49.0</ele><time>2026-04-06T18:05:34.052Z</time></trkpt><trkpt lat="45.9892196" lon="12.693866"><ele>49.0</ele><time>2026-04-06T18:05:35.051Z</time></trkpt><trkpt lat="45.9891512" lon="12.693685"><ele>48.5</ele><time>2026-04-06T18:05:36.052Z</time></trkpt><trkpt lat="45.9890888" lon="12.6935171"><ele>48.0</ele><time>2026-04-06T18:05:37.051Z</time></trkpt><trkpt lat="45.9890265" lon="12.693355"><ele>47.5</ele><time>2026-04-06T18:05:38.052Z</time></trkpt><trkpt lat="45.9889627" lon="12.6931912"><ele>47.0</ele><time>2026-04-06T18:05:39.051Z</time></trkpt><trkpt lat="45.9888996" lon="12.6930255"><ele>47.0</ele><time>2026-04-06T18:05:40.052Z</time></trkpt><trkpt lat="45.9888349" lon="12.6928596"><ele>47.0</ele><time>2026-04-06T18:05:41.052Z</time></trkpt><trkpt lat="45.98877" lon="12.6926904"><ele>47.0</ele><time>2026-04-06T18:05:42.052Z</time></trkpt><trkpt lat="45.9887023" lon="12.6925233"><ele>47.0</ele><time>2026-04-06T18:05:43.051Z</time></trkpt><trkpt lat="45.988635" lon="12.6923535"><ele>47.0</ele><time>2026-04-06T18:05:44.051Z</time></trkpt><trkpt lat="45.9885676" lon="12.6921806"><ele>47.0</ele><time>2026-04-06T18:05:45.051Z</time></trkpt><trkpt lat="45.9884994" lon="12.692014"><ele>47.0</ele><time>2026-04-06T18:05:46.052Z</time></trkpt><trkpt lat="45.988433" lon="12.6918536"><ele>47.0</ele><time>2026-04-06T18:05:47.052Z</time></trkpt><trkpt lat="45.9883705" lon="12.6917007"><ele>47.0</ele><time>2026-04-06T18:05:48.052Z</time></trkpt><trkpt lat="45.9883085" lon="12.6915421"><ele>47.0</ele><time>2026-04-06T18:05:49.051Z</time></trkpt><trkpt lat="45.988245" lon="12.6913835"><ele>47.0</ele><time>2026-04-06T18:05:50.052Z</time></trkpt><trkpt lat="45.9881861" lon="12.6912299"><ele>47.0</ele><time>2026-04-06T18:05:51.051Z</time></trkpt><trkpt lat="45.9881303" lon="12.6910793"><ele>47.0</ele><time>2026-04-06T18:05:52.052Z</time></trkpt><trkpt lat="45.9880726" lon="12.6909236"><ele>47.0</ele><time>2026-04-06T18:05:53.051Z</time></trkpt><trkpt lat="45.988011" lon="12.6907674"><ele>47.0</ele><time>2026-04-06T18:05:54.052Z</time></trkpt><trkpt lat="45.9879492" lon="12.6906184"><ele>47.0</ele><time>2026-04-06T18:05:55.052Z</time></trkpt><trkpt lat="45.9878858" lon="12.6904694"><ele>47.0</ele><time>2026-04-06T18:05:56.051Z</time></trkpt><trkpt lat="45.9878243" lon="12.6903146"><ele>47.0</ele><time>2026-04-06T18:05:57.051Z</time></trkpt><trkpt lat="45.9877609" lon="12.6901641"><ele>47.0</ele><time>2026-04-06T18:05:58.051Z</time></trkpt><trkpt lat="45.9876932" lon="12.6900067"><ele>47.0</ele><time>2026-04-06T18:05:59.052Z</time></trkpt><trkpt lat="45.9876232" lon="12.6898441"><ele>47.25</ele><time>2026-04-06T18:06:00.051Z</time></trkpt><trkpt lat="45.9875521" lon="12.6896869"><ele>47.5</ele><time>2026-04-06T18:06:01.051Z</time></trkpt><trkpt lat="45.9874841" lon="12.6895405"><ele>47.75</ele><time>2026-04-06T18:06:02.051Z</time></trkpt><trkpt lat="45.9874165" lon="12.6894019"><ele>48.0</ele><time>2026-04-06T18:06:03.052Z</time></trkpt><trkpt lat="45.9873511" lon="12.6892633"><ele>48.0</ele><time>2026-04-06T18:06:04.052Z</time></trkpt><trkpt lat="45.9872833" lon="12.6891248"><ele>48.0</ele><time>2026-04-06T18:06:05.051Z</time></trkpt><trkpt lat="45.9872212" lon="12.6889921"><ele>48.0</ele><time>2026-04-06T18:06:06.051Z</time></trkpt><trkpt lat="45.9871621" lon="12.6888649"><ele>48.0</ele><time>2026-04-06T18:06:07.052Z</time></trkpt><trkpt lat="45.9871047" lon="12.6887392"><ele>48.0</ele><time>2026-04-06T18:06:08.052Z</time></trkpt><trkpt lat="45.9870456" lon="12.6886091"><ele>48.75</ele><time>2026-04-06T18:06:09.051Z</time></trkpt><trkpt lat="45.9869829" lon="12.6884781"><ele>49.5</ele><time>2026-04-06T18:06:10.051Z</time></trkpt><trkpt lat="45.9869146" lon="12.6883457"><ele>50.25</ele><time>2026-04-06T18:06:11.051Z</time></trkpt><trkpt lat="45.986841" lon="12.6882174"><ele>51.0</ele><time>2026-04-06T18:06:12.051Z</time></trkpt><trkpt lat="45.9867628" lon="12.6880909"><ele>51.0</ele><time>2026-04-06T18:06:13.051Z</time></trkpt><trkpt lat="45.9866838" lon="12.687966"><ele>51.0</ele><time>2026-04-06T18:06:14.052Z</time></trkpt><trkpt lat="45.9866031" lon="12.6878408"><ele>51.0</ele><time>2026-04-06T18:06:15.052Z</time></trkpt><trkpt lat="45.9865203" lon="12.6877139"><ele>51.0</ele><time>2026-04-06T18:06:16.052Z</time></trkpt><trkpt lat="45.9864441" lon="12.6875827"><ele>50.199999999999996</ele><time>2026-04-06T18:06:17.051Z</time></trkpt><trkpt lat="45.9863757" lon="12.6874579"><ele>49.4</ele><time>2026-04-06T18:06:18.052Z</time></trkpt><trkpt lat="45.986313" lon="12.6873344"><ele>48.6</ele><time>2026-04-06T18:06:19.052Z</time></trkpt><trkpt lat="45.9862468" lon="12.6872088"><ele>47.8</ele><time>2026-04-06T18:06:20.051Z</time></trkpt><trkpt lat="45.9861801" lon="12.6870792"><ele>47.0</ele><time>2026-04-06T18:06:21.052Z</time></trkpt><trkpt lat="45.9861103" lon="12.6869473"><ele>47.0</ele><time>2026-04-06T18:06:22.051Z</time></trkpt><trkpt lat="45.9860463" lon="12.686828"><ele>47.0</ele><time>2026-04-06T18:06:23.052Z</time></trkpt><trkpt lat="45.9859818" lon="12.6867106"><ele>47.0</ele><time>2026-04-06T18:06:24.052Z</time></trkpt><trkpt lat="45.98592" lon="12.6865968"><ele>47.0</ele><time>2026-04-06T18:06:25.052Z</time></trkpt><trkpt lat="45.9858563" lon="12.6864842"><ele>47.0</ele><time>2026-04-06T18:06:26.052Z</time></trkpt><trkpt lat="45.985789" lon="12.6863578"><ele>47.25</ele><time>2026-04-06T18:06:27.052Z</time></trkpt><trkpt lat="45.98572" lon="12.6862232"><ele>47.5</ele><time>2026-04-06T18:06:28.052Z</time></trkpt><trkpt lat="45.9856429" lon="12.6860777"><ele>47.75</ele><time>2026-04-06T18:06:29.052Z</time></trkpt><trkpt lat="45.9855607" lon="12.6859306"><ele>48.0</ele><time>2026-04-06T18:06:30.051Z</time></trkpt><trkpt lat="45.9854702" lon="12.6857789"><ele>48.0</ele><time>2026-04-06T18:06:31.051Z</time></trkpt><trkpt lat="45.9853748" lon="12.685619"><ele>48.0</ele><time>2026-04-06T18:06:32.051Z</time></trkpt><trkpt lat="45.9852774" lon="12.6854528"><ele>48.0</ele><time>2026-04-06T18:06:33.051Z</time></trkpt><trkpt lat="45.9851763" lon="12.6852815"><ele>47.666666666666664</ele><time>2026-04-06T18:06:34.052Z</time></trkpt><trkpt lat="45.9850711" lon="12.6851095"><ele>47.33333333333333</ele><time>2026-04-06T18:06:35.052Z</time></trkpt><trkpt lat="45.9849686" lon="12.6849367"><ele>47.0</ele><time>2026-04-06T18:06:36.053Z</time></trkpt><trkpt lat="45.984869" lon="12.6847633"><ele>46.666666666666664</ele><time>2026-04-06T18:06:37.052Z</time></trkpt><trkpt lat="45.9847696" lon="12.6845908"><ele>46.333333333333336</ele><time>2026-04-06T18:06:38.051Z</time></trkpt><trkpt lat="45.984671" lon="12.6844147"><ele>46.0</ele><time>2026-04-06T18:06:39.051Z</time></trkpt><trkpt lat="45.9845721" lon="12.6842378"><ele>44.333333333333336</ele><time>2026-04-06T18:06:40.052Z</time></trkpt><trkpt lat="45.9844751" lon="12.6840601"><ele>42.666666666666664</ele><time>2026-04-06T18:06:41.051Z</time></trkpt><trkpt lat="45.9843772" lon="12.6838813"><ele>41.0</ele><time>2026-04-06T18:06:42.051Z</time></trkpt><trkpt lat="45.9842779" lon="12.6837014"><ele>41.33333333333333</ele><time>2026-04-06T18:06:43.051Z</time></trkpt><trkpt lat="45.9841772" lon="12.6835206"><ele>41.666666666666664</ele><time>2026-04-06T18:06:44.052Z</time></trkpt><trkpt lat="45.984076" lon="12.683337"><ele>42.0</ele><time>2026-04-06T18:06:45.051Z</time></trkpt><trkpt lat="45.9839744" lon="12.6831559"><ele>42.0</ele><time>2026-04-06T18:06:46.052Z</time></trkpt><trkpt lat="45.9838736" lon="12.6829709"><ele>42.0</ele><time>2026-04-06T18:06:47.052Z</time></trkpt><trkpt lat="45.9837724" lon="12.6827839"><ele>42.0</ele><time>2026-04-06T18:06:48.052Z</time></trkpt><trkpt lat="45.9836685" lon="12.6826001"><ele>42.333333333333336</ele><time>2026-04-06T18:06:49.052Z</time></trkpt><trkpt lat="45.9835621" lon="12.6824152"><ele>42.66666666666667</ele><time>2026-04-06T18:06:50.052Z</time></trkpt><trkpt lat="45.9834533" lon="12.6822315"><ele>43.0</ele><time>2026-04-06T18:06:51.052Z</time></trkpt><trkpt lat="45.9833401" lon="12.6820571"><ele>44.0</ele><time>2026-04-06T18:06:52.052Z</time></trkpt><trkpt lat="45.9832243" lon="12.6818814"><ele>45.0</ele><time>2026-04-06T18:06:53.051Z</time></trkpt><trkpt lat="45.9831099" lon="12.6817071"><ele>46.0</ele><time>2026-04-06T18:06:54.051Z</time></trkpt><trkpt lat="45.9829923" lon="12.6815302"><ele>46.0</ele><time>2026-04-06T18:06:55.052Z</time></trkpt><trkpt lat="45.9828793" lon="12.6813552"><ele>46.0</ele><time>2026-04-06T18:06:56.051Z</time></trkpt><trkpt lat="45.982773" lon="12.6811938"><ele>46.0</ele><time>2026-04-06T18:06:57.052Z</time></trkpt><trkpt lat="45.9826687" lon="12.6810373"><ele>46.0</ele><time>2026-04-06T18:06:58.051Z</time></trkpt><trkpt lat="45.9825653" lon="12.68088"><ele>46.0</ele><time>2026-04-06T18:06:59.051Z</time></trkpt><trkpt lat="45.9824591" lon="12.6807192"><ele>46.0</ele><time>2026-04-06T18:07:00.051Z</time></trkpt><trkpt lat="45.9823527" lon="12.6805567"><ele>45.66666666666667</ele><time>2026-04-06T18:07:01.051Z</time></trkpt><trkpt lat="45.9822459" lon="12.680392"><ele>45.333333333333336</ele><time>2026-04-06T18:07:02.051Z</time></trkpt><trkpt lat="45.9821387" lon="12.6802262"><ele>45.0</ele><time>2026-04-06T18:07:03.051Z</time></trkpt><trkpt lat="45.9820309" lon="12.6800609"><ele>45.0</ele><time>2026-04-06T18:07:04.051Z</time></trkpt><trkpt lat="45.9819224" lon="12.6798973"><ele>45.0</ele><time>2026-04-06T18:07:05.052Z</time></trkpt><trkpt lat="45.9818163" lon="12.6797347"><ele>45.0</ele><time>2026-04-06T18:07:06.052Z</time></trkpt><trkpt lat="45.9817137" lon="12.6795811"><ele>44.75</ele><time>2026-04-06T18:07:07.053Z</time></trkpt><trkpt lat="45.9816191" lon="12.6794347"><ele>44.5</ele><time>2026-04-06T18:07:08.051Z</time></trkpt><trkpt lat="45.9815202" lon="12.679286"><ele>44.25</ele><time>2026-04-06T18:07:09.051Z</time></trkpt><trkpt lat="45.9814207" lon="12.6791286"><ele>44.0</ele><time>2026-04-06T18:07:10.051Z</time></trkpt><trkpt lat="45.9813243" lon="12.6789659"><ele>44.0</ele><time>2026-04-06T18:07:11.053Z</time></trkpt><trkpt lat="45.9812389" lon="12.6788033"><ele>44.0</ele><time>2026-04-06T18:07:12.052Z</time></trkpt><trkpt lat="45.9811619" lon="12.67864"><ele>44.0</ele><time>2026-04-06T18:07:13.052Z</time></trkpt><trkpt lat="45.9810896" lon="12.6784738"><ele>44.0</ele><time>2026-04-06T18:07:14.051Z</time></trkpt><trkpt lat="45.9810176" lon="12.678305"><ele>44.0</ele><time>2026-04-06T18:07:15.051Z</time></trkpt><trkpt lat="45.9809508" lon="12.6781366"><ele>44.0</ele><time>2026-04-06T18:07:16.051Z</time></trkpt><trkpt lat="45.9808893" lon="12.6779739"><ele>44.0</ele><time>2026-04-06T18:07:17.052Z</time></trkpt><trkpt lat="45.9808339" lon="12.6778187"><ele>44.0</ele><time>2026-04-06T18:07:18.051Z</time></trkpt><trkpt lat="45.9807777" lon="12.6776578"><ele>44.0</ele><time>2026-04-06T18:07:19.052Z</time></trkpt><trkpt lat="45.9807276" lon="12.6774883"><ele>44.0</ele><time>2026-04-06T18:07:20.051Z</time></trkpt><trkpt lat="45.9806797" lon="12.6773079"><ele>44.0</ele><time>2026-04-06T18:07:21.052Z</time></trkpt><trkpt lat="45.9806303" lon="12.6771187"><ele>44.0</ele><time>2026-04-06T18:07:22.052Z</time></trkpt><trkpt lat="45.98058" lon="12.6769301"><ele>44.25</ele><time>2026-04-06T18:07:23.053Z</time></trkpt><trkpt lat="45.9805328" lon="12.6767521"><ele>44.5</ele><time>2026-04-06T18:07:24.052Z</time></trkpt><trkpt lat="45.9804867" lon="12.6765641"><ele>44.75</ele><time>2026-04-06T18:07:25.051Z</time></trkpt><trkpt lat="45.9804385" lon="12.6763702"><ele>45.0</ele><time>2026-04-06T18:07:26.051Z</time></trkpt><trkpt lat="45.9803876" lon="12.6761762"><ele>45.75</ele><time>2026-04-06T18:07:27.051Z</time></trkpt><trkpt lat="45.9803388" lon="12.6759948"><ele>46.5</ele><time>2026-04-06T18:07:28.051Z</time></trkpt><trkpt lat="45.9802919" lon="12.6758206"><ele>47.25</ele><time>2026-04-06T18:07:29.052Z</time></trkpt><trkpt lat="45.980248" lon="12.6756503"><ele>48.0</ele><time>2026-04-06T18:07:30.053Z</time></trkpt><trkpt lat="45.9802081" lon="12.6754857"><ele>48.0</ele><time>2026-04-06T18:07:31.052Z</time></trkpt><trkpt lat="45.9801667" lon="12.675329"><ele>48.0</ele><time>2026-04-06T18:07:32.052Z</time></trkpt><trkpt lat="45.9801304" lon="12.6751815"><ele>48.0</ele><time>2026-04-06T18:07:33.052Z</time></trkpt><trkpt lat="45.9800977" lon="12.6750528"><ele>48.0</ele><time>2026-04-06T18:07:34.052Z</time></trkpt><trkpt lat="45.9800703" lon="12.6749394"><ele>48.0</ele><time>2026-04-06T18:07:35.051Z</time></trkpt><trkpt lat="45.9800461" lon="12.6748452"><ele>46.833333333333336</ele><time>2026-04-06T18:07:36.051Z</time></trkpt><trkpt lat="45.9800099" lon="12.6747135"><ele>45.666666666666664</ele><time>2026-04-06T18:07:38.052Z</time></trkpt><trkpt lat="45.9799786" lon="12.6746207"><ele>44.5</ele><time>2026-04-06T18:07:43.051Z</time></trkpt><trkpt lat="45.9798918" lon="12.6746083"><ele>43.33333333333333</ele><time>2026-04-06T18:07:46.052Z</time></trkpt><trkpt lat="45.9798395" lon="12.6746721"><ele>42.166666666666664</ele><time>2026-04-06T18:07:47.051Z</time></trkpt><trkpt lat="45.9797727" lon="12.6747269"><ele>41.0</ele><time>2026-04-06T18:07:48.052Z</time></trkpt><trkpt lat="45.9797064" lon="12.6747828"><ele>41.0</ele><time>2026-04-06T18:07:49.051Z</time></trkpt><trkpt lat="45.9796284" lon="12.6748528"><ele>41.0</ele><time>2026-04-06T18:07:50.051Z</time></trkpt><trkpt lat="45.97955" lon="12.6749225"><ele>41.0</ele><time>2026-04-06T18:07:51.051Z</time></trkpt><trkpt lat="45.9794728" lon="12.6749968"><ele>41.0</ele><time>2026-04-06T18:07:52.051Z</time></trkpt><trkpt lat="45.9793915" lon="12.6750827"><ele>41.0</ele><time>2026-04-06T18:07:53.051Z</time></trkpt><trkpt lat="45.9793045" lon="12.6751731"><ele>41.0</ele><time>2026-04-06T18:07:54.051Z</time></trkpt><trkpt lat="45.9792245" lon="12.6752675"><ele>41.0</ele><time>2026-04-06T18:07:55.052Z</time></trkpt><trkpt lat="45.9791508" lon="12.6753613"><ele>41.0</ele><time>2026-04-06T18:07:56.053Z</time></trkpt><trkpt lat="45.9790795" lon="12.675464"><ele>41.0</ele><time>2026-04-06T18:07:57.052Z</time></trkpt><trkpt lat="45.979" lon="12.6755687"><ele>41.0</ele><time>2026-04-06T18:07:58.051Z</time></trkpt><trkpt lat="45.9789133" lon="12.6756761"><ele>40.8</ele><time>2026-04-06T18:07:59.051Z</time></trkpt><trkpt lat="45.9788269" lon="12.675778"><ele>40.599999999999994</ele><time>2026-04-06T18:08:00.051Z</time></trkpt><trkpt lat="45.9787401" lon="12.6758777"><ele>40.4</ele><time>2026-04-06T18:08:01.051Z</time></trkpt><trkpt lat="45.9786512" lon="12.6759761"><ele>40.2</ele><time>2026-04-06T18:08:02.053Z</time></trkpt><trkpt lat="45.9785641" lon="12.6760696"><ele>40.0</ele><time>2026-04-06T18:08:03.052Z</time></trkpt><trkpt lat="45.9784808" lon="12.6761612"><ele>39.8</ele><time>2026-04-06T18:08:04.051Z</time></trkpt><trkpt lat="45.9784027" lon="12.6762517"><ele>39.6</ele><time>2026-04-06T18:08:05.051Z</time></trkpt><trkpt lat="45.9783247" lon="12.6763379"><ele>39.4</ele><time>2026-04-06T18:08:06.052Z</time></trkpt><trkpt lat="45.9782447" lon="12.6764288"><ele>39.2</ele><time>2026-04-06T18:08:07.051Z</time></trkpt><trkpt lat="45.9781564" lon="12.6765219"><ele>39.0</ele><time>2026-04-06T18:08:08.052Z</time></trkpt><trkpt lat="45.9780649" lon="12.6766206"><ele>39.0</ele><time>2026-04-06T18:08:09.051Z</time></trkpt><trkpt lat="45.9779705" lon="12.676727"><ele>39.0</ele><time>2026-04-06T18:08:10.051Z</time></trkpt><trkpt lat="45.9778808" lon="12.6768341"><ele>39.0</ele><time>2026-04-06T18:08:11.052Z</time></trkpt><trkpt lat="45.977795" lon="12.6769412"><ele>39.0</ele><time>2026-04-06T18:08:12.051Z</time></trkpt><trkpt lat="45.9777117" lon="12.6770427"><ele>38.8</ele><time>2026-04-06T18:08:13.051Z</time></trkpt><trkpt lat="45.97763" lon="12.6771395"><ele>38.599999999999994</ele><time>2026-04-06T18:08:14.051Z</time></trkpt><trkpt lat="45.9775512" lon="12.6772321"><ele>38.4</ele><time>2026-04-06T18:08:15.051Z</time></trkpt><trkpt lat="45.9774765" lon="12.6773233"><ele>38.199999999999996</ele><time>2026-04-06T18:08:16.051Z</time></trkpt><trkpt lat="45.9774044" lon="12.6774116"><ele>38.0</ele><time>2026-04-06T18:08:17.051Z</time></trkpt><trkpt lat="45.9773319" lon="12.6774977"><ele>38.0</ele><time>2026-04-06T18:08:18.052Z</time></trkpt><trkpt lat="45.9772545" lon="12.6775912"><ele>38.0</ele><time>2026-04-06T18:08:19.051Z</time></trkpt><trkpt lat="45.9771702" lon="12.6776904"><ele>38.0</ele><time>2026-04-06T18:08:20.052Z</time></trkpt><trkpt lat="45.9770808" lon="12.6777941"><ele>38.0</ele><time>2026-04-06T18:08:21.051Z</time></trkpt><trkpt lat="45.9769934" lon="12.6778934"><ele>38.0</ele><time>2026-04-06T18:08:22.051Z</time></trkpt><trkpt lat="45.9769097" lon="12.6779873"><ele>38.0</ele><time>2026-04-06T18:08:23.052Z</time></trkpt><trkpt lat="45.9768312" lon="12.6780773"><ele>38.0</ele><time>2026-04-06T18:08:24.052Z</time></trkpt><trkpt lat="45.9767587" lon="12.6781608"><ele>38.0</ele><time>2026-04-06T18:08:25.051Z</time></trkpt><trkpt lat="45.9766864" lon="12.6782364"><ele>38.0</ele><time>2026-04-06T18:08:26.052Z</time></trkpt><trkpt lat="45.9766179" lon="12.6783078"><ele>38.0</ele><time>2026-04-06T18:08:27.051Z</time></trkpt><trkpt lat="45.9765534" lon="12.6783761"><ele>38.0</ele><time>2026-04-06T18:08:28.051Z</time></trkpt><trkpt lat="45.9764921" lon="12.6784446"><ele>37.666666666666664</ele><time>2026-04-06T18:08:29.052Z</time></trkpt><trkpt lat="45.976437" lon="12.6785145"><ele>37.33333333333333</ele><time>2026-04-06T18:08:30.051Z</time></trkpt><trkpt lat="45.9763889" lon="12.6785826"><ele>37.0</ele><time>2026-04-06T18:08:31.051Z</time></trkpt><trkpt lat="45.9763208" lon="12.6786764"><ele>36.666666666666664</ele><time>2026-04-06T18:08:33.051Z</time></trkpt><trkpt lat="45.9762583" lon="12.6786655"><ele>36.333333333333336</ele><time>2026-04-06T18:08:35.051Z</time></trkpt><trkpt lat="45.9761969" lon="12.678542"><ele>36.0</ele><time>2026-04-06T18:08:37.052Z</time></trkpt><trkpt lat="45.9761583" lon="12.6784494"><ele>36.0</ele><time>2026-04-06T18:08:38.052Z</time></trkpt><trkpt lat="45.9761213" lon="12.6783599"><ele>36.0</ele><time>2026-04-06T18:08:39.052Z</time></trkpt><trkpt lat="45.9760803" lon="12.6782599"><ele>36.0</ele><time>2026-04-06T18:08:40.052Z</time></trkpt><trkpt lat="45.9760319" lon="12.6781448"><ele>36.0</ele><time>2026-04-06T18:08:41.053Z</time></trkpt><trkpt lat="45.9759799" lon="12.6780188"><ele>36.0</ele><time>2026-04-06T18:08:42.052Z</time></trkpt><trkpt lat="45.9759313" lon="12.6778993"><ele>36.0</ele><time>2026-04-06T18:08:43.052Z</time></trkpt><trkpt lat="45.9758841" lon="12.6777799"><ele>36.0</ele><time>2026-04-06T18:08:44.052Z</time></trkpt><trkpt lat="45.9758357" lon="12.6776551"><ele>36.0</ele><time>2026-04-06T18:08:45.052Z</time></trkpt><trkpt lat="45.9757871" lon="12.6775279"><ele>36.0</ele><time>2026-04-06T18:08:46.052Z</time></trkpt><trkpt lat="45.9757377" lon="12.6774014"><ele>36.0</ele><time>2026-04-06T18:08:47.051Z</time></trkpt><trkpt lat="45.9756868" lon="12.6772747"><ele>36.0</ele><time>2026-04-06T18:08:48.051Z</time></trkpt><trkpt lat="45.9756366" lon="12.6771459"><ele>36.0</ele><time>2026-04-06T18:08:49.051Z</time></trkpt><trkpt lat="45.9755838" lon="12.6770182"><ele>36.0</ele><time>2026-04-06T18:08:50.052Z</time></trkpt><trkpt lat="45.9755295" lon="12.6768925"><ele>36.0</ele><time>2026-04-06T18:08:51.051Z</time></trkpt><trkpt lat="45.9754756" lon="12.6767653"><ele>36.0</ele><time>2026-04-06T18:08:52.051Z</time></trkpt><trkpt lat="45.9754226" lon="12.6766384"><ele>36.0</ele><time>2026-04-06T18:08:53.051Z</time></trkpt><trkpt lat="45.9753655" lon="12.6765132"><ele>35.833333333333336</ele><time>2026-04-06T18:08:54.052Z</time></trkpt><trkpt lat="45.9753144" lon="12.6764041"><ele>35.666666666666664</ele><time>2026-04-06T18:08:55.052Z</time></trkpt><trkpt lat="45.9752649" lon="12.6763086"><ele>35.5</ele><time>2026-04-06T18:08:56.052Z</time></trkpt><trkpt lat="45.9752249" lon="12.6762291"><ele>35.33333333333333</ele><time>2026-04-06T18:08:57.052Z</time></trkpt><trkpt lat="45.9751377" lon="12.676167"><ele>35.166666666666664</ele><time>2026-04-06T18:08:59.052Z</time></trkpt><trkpt lat="45.9750461" lon="12.6762362"><ele>35.0</ele><time>2026-04-06T18:09:01.051Z</time></trkpt><trkpt lat="45.9749958" lon="12.6762945"><ele>35.0</ele><time>2026-04-06T18:09:02.052Z</time></trkpt><trkpt lat="45.9749045" lon="12.6763801"><ele>35.0</ele><time>2026-04-06T18:09:04.053Z</time></trkpt><trkpt lat="45.9748163" lon="12.6764696"><ele>35.0</ele><time>2026-04-06T18:09:06.051Z</time></trkpt><trkpt lat="45.9747653" lon="12.6765311"><ele>35.0</ele><time>2026-04-06T18:09:07.051Z</time></trkpt><trkpt lat="45.9747077" lon="12.676599"><ele>35.0</ele><time>2026-04-06T18:09:08.051Z</time></trkpt><trkpt lat="45.974645" lon="12.6766684"><ele>35.0</ele><time>2026-04-06T18:09:09.051Z</time></trkpt><trkpt lat="45.9745789" lon="12.6767409"><ele>35.0</ele><time>2026-04-06T18:09:10.051Z</time></trkpt><trkpt lat="45.974516" lon="12.6768205"><ele>35.0</ele><time>2026-04-06T18:09:11.052Z</time></trkpt><trkpt lat="45.9744544" lon="12.6768934"><ele>35.0</ele><time>2026-04-06T18:09:12.052Z</time></trkpt><trkpt lat="45.9743973" lon="12.676953"><ele>35.0</ele><time>2026-04-06T18:09:13.053Z</time></trkpt><trkpt lat="45.9743423" lon="12.6770096"><ele>35.0</ele><time>2026-04-06T18:09:14.052Z</time></trkpt><trkpt lat="45.9742889" lon="12.6770596"><ele>35.0</ele><time>2026-04-06T18:09:15.052Z</time></trkpt><trkpt lat="45.9741928" lon="12.6771671"><ele>34.8</ele><time>2026-04-06T18:09:17.051Z</time></trkpt><trkpt lat="45.9740968" lon="12.6772505"><ele>34.6</ele><time>2026-04-06T18:09:19.052Z</time></trkpt><trkpt lat="45.9739938" lon="12.6772541"><ele>34.4</ele><time>2026-04-06T18:09:21.052Z</time></trkpt><trkpt lat="45.973902" lon="12.6773415"><ele>34.2</ele><time>2026-04-06T18:09:23.051Z</time></trkpt><trkpt lat="45.9738107" lon="12.6774518"><ele>34.0</ele><time>2026-04-06T18:09:25.052Z</time></trkpt><trkpt lat="45.9737244" lon="12.6775556"><ele>34.0</ele><time>2026-04-06T18:09:27.051Z</time></trkpt><trkpt lat="45.9736448" lon="12.6776442"><ele>34.0</ele><time>2026-04-06T18:09:29.051Z</time></trkpt><trkpt lat="45.9735743" lon="12.6777243"><ele>34.0</ele><time>2026-04-06T18:09:31.051Z</time></trkpt><trkpt lat="45.9735064" lon="12.6777947"><ele>34.0</ele><time>2026-04-06T18:09:33.051Z</time></trkpt><trkpt lat="45.9734426" lon="12.6778567"><ele>34.0</ele><time>2026-04-06T18:09:35.051Z</time></trkpt><trkpt lat="45.973374" lon="12.6779304"><ele>34.0</ele><time>2026-04-06T18:09:37.051Z</time></trkpt><trkpt lat="45.9732827" lon="12.6780505"><ele>33.4</ele><time>2026-04-06T18:09:39.053Z</time></trkpt><trkpt lat="45.9731889" lon="12.6781545"><ele>32.8</ele><time>2026-04-06T18:09:41.052Z</time></trkpt><trkpt lat="45.9731031" lon="12.6782459"><ele>32.2</ele><time>2026-04-06T18:09:43.053Z</time></trkpt><trkpt lat="45.9730178" lon="12.6783257"><ele>31.6</ele><time>2026-04-06T18:09:45.053Z</time></trkpt><trkpt lat="45.9729431" lon="12.6784008"><ele>31.0</ele><time>2026-04-06T18:09:47.052Z</time></trkpt><trkpt lat="45.9728884" lon="12.6784726"><ele>31.0</ele><time>2026-04-06T18:09:49.053Z</time></trkpt></trkseg></trk></gpx>